[[{"header":{"parameterUnit":"m.s-1","parameterCategory":1,"la1":30.6,"la2":28.766,"lo1":-90.7593,"lo2":-88.6598,"dy":0.0162,"dx":0.0183,"nx":116,"ny":114,"refTime":"2023-11-20T18:00:00:Z","depth":0,"parameterNumber":2,"parameterNumberName":"U-component_of_WINDS"},"data":[0.0,0.0,0.0,0.0,0.0,0.0,0.0,0.0,0.0,0.0,0.0,0.0,0.0,0.0,0.0,0.0,0.0,0.0,0.0,0.0,0.0,0.0,0.0,0.0,0.0,0.0,0.0,0.0,0.0,0.0,0.0,0.0,0.0,0.0,0.0,0.0,0.0,0.0,0.0,0.0,0.0,0.0,0.0,0.0,0.0,0.0,0.0,0.0,0.0,0.0,0.0,0.0,0.0,0.0,0.0,0.0,0.0,0.0,0.0,0.0,0.0,0.0,0.0,0.0,0.0,0.0,0.0,0.0,0.0,0.0,0.0,0.0,0.0,0.0,0.0,0.0,0.0,0.0,0.0,0.0,0.0,0.0,0.0,0.0,0.0,0.0,0.0,0.0,0.0,0.0,0.0,0.0,0.0,0.0,0.0,0.0,0.0,0.0,0.0,0.0,0.0,0.0,0.0,0.0,0.0,0.0,0.0,0.0,0.0,0.0,0.0,0.0,0.0,0.0,0.0,0.0,0.0,0.0,0.0,0.0,0.0,0.0,0.0,0.0,0.0,0.0,0.0,0.0,0.0,0.0,0.0,0.0,0.0,0.0,0.0,0.0,0.0,0.0,0.0,0.0,0.0,0.0,0.0,0.0,0.0,0.0,0.0,0.0,0.0,0.0,0.0,0.0,0.0,0.0,0.0,0.0,0.0,0.0,0.0,0.0,0.0,0.0,0.0,0.0,0.0,0.0,0.0,0.0,0.0,0.0,0.0,0.0,0.0,0.0,0.0,0.0,0.0,0.0,0.0,0.0,0.0,0.0,0.0,0.0,0.0,0.0,0.0,0.0,0.0,0.0,0.0,0.0,0.0,0.0,0.0,0.0,0.0,0.0,0.0,0.0,0.0,0.0,0.0,0.0,0.0,0.0,0.0,0.0,0.0,0.0,0.0,0.0,0.0,0.0,0.0,0.0,0.0,0.0,0.0,0.0,0.0,0.0,0.0,0.0,0.0,0.0,0.0,0.0,0.0,0.0,0.0,0.0,0.0,0.0,0.0,0.0,0.0,0.0,0.0,0.0,0.0,0.0,0.0,0.0,0.0,0.0,0.0,0.0,0.0,0.0,0.0,0.0,0.0,0.0,0.0,0.0,0.0,0.0,0.0,0.0,0.0,0.0,0.0,0.0,0.0,0.0,0.0,0.0,0.0,0.0,0.0,0.0,0.0,0.0,0.0,0.0,0.0,0.0,0.0,0.0,0.0,0.0,0.0,0.0,0.0,0.0,0.0,0.0,0.0,0.0,0.0,0.0,0.0,0.0,0.0,0.0,0.0,0.0,0.0,0.0,0.0,0.0,0.0,0.0,0.0,0.0,0.0,0.0,0.0,0.0,0.0,0.0,0.0,0.0,0.0,0.0,0.0,0.0,0.0,0.0,0.0,0.0,0.0,0.0,0.0,0.0,0.0,0.0,0.0,0.0,0.0,0.0,0.0,0.0,0.0,0.0,0.0,0.0,0.0,0.0,0.0,0.0,0.0,0.0,0.0,0.0,0.0,0.0,0.0,0.0,0.0,0.0,0.0,0.0,0.0,0.0,0.0,0.0,0.0,0.0,0.0,0.0,0.0,0.0,0.0,0.0,0.0,0.0,0.0,0.0,0.0,0.0,0.0,0.0,0.0,0.0,0.0,0.0,0.0,0.0,0.0,0.0,0.0,0.0,0.0,0.0,0.0,0.0,0.0,0.0,0.0,0.0,0.0,0.0,0.0,0.0,0.0,0.0,0.0,0.0,0.0,0.0,0.0,0.0,0.0,0.0,0.0,0.0,0.0,0.0,0.0,0.0,0.0,0.0,0.0,0.0,0.0,0.0,0.0,0.0,0.0,0.0,0.0,0.0,0.0,0.0,0.0,0.0,0.0,0.0,0.0,0.0,0.0,0.0,0.0,0.0,0.0,0.0,0.0,0.0,0.0,0.0,0.0,0.0,0.0,0.0,0.0,0.0,0.0,0.0,0.0,0.0,0.0,0.0,0.0,0.0,0.0,0.0,0.0,0.0,0.0,0.0,0.0,0.0,0.0,0.0,0.0,0.0,0.0,0.0,0.0,0.0,0.0,0.0,0.0,0.0,0.0,0.0,0.0,0.0,0.0,0.0,0.0,0.0,0.0,0.0,0.0,0.0,0.0,0.0,0.0,0.0,0.0,0.0,0.0,0.0,0.0,0.0,0.0,0.0,0.0,0.0,0.0,0.0,0.0,0.0,0.0,0.0,0.0,0.0,0.0,0.0,0.0,0.0,0.0,0.0,0.0,0.0,0.0,0.0,0.0,0.0,0.0,0.0,0.0,0.0,0.0,0.0,0.0,0.0,0.0,0.0,0.0,0.0,0.0,0.0,0.0,0.0,0.0,0.0,0.0,0.0,0.0,0.0,0.0,0.0,0.0,0.0,0.0,0.0,0.0,0.0,0.0,0.0,0.0,0.0,0.0,0.0,0.0,0.0,0.0,0.0,0.0,0.0,0.0,0.0,0.0,0.0,0.0,0.0,0.0,0.0,0.0,0.0,0.0,0.0,0.0,0.0,0.0,0.0,0.0,0.0,0.0,0.0,0.0,0.0,0.0,0.0,0.0,0.0,0.0,0.0,0.0,0.0,0.0,0.0,0.0,0.0,0.0,0.0,0.0,0.0,0.0,0.0,0.0,0.0,0.0,0.0,0.0,0.0,0.0,0.0,0.0,0.0,0.0,0.0,0.0,0.0,0.0,0.0,0.0,0.0,0.0,0.0,0.0,0.0,0.0,0.0,0.0,0.0,0.0,0.0,0.0,0.0,0.0,0.0,0.0,0.0,0.0,0.0,0.0,0.0,0.0,0.0,0.0,0.0,0.0,0.0,0.0,0.0,0.0,0.0,0.0,0.0,0.0,0.0,0.0,0.0,0.0,0.0,0.0,0.0,0.0,0.0,0.0,0.0,0.0,0.0,0.0,0.0,0.0,0.0,0.0,0.0,0.0,0.0,0.0,0.0,0.0,0.0,0.0,0.0,0.0,0.0,0.0,0.0,0.0,0.0,0.0,0.0,0.0,0.0,0.0,0.0,0.0,0.0,0.0,0.0,0.0,0.0,0.0,0.0,0.0,0.0,0.0,0.0,0.0,0.0,0.0,0.0,0.0,0.0,0.0,0.0,0.0,0.0,0.0,0.0,0.0,0.0,0.0,0.0,0.0,0.0,0.0,0.0,0.0,0.0,0.0,0.0,0.0,0.0,0.0,0.0,0.0,0.0,0.0,0.0,0.0,0.0,0.0,0.0,0.0,0.0,0.0,0.0,0.0,0.0,0.0,0.0,0.0,0.0,0.0,0.0,0.0,0.0,0.0,0.0,0.0,0.0,0.0,0.0,0.0,0.0,0.0,0.0,0.0,0.0,0.0,0.0,0.0,0.0,0.0,0.0,0.0,0.0,0.0,0.0,0.0,0.0,0.0,0.0,0.0,0.0,0.0,0.0,0.0,0.0,0.0,0.0,0.0,0.0,0.0,0.0,0.0,0.0,0.0,0.0,0.0,0.0,0.0,0.0,0.0,0.0,0.0,0.0,0.0,0.0,0.0,0.0,0.0,0.0,0.0,0.0,0.0,0.0,0.0,0.0,0.0,0.0,0.0,0.0,0.0,0.0,0.0,0.0,0.0,0.0,0.0,0.0,0.0,0.0,0.0,0.0,0.0,0.0,0.0,0.0,0.0,0.0,0.0,0.0,0.0,0.0,0.0,0.0,0.0,0.0,0.0,0.0,0.0,0.0,0.0,0.0,0.0,0.0,0.0,0.0,0.0,0.0,0.0,0.0,0.0,0.0,0.0,0.0,0.0,0.0,0.0,0.0,0.0,0.0,0.0,0.0,0.0,0.0,0.0,0.0,0.0,0.0,0.0,0.0,0.0,0.0,0.0,0.0,0.0,0.0,0.0,0.0,0.0,0.0,0.0,0.0,0.0,0.0,0.0,0.0,0.0,0.0,0.0,0.0,0.0,0.0,0.0,0.0,0.0,0.0,0.0,0.0,0.0,0.0,0.0,0.0,0.0,0.0,0.0,0.0,0.0,0.0,0.0,0.0,0.0,0.0,0.0,0.0,0.0,0.0,0.0,0.0,0.0,0.0,0.0,0.0,0.0,0.0,0.0,0.0,0.0,0.0,0.0,0.0,0.0,0.0,0.0,0.0,0.0,0.0,0.0,0.0,0.0,0.0,0.0,0.0,0.0,0.0,0.0,0.0,0.0,0.0,0.0,0.0,0.0,0.0,0.0,0.0,0.0,0.0,0.0,0.0,0.0,0.0,0.0,0.0,0.0,0.0,0.0,0.0,0.0,0.0,0.0,0.0,0.0,0.0,0.0,0.0,0.0,0.0,0.0,0.0,0.0,0.0,0.0,0.0,0.0,0.0,0.0,0.0,0.0,0.0,0.0,0.0,0.0,0.0,0.0,0.0,0.0,0.0,0.0,0.0,0.0,0.0,0.0,0.0,0.0,0.0,0.0,0.0,0.0,0.0,0.0,0.0,0.0,0.0,0.0,0.0,0.0,0.0,0.0,0.0,0.0,0.0,0.0,0.0,0.0,0.0,0.0,0.0,0.0,0.0,0.0,0.0,0.0,0.0,0.0,0.0,0.0,0.0,0.0,0.0,0.0,0.0,0.0,0.0,0.0,0.0,0.0,0.0,0.0,0.0,0.0,0.0,0.0,0.0,0.0,0.0,0.0,0.0,0.0,0.0,0.0,0.0,0.0,0.0,0.0,0.0,0.0,0.0,0.0,0.0,0.0,0.0,0.0,0.0,0.0,0.0,0.0,0.0,0.0,0.0,0.0,0.0,0.0,0.0,0.0,0.0,0.0,0.0,0.0,0.0,0.0,0.0,0.0,0.0,0.0,0.0,0.0,0.0,0.0,0.0,0.0,0.0,0.0,0.0,0.0,0.0,0.0,0.0,0.0,0.0,0.0,0.0,0.0,0.0,0.0,0.0,0.0,0.0,0.0,0.0,0.0,0.0,0.0,0.0,0.0,0.0,0.0,0.0,0.0,0.0,0.0,0.0,0.0,0.0,0.0,0.0,0.0,0.0,0.0,0.0,0.0,0.0,0.0,0.0,0.0,0.0,0.0,0.0,0.0,0.0,0.0,0.0,0.0,0.0,0.0,0.0,0.0,0.0,0.0,0.0,0.0,0.0,0.0,0.0,0.0,0.0,0.0,0.0,0.0,0.0,0.0,0.0,0.0,0.0,0.0,0.0,0.0,0.0,0.0,0.0,0.0,0.0,0.0,0.0,0.0,0.0,0.0,0.0,0.0,0.0,0.0,0.0,0.0,0.0,0.0,0.0,0.0,0.0,0.0,0.0,0.0,0.0,0.0,0.0,0.0,0.0,0.0,0.0,0.0,0.0,0.0,0.0,0.0,0.0,0.0,0.0,0.0,0.0,0.0,0.0,0.0,0.0,0.0,0.0,0.0,0.0,0.0,0.0,0.0,0.0,0.0,0.0,0.0,0.0,0.0,0.0,0.0,0.0,0.0,0.0,0.0,0.0,0.0,0.0,0.0,0.0,0.0,0.0,0.0,0.0,0.0,0.0,0.0,0.0,0.0,0.0,0.0,0.0,0.0,0.0,0.0,0.0,0.0,0.0,0.0,0.0,0.0,0.0,0.0,0.0,0.0,0.0,0.0,0.0,0.0,0.0,0.0,0.0,0.0,0.0,0.0,0.0,0.0,0.0,0.0,0.0,0.0,0.0,0.0,0.0,0.0,0.0,0.0,0.0,0.0,0.0,0.0,0.0,0.0,0.0,0.0,0.0,0.0,0.0,0.0,0.0,0.0,0.0,0.0,0.0,0.0,0.0,0.0,0.0,0.0,0.0,0.0,0.0,0.0,0.0,0.0,0.0,0.0,0.0,0.0,0.0,0.0,0.0,0.0,0.0,0.0,0.0,0.0,0.0,0.0,0.0,0.0,0.0,0.0,0.0,0.0,0.0,0.0,0.0,0.0,0.0,0.0,0.0,0.0,0.0,0.0,0.0,0.0,0.0,0.0,0.0,0.0,0.0,0.0,0.0,0.0,0.0,0.0,0.0,0.0,0.0,0.0,0.0,0.0,0.0,2.9876,2.948,0.0,0.0,0.0,0.0,0.0,0.0,0.0,0.0,0.0,0.0,0.0,0.0,0.0,0.0,0.0,0.0,0.0,0.0,0.0,0.0,0.0,0.0,0.0,0.0,0.0,0.0,0.0,0.0,0.0,0.0,0.0,0.0,0.0,0.0,0.0,0.0,0.0,0.0,0.0,0.0,0.0,0.0,0.0,0.0,0.0,0.0,0.0,0.0,0.0,0.0,0.0,0.0,0.0,0.0,0.0,0.0,0.0,0.0,0.0,0.0,0.0,0.0,0.0,0.0,0.0,0.0,0.0,0.0,0.0,0.0,0.0,0.0,0.0,0.0,0.0,0.0,0.0,0.0,0.0,0.0,0.0,0.0,0.0,0.0,0.0,0.0,0.0,0.0,0.0,0.0,0.0,0.0,0.0,0.0,0.0,0.0,0.0,0.0,0.0,0.0,0.0,0.0,0.0,0.0,0.0,0.0,0.0,0.0,0.0,0.0,0.0,0.0,0.0,0.0,3.0787,3.0497,0.0,0.0,0.0,0.0,0.0,0.0,0.0,0.0,0.0,0.0,0.0,0.0,0.0,0.0,0.0,0.0,0.0,0.0,0.0,0.0,0.0,0.0,0.0,0.0,0.0,0.0,2.6264,2.6625,2.6725,2.7273,2.7572,2.7572,2.7961,2.8545,2.937,0.0,0.0,0.0,0.0,0.0,0.0,0.0,0.0,0.0,0.0,0.0,0.0,0.0,0.0,0.0,0.0,0.0,0.0,0.0,0.0,0.0,0.0,0.0,0.0,0.0,0.0,0.0,0.0,0.0,0.0,0.0,0.0,0.0,0.0,0.0,0.0,0.0,0.0,0.0,0.0,0.0,0.0,0.0,0.0,0.0,0.0,0.0,0.0,0.0,0.0,0.0,0.0,0.0,0.0,0.0,0.0,0.0,0.0,0.0,0.0,0.0,0.0,0.0,0.0,0.0,0.0,0.0,0.0,0.0,0.0,0.0,0.0,0.0,3.2084,3.2084,3.2084,3.2084,3.1901,3.1609,3.1932,3.1747,3.1207,3.1336,0.0,0.0,0.0,0.0,0.0,0.0,0.0,0.0,0.0,0.0,0.0,0.0,0.0,0.0,0.0,0.0,0.0,0.0,0.0,0.0,0.0,2.5468,2.5681,2.6243,2.6936,2.7556,2.8022,2.8732,2.9112,2.9112,2.8682,2.8976,3.0124,2.9211,0.0,0.0,0.0,0.0,3.12,3.12,3.1099,3.0913,3.0913,0.0,0.0,0.0,0.0,0.0,0.0,0.0,0.0,0.0,0.0,0.0,0.0,0.0,0.0,0.0,0.0,0.0,0.0,0.0,0.0,0.0,0.0,0.0,0.0,0.0,0.0,0.0,0.0,0.0,0.0,0.0,0.0,0.0,0.0,0.0,0.0,0.0,0.0,0.0,0.0,0.0,0.0,0.0,3.0913,3.0913,0.0,0.0,0.0,0.0,0.0,0.0,0.0,0.0,0.0,0.0,0.0,0.0,0.0,3.2107,3.2005,3.2747,3.315,3.3195,3.3195,3.3195,3.3195,3.3195,3.3164,3.3119,3.3164,0.0,3.1251,3.1894,0.0,0.0,0.0,0.0,0.0,0.0,0.0,0.0,0.0,0.0,0.0,0.0,0.0,0.0,0.0,0.0,0.0,0.0,0.0,0.0,0.0,2.6153,2.6411,2.7009,2.7358,2.7658,2.7893,2.8206,2.8388,2.8388,2.8463,2.8744,2.9271,2.944,0.0,0.0,3.1035,3.1025,3.0699,3.1035,3.12,3.12,3.12,3.12,3.12,3.12,0.0,0.0,0.0,0.0,0.0,0.0,0.0,0.0,0.0,0.0,0.0,0.0,0.0,0.0,0.0,0.0,0.0,0.0,0.0,0.0,0.0,0.0,0.0,0.0,0.0,0.0,0.0,0.0,0.0,0.0,0.0,0.0,0.0,0.0,0.0,0.0,0.0,0.0,0.0,3.1004,3.12,3.12,3.12,3.1369,0.0,0.0,0.0,0.0,0.0,0.0,0.0,0.0,0.0,3.2442,3.2747,3.3129,3.3535,3.3857,3.4235,3.4647,3.4647,3.4647,3.4647,3.4647,3.4647,3.4647,3.4647,3.4021,3.3044,3.296,3.2926,3.296,0.0,0.0,0.0,0.0,3.3396,3.3396,0.0,0.0,0.0,0.0,0.0,0.0,0.0,0.0,0.0,0.0,0.0,0.0,2.6794,2.6866,2.7048,2.7555,2.76,2.76,2.76,2.76,2.76,2.76,2.803,2.8331,2.8499,2.9529,0.0,3.0081,3.0518,3.068,3.0562,3.0852,3.0993,3.1003,3.1163,3.122,3.12,3.12,3.12,0.0,0.0,0.0,0.0,0.0,0.0,0.0,0.0,0.0,0.0,0.0,0.0,0.0,0.0,0.0,0.0,0.0,0.0,0.0,0.0,0.0,0.0,0.0,0.0,0.0,0.0,0.0,0.0,0.0,0.0,0.0,0.0,0.0,0.0,0.0,0.0,0.0,0.0,3.1765,3.1765,3.1765,3.1765,3.1979,0.0,0.0,0.0,0.0,0.0,0.0,3.3677,3.3677,3.3768,3.3954,3.4167,3.4523,3.5075,3.5278,3.5656,3.6186,3.6186,3.6186,3.6186,3.6186,3.6186,3.6186,3.6186,3.5881,3.5301,3.4343,3.3852,3.37,3.3886,3.3954,3.3954,3.3954,3.3954,3.3954,0.0,0.0,0.0,0.0,0.0,0.0,0.0,0.0,0.0,0.0,0.0,2.751,2.754,2.754,2.7555,2.76,2.76,2.76,2.76,2.76,2.76,2.76,2.7638,2.7907,2.8487,2.9111,0.0,2.9451,2.9473,3.009,3.1238,3.0686,3.0433,3.0468,3.105,3.1266,3.12,3.12,3.12,3.12,0.0,0.0,0.0,0.0,0.0,0.0,0.0,0.0,0.0,0.0,0.0,0.0,0.0,0.0,0.0,0.0,0.0,0.0,0.0,0.0,0.0,0.0,0.0,0.0,0.0,0.0,0.0,0.0,0.0,0.0,0.0,0.0,0.0,0.0,0.0,0.0,0.0,0.0,0.0,3.3288,3.3288,0.0,0.0,0.0,0.0,3.3396,3.3396,3.3711,3.4415,3.4449,3.4776,3.5464,3.6231,3.6643,3.6677,3.7381,3.7741,3.7775,3.7775,3.7775,3.7775,3.7775,3.7775,3.7775,3.7775,3.7758,3.7606,3.6118,3.507,3.4516,3.5222,3.5481,3.5481,3.5481,3.5481,3.5481,0.0,0.0,0.0,0.0,0.0,0.0,0.0,0.0,0.0,2.76,2.76,2.76,2.76,2.76,2.76,2.76,2.76,2.76,2.76,2.76,2.76,2.76,2.76,2.787,2.8487,2.8713,2.9034,2.9461,2.9847,3.0306,3.0798,3.0951,3.1035,3.1047,3.1276,3.1353,3.1322,3.124,3.12,3.12,3.12,3.12,0.0,0.0,0.0,0.0,0.0,0.0,0.0,0.0,0.0,0.0,0.0,0.0,0.0,0.0,0.0,0.0,0.0,0.0,0.0,0.0,0.0,0.0,0.0,0.0,0.0,0.0,0.0,0.0,0.0,0.0,0.0,0.0,0.0,0.0,0.0,0.0,0.0,3.3396,3.3396,0.0,3.4066,3.4529,3.5019,3.5549,3.6028,3.6405,3.6671,3.6688,3.7026,3.777,3.807,3.8679,3.9614,3.9901,4.0257,4.073,4.073,4.073,4.073,4.073,4.073,4.073,4.073,4.046,3.994,3.8925,3.7775,3.6705,3.698,3.7082,3.7082,3.7082,3.7082,3.7082,0.0,0.0,0.0,0.0,0.0,0.0,0.0,0.0,0.0,2.76,2.76,2.76,2.76,2.76,2.76,2.76,2.76,2.76,2.76,2.76,2.76,2.76,2.7824,2.812,2.8529,2.8758,2.9193,2.9837,3.0033,3.0351,3.0815,3.0992,3.1094,3.1107,3.1307,3.1296,3.1098,3.1215,3.1275,3.1275,3.1275,3.1402,3.1595,0.0,0.0,0.0,0.0,0.0,0.0,0.0,0.0,0.0,0.0,0.0,0.0,0.0,0.0,0.0,0.0,0.0,0.0,0.0,0.0,0.0,0.0,0.0,0.0,0.0,0.0,0.0,0.0,0.0,0.0,0.0,0.0,0.0,0.0,3.414,3.4241,3.4506,3.4539,3.4844,3.5571,3.6084,3.6591,3.7139,3.7855,3.8379,3.8633,3.8886,3.936,4.01,4.0117,4.0578,4.1559,4.1576,4.1813,4.23,4.23,4.23,4.23,4.23,4.23,4.23,4.23,4.2016,4.1525,4.1039,4.0273,3.9292,3.8294,3.7893,3.7893,3.7893,3.7893,3.7893,0.0,0.0,0.0,0.0,0.0,0.0,0.0,2.76,2.76,2.76,2.76,2.76,2.76,2.76,2.76,2.76,2.76,2.76,2.763,2.763,2.7645,2.766,2.8276,2.8622,2.8622,2.9264,2.99,3.051,2.9915,3.0233,3.1387,3.0812,3.0537,3.0565,3.115,3.1074,3.0564,3.1167,3.1409,3.1409,3.1397,3.1792,3.2365,0.0,0.0,0.0,0.0,0.0,0.0,0.0,0.0,0.0,0.0,0.0,0.0,0.0,0.0,0.0,0.0,0.0,0.0,0.0,0.0,0.0,0.0,0.0,0.0,0.0,0.0,0.0,0.0,0.0,0.0,0.0,0.0,0.0,3.56,3.5616,3.5932,3.6711,3.6829,3.7122,3.7872,3.7973,3.799,3.7995,3.8684,3.9406,4.013,4.0849,4.1576,4.2317,4.2333,4.235,4.2367,4.2367,4.2367,4.2367,4.2367,4.2367,4.2367,4.2367,4.2367,4.2367,4.2367,4.2367,4.2367,4.2337,4.2333,4.2063,3.9157,3.8029,3.8029,3.8029,3.8012,3.7995,0.0,0.0,0.0,0.0,0.0,0.0,0.0,2.76,2.76,2.76,2.76,2.76,2.76,2.76,2.76,2.76,2.76,2.7809,2.8291,2.8336,2.8545,2.9024,2.9219,2.9324,2.9324,2.9517,2.9898,3.0498,3.0334,3.0666,3.1467,3.1297,3.1227,3.1226,3.1396,3.1375,3.1239,3.1389,3.1472,3.1463,3.1423,3.1514,3.167,0.0,0.0,0.0,0.0,0.0,0.0,0.0,0.0,0.0,0.0,0.0,0.0,0.0,0.0,0.0,0.0,0.0,0.0,0.0,0.0,0.0,0.0,0.0,0.0,0.0,0.0,0.0,0.0,0.0,0.0,0.0,3.6783,3.6208,3.5684,3.6096,3.6547,3.6767,3.7274,3.7889,3.8616,3.9186,3.9728,4.0257,4.0984,4.1487,4.169,4.1894,4.2337,4.3068,4.3102,4.3386,4.3958,4.3958,4.3958,4.3958,4.3958,4.3958,4.3958,4.3958,4.3958,4.3958,4.3958,4.3958,4.3924,4.3335,4.3102,4.2966,4.1627,4.1085,4.1085,4.1085,4.0747,4.0223,0.0,0.0,0.0,0.0,0.0,0.0,0.0,2.76,2.76,2.76,2.76,2.76,2.76,2.7854,2.8021,2.8021,2.8289,2.859,2.8994,2.9011,2.9189,2.9578,2.9847,2.9982,2.9982,3.0253,3.0717,3.1345,3.1345,3.1675,3.2347,3.2347,3.2347,3.2347,3.2347,3.2168,3.1914,3.1914,3.1765,3.1508,3.1451,3.1625,3.1934,3.2205,3.2566,3.2945,3.3229,3.3564,3.3913,3.3913,0.0,0.0,0.0,0.0,0.0,0.0,0.0,0.0,0.0,0.0,0.0,0.0,0.0,0.0,0.0,0.0,0.0,0.0,0.0,0.0,0.0,0.0,0.0,0.0,3.722,3.6675,3.6583,3.6975,3.7494,3.8115,3.8565,3.9229,4.0286,4.0777,4.12,4.1627,4.2337,4.276,4.276,4.3078,4.3467,4.3893,4.391,4.4144,4.4615,4.4615,4.4615,4.4615,4.4615,4.4615,4.4615,4.4615,4.4615,4.4615,4.4615,4.4615,4.455,4.4096,4.391,4.3809,0.0,0.0,0.0,0.0,4.2029,4.1593,0.0,0.0,0.0,0.0,0.0,0.0,0.0,2.76,2.7642,2.7705,2.7705,2.7735,2.7824,2.8366,2.8712,2.8712,2.9264,2.9623,2.9698,2.9773,2.9817,2.9817,3.0328,3.0657,3.0731,3.1301,3.1929,3.2602,3.2602,3.2916,3.3499,3.3499,3.3499,3.3499,3.3499,3.317,3.2602,3.2602,3.2228,3.1615,3.1615,3.1956,3.2532,3.313,3.3401,3.3585,3.4248,3.4528,3.4612,3.4688,0.0,0.0,0.0,0.0,0.0,0.0,0.0,0.0,0.0,0.0,0.0,0.0,0.0,0.0,0.0,0.0,0.0,0.0,0.0,0.0,0.0,0.0,0.0,0.0,3.7465,3.7213,3.8008,3.8217,3.8734,3.996,4.0257,4.0886,4.23,4.2422,4.2455,4.2553,4.3166,4.3541,4.3541,4.4198,0.0,0.0,0.0,4.4615,4.4615,4.4615,4.4615,4.4615,4.4615,4.4615,4.4615,4.4615,4.4615,4.4615,4.4615,4.4615,4.4615,4.4615,4.4615,4.4462,4.3095,4.257,4.2553,4.2455,4.2422,4.2418,0.0,0.0,0.0,0.0,0.0,0.0,0.0,2.76,2.7794,2.8336,2.8412,2.862,2.9144,2.9324,2.9413,2.9413,2.9518,2.9803,0.0,0.0,3.1122,3.1122,3.1241,3.1555,3.2093,3.2243,3.2632,3.3305,3.3305,3.3365,3.3499,3.3499,3.3499,3.3499,3.3499,3.3425,3.3305,3.3305,3.2916,3.2318,3.2318,3.2076,3.1725,3.1852,3.2285,3.2882,3.3543,3.4149,3.4671,3.5219,3.5492,3.56,3.56,0.0,0.0,0.0,0.0,0.0,0.0,0.0,0.0,0.0,0.0,0.0,0.0,0.0,0.0,0.0,0.0,0.0,0.0,0.0,0.0,3.9531,3.9007,3.8724,3.9426,4.0122,4.0443,4.0146,4.1149,4.2219,4.3102,4.3186,4.347,4.411,4.4279,4.4364,4.4364,4.4516,4.4615,4.4615,4.4615,4.4615,4.4615,4.4615,4.4615,4.4615,4.4615,0.0,4.4615,4.4615,4.4615,4.4615,4.4615,4.4615,4.4615,4.4615,4.4615,4.4581,4.4276,4.4161,4.4076,4.3436,4.3186,4.3102,0.0,0.0,0.0,0.0,0.0,0.0,0.0,2.8096,2.8336,2.9011,2.9099,2.9234,2.9563,2.9877,3.0057,3.0057,3.0357,3.0673,0.0,3.1316,3.1511,3.1511,3.1824,3.2168,3.2482,3.2841,3.332,3.3994,3.3994,3.4173,3.4502,3.4502,3.4502,3.4502,3.4502,3.4307,3.3994,3.3994,3.3425,3.2497,3.2497,3.2303,3.2003,3.2045,3.2272,3.2695,3.3365,3.4037,3.4714,3.5409,3.5898,3.6265,3.6625,3.6761,3.6828,0.0,0.0,0.0,0.0,0.0,0.0,0.0,0.0,0.0,0.0,0.0,0.0,0.0,0.0,3.9425,3.9036,0.0,3.9029,3.942,3.9511,3.9475,3.935,4.1048,4.2004,4.1237,4.2159,4.3149,4.3927,4.3995,4.4178,4.4581,4.4615,4.4615,4.4615,4.4615,4.4615,4.4615,4.4615,4.4615,4.4615,4.4615,4.4615,4.4615,4.4615,4.4615,4.4615,4.4615,4.4615,4.4615,4.4615,4.4615,4.4615,4.4615,4.4615,4.4615,4.4615,4.4615,4.455,4.4161,4.3995,4.3944,0.0,0.0,0.0,0.0,0.0,0.0,0.0,0.0,2.9026,2.9698,2.9773,2.9817,2.9939,3.0402,3.0687,3.0687,3.1182,0.0,0.0,3.1511,3.1511,3.1511,3.2138,3.2557,3.2691,3.335,3.4024,3.4682,3.4682,3.4982,3.5504,3.5504,3.5504,3.5504,3.5504,3.519,3.4682,3.4682,3.4009,3.2901,3.2901,3.2811,3.2706,3.2757,3.2767,3.2865,3.3524,3.4227,3.4915,3.5642,3.6386,3.7122,3.7719,3.7893,3.7927,3.8075,3.8113,0.0,0.0,0.0,0.0,0.0,0.0,0.0,0.0,4.0096,4.0058,3.9901,3.9978,4.0007,3.9705,3.9236,3.8903,3.8884,3.9564,3.9886,3.9289,4.149,4.2992,4.2474,4.3145,4.3893,4.4533,4.4615,4.4615,4.4615,4.4615,4.4615,4.4615,4.4615,4.4615,4.4615,4.4615,4.4615,4.4615,4.4615,4.4615,4.4615,4.4615,4.4615,4.4615,4.4615,4.4615,4.4615,4.4615,4.4615,4.4615,4.4615,4.4615,4.4615,4.4615,4.4615,4.4615,4.4615,4.4615,4.4615,0.0,0.0,0.0,0.0,0.0,0.0,0.0,0.0,0.0,3.0313,3.0402,3.0627,3.1212,3.1346,3.1391,3.1391,0.0,0.0,3.1511,3.1511,3.1511,3.1511,3.2138,3.2781,3.338,3.4054,3.4712,3.5385,3.5385,3.5429,3.5504,3.5504,3.5504,3.5504,3.5504,3.5459,3.5385,3.5385,3.4951,3.4278,3.4278,3.3919,3.3395,3.3411,3.3397,3.3502,3.4165,3.4918,3.5672,3.6358,3.7128,3.7787,3.786,3.7893,3.8041,3.8684,0.0,3.9017,3.9677,3.9846,3.9863,3.996,3.9977,3.9994,0.0,4.0096,3.9901,3.9179,3.961,3.9679,3.8304,3.8511,3.8889,3.8829,3.954,4.0232,4.0604,4.1628,4.2538,4.3108,4.3946,4.4499,4.4584,4.4615,4.4615,4.4615,4.4615,4.4615,4.4615,4.4615,4.4615,4.4615,4.4615,4.4615,4.4615,4.4615,4.4615,4.4615,4.4615,4.4615,4.4615,4.4615,4.4615,4.4615,4.4615,4.4615,4.4615,4.4615,4.4615,4.4615,4.4615,4.4615,4.4615,4.4615,4.4615,4.4615,0.0,0.0,0.0,0.0,0.0,0.0,0.0,0.0,0.0,0.0,3.1091,3.1182,3.1466,3.1511,3.1511,3.1511,0.0,0.0,3.1511,3.1511,3.1511,3.1511,3.2138,3.2811,3.3484,3.4158,3.4832,3.5504,3.5504,3.5504,3.5504,3.5504,3.5504,3.5504,3.5504,3.5504,3.5504,3.5504,3.51,3.4503,3.4503,3.4323,3.4084,3.4084,3.4323,3.4641,3.4541,3.4999,0.0,0.0,3.7213,3.7923,3.8352,3.8799,3.9237,3.9542,3.9643,3.9711,4.0028,4.0096,4.0096,4.0096,4.0096,4.0096,4.0096,4.0422,4.0636,4.0303,4.0856,4.102,3.9866,3.9907,3.9805,3.8841,3.9729,4.0285,3.9556,4.1404,4.2581,4.1869,4.3454,4.4615,4.4615,4.4615,4.4615,4.4615,4.4615,4.4615,4.4615,4.4615,4.4615,4.4615,4.4615,4.4615,4.4615,4.4615,4.4615,4.4615,4.4615,4.4615,4.4615,4.4615,4.4615,4.4615,4.4615,4.4615,4.4615,4.4615,4.4615,4.4615,4.4615,4.4615,4.4615,4.4615,4.4615,4.4615,0.0,0.0,0.0,0.0,0.0,0.0,0.0,0.0,0.0,0.0,0.0,3.1511,3.1511,3.1511,3.157,0.0,0.0,0.0,0.0,3.2049,3.2049,3.2049,3.2691,3.3275,3.3769,3.4428,3.5012,3.5504,3.5504,3.5504,3.5504,3.5504,3.5504,3.5504,3.5504,3.5504,3.5504,3.5504,3.522,3.4772,3.4772,3.4772,3.4772,3.4772,3.507,3.5434,3.4942,3.5246,0.0,0.0,3.7163,3.7924,3.8662,3.9302,3.9808,4.0033,4.0096,4.0096,4.0096,4.0248,4.0405,4.0405,4.0557,4.0709,4.0709,4.1132,4.1508,4.1508,4.1931,4.197,4.0879,4.0691,4.0221,3.8777,3.9685,4.0222,3.918,4.1081,4.2284,4.1511,4.266,4.3812,4.4528,4.4615,4.4615,4.4615,4.4615,4.4615,4.4615,4.4615,4.4615,4.4615,4.4615,4.4615,4.4615,4.4615,4.4615,4.4615,4.4615,4.4615,4.4615,4.4615,4.4615,4.4615,4.4615,4.4615,4.4615,4.4615,4.4615,4.4615,4.4615,4.4615,4.4615,4.4615,4.4615,4.4615,0.0,0.0,0.0,0.0,0.0,0.0,0.0,0.0,0.0,0.0,0.0,0.0,0.0,0.0,3.1765,0.0,0.0,0.0,0.0,3.344,3.344,3.344,3.4084,3.4443,3.4458,3.5131,3.5489,3.5504,3.5504,3.5504,3.5504,3.5504,3.5504,3.5504,3.5504,3.5504,3.5504,3.5504,3.5489,3.5474,3.5474,3.5474,3.5474,3.5474,3.5489,3.5504,3.5476,0.0,0.0,3.6599,3.7143,3.7917,3.8676,3.8908,0.0,3.9859,4.0096,4.0096,4.0096,4.0625,4.117,4.117,4.1694,4.2232,4.2232,4.2249,4.2266,4.2266,4.2283,4.1834,4.0233,3.9931,3.9598,3.8575,3.9146,3.995,4.0549,4.0726,4.1395,4.3032,4.1804,4.182,4.4338,4.4615,4.4615,4.4615,4.4615,4.4615,4.4615,4.4615,4.4615,4.4615,4.4615,4.4615,4.4615,4.4615,4.4615,4.4615,4.4615,4.4615,4.4615,4.4615,4.4615,4.4615,4.4615,4.4615,4.4615,4.4615,4.4615,4.4615,4.4615,4.4615,4.4615,4.4615,4.4615,4.4615,0.0,0.0,0.0,0.0,0.0,0.0,0.0,0.0,0.0,0.0,0.0,0.0,0.0,0.0,0.0,0.0,0.0,0.0,0.0,3.3499,3.3499,3.3499,3.3724,3.4039,3.4503,3.4712,3.504,3.5504,3.5504,3.5504,3.5504,3.5504,3.5504,3.5504,3.5504,3.5504,3.5504,3.5504,3.5504,3.5504,3.5504,3.5504,3.5504,3.5504,3.5504,3.5504,0.0,0.0,0.0,3.5863,3.6723,3.7835,3.8092,3.8511,3.9047,3.986,4.0383,4.082,4.1394,4.1741,4.1931,4.1931,4.213,4.23,4.23,4.2675,4.3017,4.3017,4.3453,4.331,4.1606,4.1277,4.0797,3.9307,3.9299,3.9571,3.9799,4.0343,4.0707,4.0721,4.1229,4.1675,4.1981,4.3061,4.3977,4.4556,4.4615,4.4615,4.4615,4.4615,4.4615,4.4615,4.4615,4.4615,4.4615,4.4615,4.4615,4.4615,4.4615,4.4615,4.4615,4.4615,4.4615,4.4615,4.4615,4.4615,4.4615,4.4615,4.4615,4.4615,4.4615,4.4615,4.4615,4.4615,4.4615,4.4615,0.0,0.0,0.0,0.0,0.0,0.0,0.0,0.0,0.0,0.0,0.0,0.0,0.0,0.0,0.0,0.0,0.0,3.3964,0.0,0.0,3.4218,3.4218,3.4218,3.4412,3.4847,3.4862,3.5071,3.5504,3.5504,3.5504,3.5504,3.5504,3.5504,3.5504,3.5504,3.5504,3.5504,3.5504,3.5639,3.5833,3.5609,3.5639,3.5833,3.5594,3.5654,0.0,0.0,0.0,0.0,3.5923,3.6515,3.7418,3.7927,3.8805,3.9809,4.0652,4.1158,4.158,4.2149,4.2489,4.2608,4.2332,4.2688,4.3044,4.2721,4.3261,4.3826,4.3826,4.3987,4.3783,4.2676,4.1965,4.1163,4.006,3.9864,3.9755,3.9427,4.015,4.05,3.992,4.086,4.156,4.1609,4.263,4.3532,4.4093,4.4412,4.4615,4.4615,4.4855,4.499,4.499,4.5244,4.5379,4.5379,4.5379,4.5379,4.5379,4.5379,4.5244,4.499,4.499,4.4855,4.4615,4.4615,4.4615,4.4615,4.4615,4.4615,4.4615,4.4615,4.4615,4.4615,4.4615,4.4615,4.4615,0.0,0.0,0.0,0.0,0.0,0.0,0.0,0.0,0.0,0.0,0.0,0.0,0.0,0.0,0.0,0.0,0.0,0.0,0.0,0.0,0.0,3.5504,3.5504,3.5504,3.5504,3.5504,3.5504,3.5504,3.5504,3.5504,3.5504,3.5504,3.5504,3.5504,3.5504,3.5504,3.5504,3.5504,3.5863,3.6404,3.5789,3.5923,3.6434,3.5833,0.0,0.0,0.0,0.0,0.0,3.6748,3.6588,3.6911,3.8296,3.9795,4.122,4.2065,4.2331,4.2351,4.2351,4.2902,4.3261,4.2458,4.3442,4.4384,4.3562,4.4006,4.4615,4.4615,4.3931,4.3336,4.3246,4.1885,4.0741,4.0639,4.0622,4.0328,3.9517,4.0115,4.0622,4.0622,4.0673,4.1362,4.3017,4.3246,4.3323,4.3355,4.414,4.4632,4.4649,4.5314,4.572,4.5771,4.643,4.68,4.68,4.68,4.68,4.68,4.68,4.643,4.5771,4.5771,4.5365,4.4702,4.4702,4.4702,4.4702,4.4702,4.4702,4.4702,4.4702,4.4702,4.4702,4.4702,4.4702,4.4716,0.0,0.0,0.0,0.0,0.0,0.0,0.0,0.0,0.0,0.0,0.0,0.0,0.0,0.0,0.0,0.0,0.0,0.0,0.0,0.0,0.0,0.0,0.0,0.0,0.0,0.0,0.0,0.0,3.5504,3.5504,3.5504,3.5504,3.5504,3.5504,3.5504,3.5504,3.5504,3.5504,3.5609,3.5789,0.0,3.6359,3.6538,0.0,0.0,0.0,0.0,0.0,0.0,3.7447,3.8006,3.9202,4.0215,4.1158,4.1951,4.2211,4.2653,4.3057,4.3057,4.3657,4.4097,4.3236,4.3812,4.4542,4.4327,4.444,4.4615,4.4615,4.4412,4.3873,4.2567,4.1965,4.1247,3.9953,3.9737,3.9648,3.9427,3.9592,3.9737,3.9737,4.0309,4.0861,4.1329,4.2536,4.352,4.4078,4.4425,4.4838,4.5382,4.5602,4.5957,4.6498,4.6701,4.68,4.68,4.68,4.68,4.68,4.68,4.6701,4.6515,4.6515,4.6428,4.6242,4.6242,4.6242,4.6242,4.6242,4.6242,4.6242,4.6242,4.6242,4.6242,4.6242,4.6242,4.6157,0.0,0.0,0.0,0.0,0.0,0.0,0.0,0.0,0.0,0.0,0.0,0.0,0.0,0.0,0.0,0.0,0.0,0.0,0.0,0.0,0.0,0.0,0.0,0.0,0.0,0.0,0.0,0.0,0.0,0.0,0.0,3.5639,3.5504,3.5519,3.5804,3.5938,3.5953,3.6222,0.0,0.0,0.0,0.0,0.0,0.0,0.0,0.0,0.0,0.0,0.0,3.9905,4.0356,4.0969,4.185,4.2382,4.2771,4.3196,4.3568,4.3858,4.3858,4.4224,4.4384,4.3517,4.3962,4.4499,4.4124,4.4327,4.4615,4.4615,4.3989,4.3395,4.3183,4.1885,4.0791,4.0585,4.022,3.9847,3.9445,3.9737,3.9829,3.9445,4.0168,4.0844,4.123,4.2796,4.4116,4.4908,4.505,4.5399,4.6143,4.6483,4.687,4.7276,4.7597,4.7767,4.7767,4.7767,4.7767,4.7767,4.7767,4.7597,4.7293,4.7293,4.7107,4.68,4.68,4.68,4.68,4.68,4.68,4.68,4.68,4.68,4.68,4.68,4.68,4.6735,0.0,0.0,0.0,0.0,0.0,0.0,0.0,0.0,0.0,0.0,0.0,0.0,0.0,0.0,0.0,0.0,0.0,0.0,0.0,0.0,0.0,0.0,0.0,0.0,0.0,0.0,0.0,0.0,0.0,0.0,0.0,0.0,0.0,0.0,0.0,0.0,0.0,0.0,0.0,0.0,0.0,0.0,0.0,0.0,0.0,0.0,0.0,0.0,0.0,0.0,4.2893,4.2316,4.3199,4.3472,4.3621,4.4384,4.4615,4.457,4.4471,4.4514,4.4384,4.3517,4.3962,4.4398,4.3636,4.4064,4.4556,4.4457,4.3213,4.2599,4.3989,4.1788,4.0185,4.1609,4.1197,4.0432,3.9684,4.0115,4.0343,3.9809,4.0397,4.1245,4.2222,4.3689,4.4965,4.5916,4.5976,4.6278,4.6904,4.7549,4.7938,4.8039,4.8665,4.9001,4.9001,4.9001,4.9001,4.9001,4.9001,4.8648,4.8056,4.8056,4.7701,4.7105,4.7105,4.7105,4.7105,4.7105,4.7105,4.7105,4.7105,4.7105,4.7105,4.7105,4.7105,4.7088,0.0,0.0,0.0,0.0,0.0,0.0,0.0,0.0,0.0,0.0,0.0,0.0,0.0,0.0,0.0,0.0,0.0,0.0,0.0,0.0,0.0,0.0,0.0,0.0,0.0,0.0,0.0,3.724,3.7135,0.0,0.0,0.0,0.0,0.0,0.0,0.0,0.0,0.0,0.0,0.0,0.0,0.0,0.0,0.0,0.0,0.0,0.0,0.0,0.0,0.0,4.38,4.3214,4.4093,4.4369,4.4398,4.4556,4.4615,4.444,4.371,4.4049,4.4384,4.3517,4.3962,4.4556,4.4412,4.4499,4.4398,4.3665,4.3275,4.2956,4.2536,4.1965,4.1412,4.0996,4.0794,4.0639,4.05,3.9973,4.0113,4.1411,4.169,4.235,4.3834,4.489,4.6047,4.7415,4.7515,4.7566,4.7701,4.7836,4.8174,4.8783,4.8934,4.9001,4.9001,4.9001,4.9001,4.9001,4.9001,4.8934,4.88,4.88,4.8748,4.8612,4.8612,4.8612,4.8612,4.8612,4.8612,4.8612,4.8612,4.8612,4.8612,4.8612,4.8612,4.8528,0.0,0.0,0.0,0.0,0.0,0.0,0.0,0.0,0.0,0.0,0.0,0.0,0.0,0.0,0.0,0.0,0.0,0.0,0.0,0.0,0.0,0.0,0.0,0.0,0.0,3.6823,3.7285,3.7913,0.0,3.7584,3.7913,3.7569,3.7387,3.7419,3.7764,0.0,0.0,0.0,0.0,0.0,0.0,0.0,0.0,0.0,0.0,0.0,0.0,0.0,0.0,0.0,4.4327,4.4049,4.4471,4.4615,4.4615,4.4615,4.4615,4.4514,4.4078,4.4267,4.4499,4.4078,4.4281,4.4615,4.4615,4.4615,4.4355,4.3487,4.3306,4.3032,4.2157,4.1997,4.1723,4.0844,4.0707,4.0537,4.0095,4.0045,4.0395,4.123,4.1643,4.2324,4.3557,4.4735,4.592,4.7092,4.798,4.8462,4.8462,4.8462,4.8631,4.8984,4.9001,4.9001,4.9001,4.9001,4.9001,4.9001,4.9001,4.9001,4.9001,4.9001,4.9001,4.9001,4.9001,4.9001,4.9001,4.9001,4.9001,4.9001,4.9001,4.9001,4.9001,4.9001,4.9001,4.8951,0.0,0.0,0.0,0.0,0.0,0.0,0.0,0.0,4.0096,4.0096,4.0096,4.0096,4.0096,3.9545,0.0,0.0,0.0,0.0,0.0,0.0,0.0,0.0,0.0,0.0,0.0,0.0,0.0,3.8601,3.8093,0.0,0.0,0.0,0.0,0.0,3.8377,3.8601,3.8646,0.0,0.0,0.0,0.0,3.9406,0.0,0.0,0.0,0.0,0.0,0.0,0.0,0.0,4.4615,4.4615,4.4615,4.4615,4.4615,4.4615,4.4615,4.4615,4.4615,4.4615,4.4615,4.4615,4.4615,4.4615,4.4615,4.4615,4.4296,4.3229,4.3169,4.2986,4.1917,4.2029,4.1933,4.0861,4.1013,4.0894,3.9829,4.043,4.0979,4.0979,4.157,4.238,4.3426,4.47,4.591,4.6959,4.8258,4.9001,4.9001,4.9001,4.9001,4.9001,4.9001,4.9001,4.9001,4.9001,4.9001,4.9001,4.9001,4.9001,4.9001,4.9001,4.9001,4.9001,4.9001,4.9001,4.9001,4.9001,4.9001,4.9001,4.9001,4.9001,4.9001,4.9001,4.9001,4.9001,0.0,0.0,0.0,0.0,0.0,0.0,0.0,0.0,4.0096,4.0096,4.0096,4.0096,4.0096,4.0033,0.0,0.0,0.0,0.0,0.0,0.0,0.0,0.0,0.0,0.0,0.0,0.0,0.0,3.9316,3.9257,0.0,0.0,0.0,0.0,0.0,0.0,3.9316,3.9316,3.9376,0.0,0.0,0.0,0.0,0.0,0.0,0.0,0.0,0.0,4.3185,4.3336,4.4267,4.4615,4.4615,4.4615,4.4615,4.4615,4.4615,4.4615,4.4615,4.4615,4.4615,4.4615,4.4615,4.4615,4.4615,4.4615,4.4615,4.4121,4.2457,4.2754,4.2801,4.113,4.2109,4.263,0.0,0.0,4.2473,4.0811,4.1329,4.1885,4.1885,4.2458,4.3524,4.5107,4.5928,4.7041,4.8647,4.8904,4.9001,4.9001,4.9001,4.9001,4.9001,4.9001,4.9001,4.9001,4.9001,4.9001,4.9001,4.9001,4.9001,4.9001,4.9001,4.9001,4.9001,4.9001,4.9001,4.9001,4.9001,4.9001,4.9001,4.9001,4.9001,4.9001,4.9001,4.9001,4.9001,0.0,0.0,0.0,0.0,0.0,0.0,0.0,4.0096,4.0096,4.0096,4.0096,4.0096,4.0096,4.0096,0.0,0.0,0.0,0.0,0.0,0.0,0.0,0.0,0.0,0.0,0.0,0.0,3.9122,3.9406,3.9406,0.0,0.0,0.0,0.0,0.0,0.0,3.9406,3.9406,3.9406,0.0,0.0,0.0,0.0,0.0,0.0,0.0,0.0,0.0,0.0,4.3426,4.4312,4.4615,4.4615,4.4615,4.4615,4.4615,4.4615,4.4615,4.4615,4.4615,4.4615,4.4615,4.4615,4.4615,4.4615,4.4615,4.4615,4.4253,4.3031,4.3471,4.3545,4.1804,4.2908,4.3335,0.0,0.0,0.0,4.0946,4.1901,4.2583,4.2062,4.3444,4.4285,4.3858,4.5829,4.7667,4.8906,4.9001,4.9001,4.9001,4.9001,4.9001,4.9001,4.9001,4.9001,4.9001,4.9001,4.9001,4.9001,4.9001,4.9001,4.9001,4.9001,4.9001,4.9001,4.9001,4.9001,4.9001,4.9001,4.9001,4.8955,4.8386,4.8161,4.808,4.7523,4.7671,4.8161,0.0,0.0,0.0,0.0,0.0,0.0,4.0096,4.0096,4.0096,4.0096,4.0096,4.0096,4.0096,4.0096,4.0096,4.0096,0.0,0.0,0.0,0.0,0.0,0.0,0.0,0.0,0.0,0.0,3.9406,3.9406,3.9406,3.9406,0.0,0.0,3.9553,3.9758,0.0,0.0,0.0,0.0,0.0,0.0,0.0,0.0,0.0,0.0,0.0,0.0,0.0,0.0,0.0,0.0,0.0,4.4615,4.4615,0.0,0.0,0.0,4.4615,4.4615,4.4615,4.4615,4.4615,4.4615,4.4615,4.4615,4.4615,4.4615,4.4355,4.3487,4.3991,4.4078,4.2316,4.3198,4.353,0.0,0.0,4.2489,4.1263,4.2363,4.2878,4.1755,4.3864,4.4707,4.2896,4.5684,4.7999,4.894,4.9001,4.9001,4.9001,4.9001,4.9001,4.9001,4.9001,4.9001,4.9001,4.9001,4.9001,4.9001,4.9001,4.9001,4.9001,4.9001,4.9001,4.9001,4.9001,4.9001,4.9001,4.9001,4.9001,4.8923,4.8273,4.8015,4.7933,4.7273,4.7456,4.8015,0.0,0.0,0.0,0.0,0.0,0.0,0.0,4.0096,4.0096,4.0096,4.0096,4.0096,4.0096,4.0096,4.0096,4.0096,0.0,0.0,0.0,0.0,0.0,0.0,0.0,0.0,0.0,0.0,0.0,0.0,3.9406,3.9406,3.9406,3.9406,3.9864,4.0656,0.0,0.0,0.0,0.0,0.0,0.0,0.0,0.0,0.0,0.0,0.0,0.0,0.0,0.0,0.0,0.0,0.0,0.0,0.0,4.4615,4.4615,0.0,4.4615,4.4615,4.4615,4.4615,4.4615,4.4615,4.4615,4.4615,4.4615,4.4615,4.4355,4.3487,4.3991,4.4078,4.2316,4.2707,4.3032,0.0,0.0,0.0,4.1981,4.2738,4.2645,4.0912,4.3492,4.4707,4.2969,4.5718,4.7999,4.894,4.9001,4.9001,4.9001,4.9001,4.9001,4.9001,4.9001,4.9001,4.9001,4.9001,4.9001,4.9001,4.9001,4.9001,4.9001,4.9001,4.9001,4.9001,4.9001,4.9001,4.9001,4.9001,4.9001,4.9001,4.8986,4.8986,4.8986,4.897,4.8986,4.8986,0.0,0.0,0.0,0.0,0.0,0.0,0.0,0.0,4.0096,4.0096,4.0096,4.0096,4.0096,4.0096,4.0096,4.0096,0.0,0.0,0.0,0.0,0.0,0.0,0.0,0.0,0.0,0.0,0.0,0.0,0.0,0.0,4.0274,3.9684,3.9864,4.0656,3.9776,3.9867,0.0,0.0,0.0,0.0,0.0,0.0,4.1246,0.0,0.0,0.0,0.0,0.0,0.0,0.0,0.0,0.0,0.0,0.0,0.0,4.4615,4.4615,4.4615,4.4615,4.4615,4.4615,4.4615,4.4615,4.4615,4.4615,4.4615,4.4528,4.4239,4.4412,4.4253,4.3108,4.3108,4.3017,0.0,0.0,0.0,4.2893,4.3123,4.2878,4.1707,4.2796,4.4274,4.5919,4.6994,4.7721,4.8015,4.8641,4.9001,4.9001,4.9001,4.9001,4.9001,4.9001,4.9001,4.9001,4.9001,4.9001,4.9001,4.9001,4.9001,4.9001,4.9001,4.9001,4.9001,4.9001,4.9001,4.9001,4.9001,4.9001,4.894,4.8289,4.8047,4.7885,4.6607,4.6934,4.795,0.0,0.0,0.0,0.0,0.0,0.0,0.0,0.0,4.0096,4.0096,4.0096,4.0096,4.0096,4.0096,4.0214,4.0489,0.0,0.0,0.0,0.0,0.0,0.0,0.0,0.0,0.0,0.0,0.0,0.0,0.0,0.0,0.0,0.0,0.0,4.1147,4.0289,4.0378,0.0,0.0,0.0,0.0,0.0,0.0,4.1593,0.0,0.0,0.0,0.0,0.0,0.0,0.0,0.0,0.0,0.0,0.0,0.0,0.0,4.4615,4.4615,4.4615,4.4615,4.4615,4.4615,4.4615,4.4615,4.4615,4.4615,4.4615,4.4615,4.4615,4.4341,4.3472,4.3306,4.3017,4.2141,4.2458,4.2816,4.2816,4.2816,4.2809,4.2799,4.2706,4.3798,4.6787,4.6747,4.6678,4.7037,4.7605,4.8096,4.8449,4.8465,4.8624,4.8986,4.9001,4.9001,4.9001,4.9001,4.9001,4.9001,4.9001,4.9001,4.9001,4.9001,4.9001,4.9001,4.9001,4.9001,0.0,4.9001,4.8798,4.8417,4.7836,4.7373,4.6935,4.576,4.6065,4.6986,0.0,0.0,0.0,0.0,0.0,0.0,0.0,0.0,0.0,0.0,0.0,4.0096,4.0096,4.0146,0.0,0.0,0.0,0.0,0.0,0.0,0.0,0.0,0.0,0.0,0.0,0.0,0.0,4.0794,3.992,3.9973,4.0878,0.0,0.0,0.0,4.118,0.0,0.0,0.0,0.0,0.0,4.0363,4.076,0.0,0.0,0.0,0.0,0.0,0.0,0.0,0.0,0.0,0.0,0.0,0.0,0.0,0.0,0.0,0.0,0.0,4.4615,4.4615,4.4615,4.4615,4.4615,4.4615,4.4615,0.0,4.4615,4.4615,4.4341,4.3472,4.3306,4.3048,4.2285,4.211,4.211,4.2238,4.2125,4.2555,4.3928,4.3149,4.3452,4.5861,4.5376,4.523,4.6048,4.6156,4.6591,4.744,4.7506,4.7901,4.8766,4.8814,4.8861,4.9001,4.9001,4.9001,4.9001,4.9001,4.9001,4.9001,4.9001,4.9001,4.9001,4.9001,4.897,4.8892,4.8892,4.8354,4.7506,4.7506,4.6969,4.6191,4.6136,4.6138,4.6191,0.0,0.0,0.0,0.0,0.0,0.0,0.0,0.0,0.0,0.0,0.0,4.0096,4.0096,4.0608,0.0,0.0,0.0,0.0,0.0,0.0,0.0,0.0,0.0,0.0,0.0,0.0,0.0,4.1691,4.0826,4.118,4.2645,4.1329,0.0,0.0,0.0,0.0,0.0,0.0,0.0,0.0,4.0622,4.1511,0.0,0.0,0.0,0.0,4.3472,4.3741,0.0,0.0,0.0,0.0,0.0,0.0,0.0,0.0,4.4615,4.4615,4.4615,0.0,4.4615,4.4615,4.4615,4.4615,0.0,4.4615,4.4615,4.4615,4.4615,4.4341,4.3472,4.3306,4.341,4.3784,4.3234,4.3202,4.4444,4.3413,4.2882,4.3763,4.3632,4.3908,4.5017,4.5579,4.5654,4.5172,4.578,4.6296,4.6522,4.6523,4.6643,4.685,4.6867,4.7556,4.8986,4.9001,4.9001,4.9001,4.9001,4.9001,4.9001,4.9001,4.9001,4.9001,4.9001,4.8592,4.7917,4.7917,4.7373,4.6523,4.6523,4.6384,4.6103,4.5395,4.5579,4.6085,0.0,0.0,0.0,0.0,0.0,0.0,0.0,0.0,0.0,0.0,0.0,0.0,0.0,0.0,0.0,0.0,0.0,0.0,0.0,0.0,0.0,0.0,0.0,0.0,0.0,0.0,0.0,0.0,0.0,4.1788,0.0,0.0,0.0,0.0,0.0,0.0,0.0,0.0,0.0,0.0,4.113,0.0,0.0,0.0,0.0,0.0,4.3472,4.3606,0.0,4.3916,4.421,4.4615,0.0,0.0,0.0,0.0,4.4615,4.4615,4.4615,4.4615,4.4615,4.4615,4.4615,4.4615,4.4615,4.4615,4.4615,4.4615,4.4615,4.4442,4.3901,4.3785,4.3893,4.425,4.3831,4.3628,4.4096,4.3247,4.2706,4.3109,4.3396,4.3712,4.4074,4.4574,4.4653,4.4143,4.4593,4.5066,4.5525,4.5977,4.6191,4.6191,4.661,4.7122,4.7704,4.7721,4.7721,4.7721,4.7721,4.7721,4.7721,4.7721,4.7721,4.7721,4.7721,4.744,4.6952,4.6952,4.64,4.5561,4.5561,4.5269,4.4806,4.4301,4.4438,4.4803,0.0,0.0,0.0,0.0,0.0,0.0,0.0,0.0,0.0,0.0,0.0,0.0,0.0,0.0,0.0,0.0,0.0,0.0,0.0,0.0,0.0,0.0,0.0,0.0,0.0,0.0,0.0,0.0,0.0,0.0,0.0,0.0,0.0,0.0,0.0,0.0,0.0,0.0,0.0,4.0792,4.1658,0.0,0.0,0.0,0.0,0.0,0.0,0.0,0.0,4.4355,4.4615,4.4615,4.4615,0.0,0.0,0.0,0.0,0.0,4.4615,4.4499,4.4426,4.4556,4.4615,4.4615,4.4615,4.4685,4.477,4.477,4.4855,4.4863,4.461,4.4619,4.4616,4.436,4.423,4.381,4.2932,4.2633,4.2526,4.2526,4.3,4.329,4.329,4.329,4.329,4.329,4.329,4.3654,4.4545,4.5324,4.5762,4.5762,4.6523,4.6558,4.5764,4.6049,4.6191,4.6191,4.6191,4.6191,4.6191,4.6191,4.6191,4.6191,4.6191,4.612,4.5994,4.5994,4.5434,4.4567,4.4567,4.4047,4.329,4.329,4.329,4.329,0.0,0.0,0.0,0.0,0.0,0.0,0.0,0.0,0.0,0.0,0.0,0.0,0.0,0.0,0.0,0.0,0.0,0.0,0.0,0.0,0.0,0.0,0.0,0.0,0.0,0.0,0.0,0.0,0.0,0.0,4.3093,4.2489,4.2125,0.0,0.0,0.0,0.0,0.0,0.0,4.0792,4.1658,0.0,0.0,0.0,0.0,0.0,0.0,0.0,0.0,4.4542,4.4615,4.4615,4.4615,0.0,0.0,0.0,0.0,0.0,4.4615,4.4064,4.3682,4.4412,4.4615,4.4615,4.4615,4.5091,4.5534,4.5534,4.6024,4.6211,4.5407,4.589,4.6093,4.5116,4.4811,4.4337,4.3348,4.3184,4.316,4.316,4.325,4.329,4.329,4.329,4.329,4.329,4.329,4.3369,4.3512,4.3674,4.3737,4.3737,4.3877,4.3897,4.3737,4.5382,4.6191,4.6191,4.6191,4.6191,4.6191,4.6191,4.6191,4.6191,4.6191,4.576,4.502,4.502,4.4434,4.3532,4.3532,4.3448,4.329,4.329,4.329,4.329,0.0,0.0,0.0,0.0,0.0,0.0,0.0,0.0,0.0,0.0,0.0,0.0,0.0,0.0,0.0,0.0,0.0,0.0,0.0,0.0,0.0,0.0,0.0,0.0,0.0,0.0,0.0,0.0,0.0,4.3063,4.2583,4.1707,4.1296,4.128,0.0,0.0,0.0,0.0,4.0535,4.1395,0.0,0.0,0.0,0.0,0.0,0.0,0.0,0.0,0.0,0.0,4.4615,4.4615,4.4615,0.0,0.0,0.0,0.0,0.0,4.4615,4.4598,4.4681,4.5093,4.4843,4.4486,4.4458,4.5008,4.5542,4.5542,4.5824,4.6034,4.599,4.5928,4.5501,4.4321,4.4502,4.445,4.3433,4.329,4.329,4.329,4.329,4.329,4.329,4.329,4.329,4.329,4.329,4.329,4.329,4.381,4.3869,4.3309,4.383,4.3849,4.3309,4.419,4.4634,4.4634,4.4634,4.4634,4.4634,4.4634,4.4634,4.4634,4.4634,4.4384,4.4004,4.4004,4.3713,4.329,4.329,4.329,4.329,4.329,4.329,4.329,0.0,0.0,0.0,0.0,0.0,0.0,0.0,0.0,0.0,0.0,0.0,0.0,0.0,0.0,0.0,0.0,0.0,0.0,0.0,0.0,0.0,0.0,0.0,0.0,0.0,0.0,4.3396,4.3001,4.32,4.2754,4.169,4.0809,4.0397,0.0,0.0,0.0,0.0,0.0,4.0481,4.1642,0.0,0.0,0.0,0.0,0.0,0.0,0.0,0.0,0.0,0.0,0.0,0.0,0.0,0.0,0.0,4.4615,4.4615,4.4649,4.4804,4.5118,4.5488,4.5863,4.5449,4.4948,4.4903,4.5294,4.5663,0.0,4.5618,4.5685,4.6041,4.5318,4.444,4.3758,4.4105,4.4182,4.3409,4.329,4.329,4.329,4.329,4.329,4.329,4.329,4.329,4.329,4.329,4.329,4.329,4.4043,4.4086,4.3309,4.4047,4.4066,4.3309,4.329,4.329,4.329,4.329,4.329,4.329,4.329,4.329,4.329,4.329,4.329,4.329,4.329,4.329,4.329,4.329,4.329,4.329,4.329,4.329,4.329,0.0,0.0,0.0,0.0,0.0,0.0,0.0,0.0,0.0,0.0,0.0,0.0,0.0,0.0,0.0,0.0,0.0,0.0,0.0,0.0,0.0,0.0,0.0,0.0,0.0,4.4121,4.3708,4.2093,4.2893,4.2442,4.076,3.99,3.9499,3.9535,0.0,0.0,0.0,0.0,4.069,4.0792,4.0724,0.0,0.0,0.0,0.0,0.0,0.0,0.0,0.0,0.0,0.0,0.0,0.0,0.0,4.4615,4.4615,4.4615,4.4753,4.5432,4.5074,4.4848,4.6353,4.6672,4.6627,4.6627,4.6525,0.0,4.642,0.0,4.5886,4.5075,4.4106,4.3726,4.4548,4.3966,4.3389,4.3309,4.329,4.329,4.329,4.329,4.329,4.329,4.329,4.329,4.329,4.329,4.329,4.329,4.3369,4.3369,4.329,4.3369,4.3369,4.329,4.329,4.329,4.329,4.329,4.329,4.329,4.329,4.329,4.329,4.329,4.329,4.329,4.329,4.329,4.329,4.329,4.329,4.329,4.329,4.329,4.329,0.0,0.0,0.0,0.0,0.0,0.0,0.0,0.0,0.0,0.0,0.0,0.0,0.0,0.0,0.0,0.0,0.0,0.0,0.0,0.0,0.0,0.0,0.0,4.3306,4.3306,4.3092,4.2939,4.2816,4.2046,4.1079,3.9867,3.9556,0.0,0.0,0.0,0.0,0.0,0.0,0.0,4.0656,4.0115,4.022,0.0,0.0,0.0,0.0,0.0,0.0,0.0,0.0,4.4615,4.4615,4.4615,4.4615,4.4685,4.5159,4.528,4.5449,4.6177,4.6477,4.6715,4.7337,4.7834,0.0,0.0,4.6041,4.6308,4.6308,4.5784,0.0,4.4868,4.3985,4.3413,4.381,4.3551,4.329,4.329,4.329,4.329,4.329,4.329,4.329,4.329,4.329,4.329,4.329,4.329,4.329,4.329,4.329,4.329,4.329,4.329,4.329,4.329,4.329,4.329,4.329,4.329,4.329,4.329,4.329,4.329,4.329,4.329,4.329,4.329,4.329,4.329,4.329,4.329,4.329,4.329,4.329,4.329,4.329,0.0,0.0,0.0,0.0,0.0,0.0,0.0,0.0,0.0,0.0,0.0,0.0,0.0,0.0,0.0,0.0,0.0,0.0,0.0,0.0,0.0,0.0,0.0,4.3169,4.2893,4.2046,4.1885,4.2473,4.1012,3.9973,3.9406,0.0,0.0,0.0,0.0,0.0,0.0,0.0,0.0,0.0,3.9646,3.9755,0.0,0.0,0.0,0.0,0.0,0.0,0.0,0.0,4.4615,4.4635,4.4871,4.4956,4.5091,4.5838,4.5835,4.5822,4.6864,4.73,4.7506,4.7757,0.0,0.0,4.5545,4.5608,4.6119,4.5816,4.5264,4.4699,4.4377,4.4008,4.3669,4.3349,4.329,4.329,4.329,4.329,4.3384,4.3594,4.3624,4.3698,4.3908,4.3743,4.3624,4.3624,4.3409,4.329,4.329,4.329,4.329,4.329,4.329,4.329,4.329,4.329,4.329,4.329,4.329,4.329,4.329,4.329,4.329,4.329,4.329,4.329,4.329,4.329,4.329,4.329,4.329,4.329,4.329,4.329,4.329,4.329,0.0,0.0,0.0,0.0,0.0,0.0,0.0,0.0,0.0,0.0,0.0,0.0,0.0,0.0,0.0,0.0,0.0,0.0,0.0,0.0,0.0,0.0,0.0,4.2878,4.2029,4.1147,4.069,4.069,3.9829,3.9406,3.9406,3.9406,0.0,0.0,0.0,0.0,0.0,0.0,0.0,0.0,3.9406,3.9406,3.9499,0.0,0.0,0.0,0.0,0.0,0.0,0.0,4.4601,4.4753,4.5483,4.5689,4.5841,4.6583,4.6149,4.5802,4.7457,4.7221,4.6683,4.7408,4.7589,4.7104,4.5227,4.5525,4.5941,4.5002,4.4793,4.4491,4.3492,4.412,4.4469,4.3468,4.3305,4.3319,4.3319,4.3319,4.3579,4.4222,4.4311,4.4566,4.5229,4.4706,4.4311,4.4311,4.3698,4.3319,4.3319,4.3319,4.3324,4.3305,4.3305,4.3305,4.329,4.329,4.329,4.329,4.329,4.329,4.329,4.329,4.329,4.329,4.329,4.329,4.329,4.329,4.329,4.329,4.329,4.329,4.329,4.329,4.329,4.329,0.0,0.0,0.0,0.0,0.0,0.0,0.0,0.0,0.0,0.0,0.0,0.0,0.0,0.0,0.0,0.0,0.0,0.0,0.0,0.0,0.0,0.0,0.0,0.0,0.0,0.0,3.9791,3.9791,4.0133,4.0008,0.0,0.0,0.0,3.9406,0.0,0.0,0.0,0.0,0.0,0.0,3.9406,3.9406,3.9499,0.0,0.0,0.0,0.0,0.0,0.0,0.0,0.0,0.0,4.6203,4.6014,4.575,4.7164,4.7383,4.738,4.8401,4.8004,4.7325,4.7556,4.7088,4.6295,4.5076,4.5525,0.0,4.5002,4.4793,4.4491,4.3492,4.3927,4.4343,4.4058,4.4386,4.4721,4.4721,4.4721,4.4781,4.4975,4.5005,4.508,4.5274,4.5125,4.5005,4.5005,4.4825,4.4721,4.4721,4.4721,4.4496,4.4012,4.3997,4.3788,4.329,4.329,4.329,4.329,4.329,4.329,4.329,4.329,4.329,4.329,4.329,4.329,4.329,4.329,4.329,4.329,4.329,4.329,4.329,4.329,4.329,4.329,0.0,0.0,0.0,0.0,0.0,0.0,0.0,0.0,0.0,0.0,0.0,0.0,0.0,0.0,0.0,0.0,0.0,0.0,0.0,0.0,0.0,0.0,0.0,0.0,0.0,4.0619,4.0095,0.0,0.0,0.0,0.0,0.0,0.0,3.9406,0.0,3.9406,0.0,0.0,3.9795,3.981,4.0098,4.0202,4.0242,0.0,0.0,0.0,0.0,0.0,0.0,0.0,0.0,0.0,4.6406,4.6553,4.6578,4.75,4.7511,4.7322,4.7769,4.7205,4.6503,4.6503,4.6048,4.5567,4.5235,4.5101,4.4958,4.4657,4.491,4.4934,4.4228,4.473,4.5127,4.4752,4.5035,4.5289,4.5289,4.5289,4.5394,4.5678,4.5708,4.5798,4.6067,4.5858,4.5708,4.5708,4.5454,4.5289,4.5289,4.5289,4.511,4.4721,4.4706,4.4511,4.4102,4.4087,4.3967,4.3698,4.3698,4.3564,4.329,4.329,4.329,4.329,4.329,4.329,4.329,4.329,4.329,4.329,4.329,4.329,4.329,4.329,4.329,4.329,0.0,0.0,0.0,0.0,0.0,0.0,0.0,0.0,0.0,0.0,4.4615,0.0,0.0,0.0,0.0,0.0,0.0,0.0,0.0,0.0,0.0,0.0,0.0,0.0,0.0,0.0,0.0,0.0,0.0,0.0,0.0,0.0,3.9406,3.9406,0.0,3.9496,0.0,4.0217,4.0487,4.0546,4.1149,4.1403,4.1403,4.1403,0.0,0.0,0.0,0.0,0.0,0.0,0.0,0.0,4.6339,4.7067,4.7612,4.7588,4.6935,4.6191,4.6191,4.5507,4.4793,4.4793,4.4783,4.4905,4.5519,4.4523,4.3673,4.4373,4.5133,4.5596,4.5335,4.6052,4.6389,4.553,4.5439,4.5469,4.5469,4.5469,4.5708,4.6315,4.639,4.6629,4.7249,4.6749,4.639,4.639,4.5828,4.5469,4.5469,4.5469,4.5454,4.5394,4.5394,4.5364,4.5289,4.5289,4.499,4.4386,4.4386,4.4072,4.3489,4.3369,4.329,4.329,4.329,4.329,4.329,4.329,4.329,4.329,4.329,4.329,4.329,4.329,4.329,4.329,0.0,0.0,0.0,0.0,0.0,0.0,0.0,0.0,0.0,0.0,0.0,0.0,0.0,0.0,0.0,0.0,0.0,0.0,0.0,0.0,0.0,0.0,0.0,0.0,0.0,0.0,0.0,0.0,0.0,0.0,0.0,0.0,0.0,3.9421,0.0,4.0187,4.0232,4.0909,4.1194,4.1209,4.1343,4.1403,4.1403,4.1403,4.1403,0.0,0.0,0.0,0.0,0.0,0.0,0.0,4.6844,4.6502,4.5764,4.7173,4.6935,4.6191,4.6191,4.5507,4.4793,4.4793,4.4598,4.4579,4.5227,4.5124,4.511,4.5992,4.5773,4.5362,4.5301,4.5911,4.6334,4.6118,4.6531,4.6875,4.6875,4.6875,4.692,4.707,4.7078,4.7145,4.7294,4.7174,4.7078,4.7078,4.695,4.6875,4.6875,4.6875,4.6636,4.6091,4.6076,4.5822,4.5304,4.5289,4.5229,4.508,4.508,4.5005,4.484,4.3788,4.329,4.329,4.329,4.329,4.329,4.329,4.329,4.329,4.329,4.329,4.329,4.329,4.329,4.329,0.0,0.0,0.0,0.0,0.0,0.0,0.0,0.0,0.0,0.0,0.0,0.0,0.0,0.0,0.0,0.0,0.0,0.0,0.0,0.0,0.0,0.0,0.0,0.0,0.0,0.0,0.0,0.0,0.0,0.0,0.0,0.0,0.0,4.0367,0.0,4.0894,4.0905,4.1583,4.1886,4.1897,4.2192,4.2312,4.2312,4.2312,4.2312,4.237,4.2823,0.0,0.0,0.0,0.0,0.0,0.0,0.0,4.5561,4.6099,4.6224,4.5996,4.5051,4.5032,4.5202,4.5072,4.4916,4.496,4.5633,4.5783,4.6004,4.6816,4.6339,4.5888,4.6202,4.6546,4.6779,4.6779,4.7063,4.7309,4.7309,4.7309,4.7309,4.7309,4.7309,4.7309,4.7309,4.7309,4.7309,4.7309,4.7309,4.7309,4.7309,4.7309,4.7145,4.6779,4.6779,4.6621,4.6262,4.6262,4.6097,4.5783,4.5783,4.5618,4.5259,4.4237,4.3609,4.329,4.329,4.329,4.329,4.329,4.329,4.329,4.329,4.329,4.329,4.329,4.329,4.329,0.0,0.0,0.0,0.0,0.0,0.0,0.0,0.0,0.0,0.0,0.0,0.0,0.0,0.0,0.0,0.0,0.0,0.0,0.0,0.0,0.0,0.0,0.0,0.0,0.0,0.0,0.0,0.0,0.0,0.0,0.0,0.0,0.0,4.1403,0.0,0.0,4.1613,4.2271,4.2556,4.2601,4.31,4.329,4.329,4.329,0.0,4.329,4.329,4.329,4.329,4.329,0.0,0.0,0.0,0.0,4.5582,4.4983,4.5308,4.5518,4.3918,4.4545,4.5618,4.5496,4.5469,4.5648,4.6315,4.6465,4.6629,4.7189,4.6854,4.6629,4.7204,4.7309,4.7309,4.7309,4.7309,4.7309,4.7309,4.7309,4.7309,4.7309,4.7309,4.7309,4.7309,4.7309,4.7309,4.7309,4.7309,4.7309,4.7309,4.7309,4.7309,4.7309,4.7309,4.7309,4.7309,4.7309,4.7018,4.6465,4.6465,4.6121,4.5454,4.4895,4.4282,4.3638,4.3514,4.3469,4.3454,4.3349,4.329,4.329,4.329,4.329,4.329,4.329,4.329,4.329,0.0,0.0,0.0,0.0,0.0,0.0,0.0,0.0,0.0,0.0,0.0,0.0,0.0,0.0,0.0,0.0,0.0,0.0,4.4615,0.0,0.0,4.0946,4.0861,0.0,0.0,0.0,0.0,0.0,0.0,0.0,0.0,0.0,0.0,4.1433,0.0,0.0,0.0,4.2925,4.319,4.319,4.326,4.329,4.329,0.0,0.0,0.0,4.329,4.329,4.329,4.329,4.3389,0.0,0.0,0.0,4.3834,4.4586,4.4676,4.4494,4.4243,4.4748,4.547,4.6028,4.6166,4.633,4.7003,4.7174,4.7189,4.7294,4.7234,4.7183,4.7294,4.7309,4.7309,4.7309,4.7309,4.7309,4.7309,4.7309,4.7309,4.7309,4.7309,4.7309,4.7309,4.7309,4.7309,4.7309,4.7309,4.7309,4.7309,4.7309,4.7309,4.7309,4.7309,4.7309,4.7309,4.7309,4.7264,4.7174,4.7174,4.6809,4.6166,4.6076,4.5657,4.5005,4.4421,4.4162,4.4117,4.3549,4.329,4.329,4.329,4.329,4.329,4.329,4.329,4.329,0.0,0.0,0.0,0.0,0.0,0.0,0.0,0.0,0.0,0.0,0.0,0.0,0.0,0.0,0.0,4.4615,4.4615,4.4398,4.3902,4.2599,4.1511,4.0726,4.0589,4.0535,0.0,0.0,0.0,0.0,0.0,0.0,0.0,4.2611,4.2457,0.0,0.0,0.0,0.0,0.0,4.329,4.329,4.329,4.329,0.0,0.0,0.0,0.0,0.0,0.0,4.329,4.329,4.329,4.3369,4.381,0.0,0.0,0.0,4.5047,4.5741,4.6107,4.6044,4.6016,4.6689,4.6854,4.6929,4.7234,4.7309,4.7309,4.7309,4.7309,4.7309,4.7309,4.7309,4.7309,4.7309,4.7309,4.7309,4.7309,4.7309,4.7309,4.7309,4.7309,4.7309,4.7309,4.7309,4.7309,4.7309,4.7309,4.7309,4.7309,4.7309,4.7309,4.7309,4.7309,4.7309,4.7309,4.7309,4.7309,4.7309,4.7309,4.716,4.6854,4.6854,4.6292,4.5274,4.499,4.487,4.484,4.4541,4.4192,4.3863,4.3863,4.3638,4.329,4.329,4.329,4.329,0.0,0.0,0.0,0.0,0.0,0.0,0.0,0.0,0.0,0.0,0.0,0.0,0.0,0.0,0.0,0.0,4.4078,4.3575,4.2692,4.1428,4.0665,4.0624,4.048,4.0472,4.0651,0.0,0.0,0.0,0.0,0.0,4.329,4.329,4.329,0.0,4.329,4.329,0.0,0.0,0.0,0.0,0.0,0.0,0.0,0.0,0.0,0.0,0.0,0.0,0.0,4.3818,4.3818,4.3818,4.3818,4.4147,0.0,0.0,0.0,4.6735,4.7426,4.7092,4.6674,4.7189,4.7309,4.7309,4.7309,4.7309,4.7309,4.7309,4.7309,4.7309,4.7309,4.7309,4.7309,4.7309,4.7309,4.7309,4.7309,4.7309,4.7309,4.7309,4.7309,4.7309,4.7309,4.7309,4.7309,4.7309,4.7309,4.7309,4.7309,4.7309,4.7309,4.7309,4.7309,4.7309,4.7309,4.7309,4.7309,4.7309,4.7309,4.7309,4.7309,4.7309,4.6756,4.5798,4.5633,4.5559,4.5544,4.5364,4.5005,4.4556,4.4556,4.4147,4.3564,4.3564,4.3439,4.329,0.0,0.0,0.0,0.0,0.0,0.0,0.0,0.0,0.0,0.0,0.0,0.0,0.0,4.3858,4.3366,4.3366,4.2614,4.1772,4.0895,4.0758,4.0602,4.0417,4.0419,0.0,4.1328,0.0,0.0,0.0,0.0,0.0,4.329,4.329,4.329,4.329,4.329,4.329,4.329,0.0,0.0,0.0,0.0,0.0,0.0,0.0,0.0,0.0,0.0,0.0,0.0,0.0,4.52,4.52,4.52,4.5214,4.5244,0.0,0.0,0.0,4.7156,4.7292,4.7264,4.7294,4.7309,4.7309,4.7309,4.7309,4.7309,4.7309,4.7309,4.7309,4.7309,4.7309,4.7309,4.7309,4.7309,4.7309,4.7309,4.7309,4.7309,4.7309,4.7309,4.7309,4.7309,4.7309,4.7309,4.7309,4.7309,4.7309,4.7309,4.7309,4.7309,4.7309,4.7309,4.7309,4.7309,4.7309,4.7309,4.7309,4.7309,4.7309,4.7309,4.7309,4.7264,4.716,4.651,4.6256,4.6196,4.5559,4.5274,4.5244,4.5244,4.484,4.4252,4.4252,4.3848,4.329,0.0,0.0,0.0,0.0,0.0,0.0,0.0,0.0,0.0,0.0,0.0,0.0,0.0,4.2661,4.2473,4.2473,4.1674,4.1233,4.1326,4.0825,4.0674,4.1033,4.1448,4.1792,4.2051,0.0,0.0,0.0,0.0,4.329,4.329,4.329,4.329,4.329,4.329,4.329,4.329,4.329,0.0,0.0,0.0,0.0,0.0,0.0,0.0,0.0,0.0,0.0,0.0,0.0,0.0,0.0,0.0,0.0,4.6016,4.6456,4.6756,4.6988,4.7234,4.7309,4.7309,4.7309,4.7309,4.7309,4.7309,4.7309,4.7309,4.7309,4.7309,4.7309,4.7309,4.7309,4.7309,4.7309,4.7309,4.7309,4.7309,4.7309,4.7309,4.7309,4.7309,4.7309,4.7309,4.7309,4.7309,4.7309,4.7309,4.7309,4.7309,4.7309,4.7309,4.7309,4.7309,4.7309,4.7309,4.7309,4.7309,4.7309,4.7309,4.7309,4.7309,4.7309,4.7309,4.7294,4.7055,4.6929,4.6914,4.6681,4.6337,4.5942,4.5942,4.5544,4.4885,4.4446,4.4147,4.3878,0.0,0.0,0.0,0.0,0.0,0.0,0.0,0.0,0.0,0.0,0.0,0.0,0.0,0.0,4.154,4.1475,4.1142,4.113,4.1569,4.1048,4.1025,4.1703,4.2171,4.25,4.2705,0.0,0.0,0.0,0.0,0.0,0.0,4.329,4.3409,4.3638,4.3638,4.3499,0.0,0.0,0.0,4.3698,0.0,0.0,4.4691,0.0,0.0,0.0,0.0,0.0,0.0,0.0,0.0,0.0,0.0,0.0,0.0,0.0,4.7309,4.7309,4.7309,4.7309,4.7309,4.7309,4.7309,4.7309,4.7309,4.7309,4.7309,4.7309,4.7309,4.7309,4.7309,4.7309,4.7309,4.7309,4.7309,4.7309,4.7309,4.7309,4.7309,4.7309,4.7309,4.7309,4.7309,4.7309,4.7309,4.7309,4.7309,4.7309,4.7309,4.7309,4.7309,4.7309,4.7309,4.7309,4.7309,4.7309,4.7309,4.7309,4.7309,4.7309,4.7309,4.7309,4.7309,4.7309,4.7309,4.7309,4.7309,4.7309,4.7055,4.6629,4.6629,4.6232,4.5589,4.5134,4.4685,4.4237,0.0,0.0,0.0,0.0,0.0,0.0,0.0,0.0,0.0,0.0,0.0,0.0,0.0,0.0,0.0,4.0459,4.1029,4.1403,4.1433,4.1433,4.1718,4.2396,4.2425,4.2705,4.329,0.0,0.0,0.0,0.0,0.0,0.0,0.0,4.3698,4.4326,4.4326,4.3967,4.3394,0.0,4.4326,4.4386,0.0,4.5334,4.5334,0.0,0.0,0.0,4.633,4.6749,0.0,4.7309,0.0,0.0,0.0,0.0,0.0,0.0,0.0,0.0,0.0,0.0,0.0,4.7309,4.7309,4.7309,4.7309,4.7309,4.7309,4.7309,4.7309,4.7309,4.7309,4.7309,4.7309,4.7309,4.7309,4.7309,4.7309,4.7309,4.7309,4.7309,4.7309,4.7309,4.7309,4.7309,4.7309,4.7309,4.7309,4.7309,4.7309,4.7309,4.7309,4.7309,4.7309,4.7309,4.7309,4.7309,4.7309,4.7309,4.7309,4.7309,4.7309,4.7309,4.7309,4.7309,4.7309,4.7309,4.7309,4.7309,4.7309,4.7309,4.7309,4.6899,4.633,4.6315,4.5478,4.4341,0.0,0.0,0.0,0.0,0.0,0.0,0.0,0.0,0.0,0.0,0.0,0.0,0.0,0.0,0.0,4.1123,4.1283,4.1598,4.2096,4.2126,4.2406,4.301,4.304,4.313,4.329,4.329,0.0,0.0,0.0,0.0,0.0,0.0,0.0,0.0,4.502,4.493,4.4766,4.4945,0.0,4.508,4.5747,4.6016,4.6076,4.6561,4.686,4.7018,4.7018,4.7145,4.7309,0.0,4.7309,4.7309,0.0,0.0,0.0,0.0,0.0,0.0,4.7309,0.0,0.0,0.0,0.0,0.0,4.7309,4.7309,4.7309,4.7309,4.7309,4.7309,4.7309,4.7309,4.7309,4.7309,4.7309,4.7309,4.7309,4.7309,4.7309,4.7309,4.7309,4.7309,4.7309,4.7309,4.7309,4.7309,4.7309,4.7309,4.7309,4.7309,4.7309,4.7309,4.7309,4.7309,4.7309,4.7309,4.7309,4.7309,4.7309,4.7309,4.7309,4.7309,4.7309,4.7309,4.7309,4.7309,4.7309,4.7309,4.7309,4.7309,4.7309,4.7189,4.6958,4.648,4.6076,4.5613,0.0,0.0,0.0,0.0,0.0,0.0,0.0,0.0,0.0,0.0,0.0,0.0,0.0,0.0,0.0,0.0,4.2062,4.2357,4.2746,4.2776,4.294,4.3275,4.329,4.329,4.329,4.3579,0.0,0.0,0.0,0.0,0.0,0.0,0.0,0.0,0.0,0.0,0.0,0.0,4.5978,4.5783,4.6435,4.6719,4.6749,4.716,4.7309,4.7309,4.7309,4.7309,4.7309,4.7309,4.7309,0.0,0.0,0.0,0.0,0.0,0.0,0.0,0.0,0.0,0.0,4.7309,0.0,0.0,4.7309,4.7309,4.7309,4.7309,4.7309,4.7309,4.7309,4.7309,4.7309,4.7309,4.7309,4.7309,4.7309,4.7309,4.7309,4.7309,4.7309,4.7309,4.7309,4.7309,4.7309,4.7309,4.7309,4.7309,4.7309,4.7309,4.7309,4.7309,4.7309,4.7309,4.7309,4.7309,4.7309,4.7309,4.7309,4.7309,4.7309,4.7309,4.7309,4.7309,4.7309,4.7309,4.7309,4.7309,4.7309,4.7309,4.7309,4.7309,4.7249,4.6854,4.654,4.6151,0.0,0.0,0.0,0.0,0.0,0.0,0.0,0.0,0.0,0.0,0.0,0.0,0.0,0.0,0.0,0.0,4.3,4.329,4.329,4.329,4.3319,4.3409,4.3409,4.3439,4.3514,4.4102,0.0,0.0,0.0,0.0,0.0,0.0,0.0,0.0,0.0,0.0,0.0,0.0,4.6965,4.6465,4.7048,4.7309,4.7309,4.7309,4.7309,4.7309,4.7309,4.7309,4.7309,4.7309,4.7309,0.0,0.0,0.0,0.0,0.0,4.7309,0.0,0.0,0.0,0.0,0.0,4.7309,0.0,4.7309,4.7309,4.7309,4.7309,4.7309,4.7309,4.7309,4.7309,4.7309,4.7309,4.7309,4.7309,4.7309,4.7309,4.7309,4.7309,4.7309,4.7309,4.7309,4.7309,4.7309,4.7309,4.7309,4.7309,4.7309,4.7309,4.7309,4.7309,4.7309,4.7309,4.7309,4.7309,4.7309,4.7309,4.7309,4.7309,4.7309,4.7309,4.7309,4.7309,4.7309,4.7309,4.7309,4.7309,4.7309,4.7309,4.7309,4.7309,4.7309,4.7309,4.6914,4.6315,4.3631,0.0,0.0,0.0,0.0,0.0,0.0,0.0,0.0,0.0,0.0,0.0,0.0,0.0,0.0,0.0,0.0,4.329,4.329,4.329,4.3549,4.4087,4.4102,4.4356,4.49,4.5035,4.5095,0.0,0.0,0.0,0.0,0.0,0.0,0.0,0.0,0.0,0.0,4.7309,4.7234,4.713,4.7249,4.7309,4.7309,4.7309,4.7309,4.7309,4.7309,4.7309,4.7309,4.7309,4.7309,4.7309,4.7309,4.7309,4.7309,4.7309,0.0,0.0,0.0,0.0,0.0,4.7309,4.7309,0.0,4.7309,4.7309,4.7309,4.7309,4.7309,4.7309,4.7309,4.7309,4.7309,4.7309,4.7309,4.7309,4.7309,4.7309,4.7309,4.7309,4.7309,4.7309,4.7309,4.7309,4.7309,4.7309,4.7309,4.7309,4.7309,4.7309,4.7309,4.7309,4.7309,4.7309,4.7309,4.7309,4.7309,4.7309,4.7309,4.7309,4.7309,4.7309,4.7309,4.7309,4.7309,4.7309,4.7309,4.7309,4.7309,4.7309,4.7309,4.7309,4.7309,4.7309,4.7219,4.7003,4.3205,0.0,0.0,0.0,0.0,0.0,0.0,0.0,0.0,0.0,0.0,0.0,0.0,0.0,0.0,0.0,0.0,0.0,0.0,0.0,4.4446,4.4781,4.4811,4.496,4.5289,4.5633,4.5813,0.0,0.0,0.0,0.0,0.0,0.0,0.0,0.0,0.0,0.0,4.7309,4.7309,4.7309,4.7309,4.7309,4.7309,4.7309,4.7309,4.7309,4.7309,4.7309,4.7309,4.7309,4.7519,4.7743,4.7414,4.7534,4.7803,4.7803,4.7563,4.7369,0.0,0.0,4.7309,4.7309,4.7309,0.0,0.0,4.7309,4.7309,4.7309,4.7309,4.7309,4.7309,4.7309,4.7309,4.7309,4.7309,4.7309,4.7309,4.7309,4.7309,4.7309,4.7309,4.7309,4.7309,4.7309,4.7309,4.7309,4.7309,4.7309,4.7309,4.7309,4.7309,4.7309,4.7309,4.7309,4.7309,4.7309,4.7309,4.7309,4.7309,4.7309,4.7309,4.7309,4.7309,4.7309,4.7309,4.7309,4.7309,4.7309,4.7309,4.7309,4.7309,4.7309,4.7207,4.6594,4.6344,4.6167,4.2824,0.0,0.0,0.0,0.0,0.0,0.0,0.0,0.0,0.0,0.0,0.0,0.0,0.0,0.0,0.0,0.0,0.0,0.0,0.0,4.5349,4.5484,4.5484,4.5544,4.5678,4.6232,4.6495,0.0,0.0,0.0,0.0,0.0,0.0,0.0,0.0,0.0,4.7489,4.7489,4.7563,4.7683,4.7683,4.7608,4.7519,4.7638,4.7683,4.7683,4.7683,4.7683,4.7683,4.7683,4.8042,4.8409,4.7848,4.8057,4.8498,4.8498,4.8102,4.7803,4.8364,4.8087,4.7683,4.7683,4.7683,4.7683,0.0,0.0,0.0,4.7519,4.7489,4.7459,4.7324,4.7309,4.7264,4.713,4.7219,4.7249,4.713,4.7219,4.7309,4.7309,4.7309,4.7309,4.7309,4.7309,4.7309,4.7309,4.7309,4.7309,4.7309,4.7309,4.7309,4.7309,4.7309,4.7309,4.7309,4.7309,4.7309,4.7309,4.7309,4.7309,4.7309,4.7309,4.7309,4.7309,4.7309,4.7309,4.7287,4.704,4.6931,4.6931,4.6931,4.6931,4.6785,4.5494,4.5024,4.4801,4.3228,4.3144,0.0,0.0,0.0,0.0,0.0,0.0,0.0,0.0,0.0,0.0,0.0,0.0,0.0,0.0,0.0,0.0,4.5289,0.0,0.0,4.6151,4.6196,4.645,4.707,4.716,4.7189,4.7189,0.0,0.0,0.0,0.0,0.0,0.0,4.7309,4.7623,4.8199,4.8199,4.8528,4.9067,4.9067,4.8723,4.8259,4.8843,4.9067,4.9067,4.9067,4.9067,4.9067,4.9067,4.9112,4.9157,4.9097,4.9127,4.9187,4.9187,4.9127,4.9082,4.9179,4.9127,4.9067,4.9067,4.9067,4.9067,4.9067,0.0,4.8902,4.8319,0.0,4.7997,4.7414,0.0,0.0,4.651,4.6899,4.71,4.6495,4.6935,4.7309,4.7309,4.7309,4.7309,4.7309,4.7309,4.7309,4.7309,4.7309,4.7309,4.7309,4.7309,4.7309,4.7309,4.7309,4.7309,4.7309,4.7309,4.7309,4.7309,4.7309,4.7309,4.7309,4.7309,4.7309,4.7309,4.7309,4.7309,4.7207,4.6084,4.5607,4.5607,4.5607,4.5607,4.5471,4.4186,4.3717,4.3679,4.3384,4.329,0.0,0.0,0.0,0.0,0.0,0.0,0.0,0.0,0.0,0.0,0.0,0.0,0.0,0.0,0.0,4.6456,4.6456,0.0,0.0,4.6875,4.6869,4.7003,4.7294,4.7309,4.7309,4.7309,4.7309,0.0,0.0,0.0,0.0,0.0,4.8304,4.8618,4.8873,4.8873,4.9037,4.9322,4.9673,4.9635,4.9381,4.9337,4.9292,4.9292,4.9292,4.9292,4.9292,4.9292,4.9531,4.9763,4.9411,4.9546,4.9823,4.9823,4.9576,4.9381,4.9733,4.9576,4.9292,4.9292,4.9292,4.9292,4.9292,4.9292,4.9217,4.8932,0.0,0.0,0.0,0.0,0.0,0.0,4.713,4.7204,4.6914,4.713,4.7309,4.7309,4.7309,4.7309,4.7309,4.7309,4.7309,4.7309,4.7309,4.7309,4.7309,4.7309,4.7309,4.7309,4.7309,4.7309,4.7309,4.7309,4.7309,4.7309,4.7309,4.7309,4.7309,4.7309,4.7309,4.7251,4.6513,4.6211,4.6084,4.4826,4.4303,4.421,4.348,4.3646,4.4139,4.2858,4.2412,4.229,4.3938,0.0,0.0,0.0,0.0,0.0,0.0,0.0,0.0,0.0,0.0,0.0,4.5843,4.6271,0.0,0.0,4.7018,4.7309,4.7309,0.0,4.7309,0.0,4.7309,4.7309,4.7309,4.7309,4.7399,4.7578,0.0,0.0,0.0,0.0,0.0,0.0,4.9082,4.9381,4.9561,4.9561,4.9651,4.986,5.0293,5.0465,5.0428,4.9987,4.9831,4.9831,4.9831,4.9831,4.9831,4.9831,5.0122,5.0398,4.9942,5.0122,5.0465,5.0465,5.0167,4.9935,5.0353,5.0152,4.9831,4.9831,4.9831,4.9831,4.9831,4.9831,4.9771,4.9568,4.9149,0.0,0.0,0.0,0.0,0.0,0.0,4.7249,4.7055,4.7189,4.7309,4.7309,4.7309,4.7309,4.7309,4.7309,4.7309,4.7309,4.7309,4.7309,4.7309,4.7309,4.7309,4.7309,4.7309,4.7309,4.7309,4.7309,4.7309,4.7309,4.7309,4.7309,4.7309,4.7309,4.7121,4.6726,4.5801,4.5207,4.478,4.3504,4.2978,4.2858,4.1579,4.1654,4.2363,4.1406,4.1082,4.0957,4.5229,4.5229,0.0,0.0,4.5259,0.0,0.0,0.0,4.6271,4.6271,4.6824,4.7249,4.7249,4.7264,4.7279,4.7279,4.7294,4.7309,4.7309,4.7309,4.7309,0.0,0.0,4.7309,4.7309,4.7309,4.7623,4.8274,4.8274,0.0,0.0,0.0,0.0,0.0,4.9299,4.9613,5.0166,5.0166,5.0548,5.1131,5.1161,5.1161,5.1161,5.1146,5.1131,5.1131,5.1131,5.1131,5.1131,5.1131,5.1146,5.1161,5.1146,5.1146,5.1161,5.1161,5.1146,5.1131,5.1161,5.1146,5.1131,5.1131,5.1131,5.1131,5.1131,5.1131,5.0951,5.0285,5.0136,4.977,4.8521,0.0,0.0,0.0,0.0,0.0,0.0,4.6884,4.7309,4.7309,4.7309,4.7309,4.7309,4.7309,4.7309,4.7309,4.7309,4.7309,4.7309,4.7309,4.7309,4.7309,4.7309,4.7309,4.7309,4.7309,4.7309,4.7309,4.7309,4.7309,4.7309,4.7309,4.6638,4.5471,4.5426,4.4711,4.3456,4.2193,4.1654,4.153,4.0262,3.9788,3.9813,3.9788,3.9762,3.9762,4.6546,0.0,0.0,4.6031,4.5956,4.6106,4.6561,4.683,4.6958,4.6958,4.7174,4.7309,4.7309,4.7309,4.7309,4.7309,4.7309,4.7309,4.7309,4.7309,4.7309,4.7309,4.7728,4.7952,0.0,4.8409,4.8738,4.8962,0.0,0.0,0.0,0.0,0.0,0.0,5.0361,5.0676,5.0862,5.0862,5.0981,5.1191,5.1191,5.1191,5.1191,5.1191,5.1191,5.1191,5.1191,5.1191,5.1191,5.1191,5.1191,5.1191,5.1191,5.1191,5.1191,5.1191,5.1191,5.1191,5.1191,5.1191,5.1191,5.1191,5.1191,5.1191,5.1191,5.1191,5.1131,5.0907,5.0518,5.0084,4.9635,0.0,0.0,0.0,0.0,0.0,0.0,4.7174,4.7309,4.7309,4.7309,4.7309,4.7309,4.7309,4.7309,4.7309,4.7309,4.7309,4.7309,4.7309,4.7309,4.7309,4.7309,4.7309,4.7309,4.7309,4.7309,4.7309,4.7309,4.6851,4.604,4.604,4.5358,4.4093,4.3242,4.2641,4.2144,4.0856,4.0338,4.0287,3.9865,3.9697,3.9697,3.9697,3.9697,3.9697,4.7219,4.7309,4.7174,4.6719,4.6659,4.6794,4.7234,4.7309,4.7309,4.7309,4.7309,4.7309,4.7309,4.7309,4.7309,4.7309,4.7309,4.7399,4.7638,4.7653,4.7758,4.7997,4.8438,4.8663,0.0,0.0,0.0,0.0,0.0,4.9733,0.0,0.0,0.0,0.0,5.1011,5.1191,5.1191,5.1191,5.1191,5.1191,5.1191,5.1191,5.1191,5.1191,5.1191,5.1191,5.1191,5.1191,5.1191,5.1191,5.1191,5.1191,5.1191,5.1191,5.1191,5.1191,5.1191,5.1191,5.1191,5.1191,5.1191,5.1191,5.1191,5.1191,5.1191,5.1191,5.1191,5.1191,5.0862,5.0465,5.024,0.0,0.0,0.0,0.0,0.0,0.0,4.7309,4.7309,4.7309,4.7309,4.7309,4.7309,4.7309,4.7309,4.7309,4.7309,4.7309,4.7309,4.7309,4.7309,4.7309,4.7309,4.7309,4.7309,4.6851,4.6616,4.6616,4.6166,4.5516,4.4711,4.4711,4.4022,4.2786,4.1961,4.1344,4.0869,4.0032,3.9697,3.9697,3.9697,3.9697,3.9697,3.9697,3.9697,3.9697,4.7309,4.7309,4.7309,4.7309,4.7309,4.7309,4.7309,4.7309,4.7309,4.7309,4.7309,4.7309,4.7309,4.7339,4.7354,4.7354,4.7384,4.7668,4.8319,4.8364,4.8633,4.9262,4.9322,4.9337,4.9337,0.0,0.0,0.0,0.0,0.0,5.1191,0.0,0.0,0.0,5.1191,5.1191,5.1191,5.1191,5.1191,5.1191,5.1191,5.1191,5.1191,5.1191,5.1191,5.1191,5.1191,5.1191,5.1191,5.1191,5.1191,5.1191,5.1191,5.1191,5.1191,5.1191,5.1191,5.1191,5.1191,5.1191,5.1191,5.1191,5.1191,5.1191,5.1191,5.1191,5.1191,5.1191,5.1191,5.1011,5.0383,4.9748,0.0,0.0,0.0,0.0,0.0,4.7309,4.7309,4.7309,4.7309,4.7309,4.7309,4.7309,4.7309,4.7309,4.7309,4.7309,4.7309,4.7309,4.7309,4.7309,4.7309,4.7287,4.7207,4.6018,4.538,4.5275,4.4069,4.348,4.3409,4.3409,4.2714,4.1505,4.1505,4.0819,3.9697,3.9697,3.9697,3.9697,3.9697,3.9697,3.9697,3.9697,3.9697,3.9697,4.7309,4.7309,4.7309,4.7309,4.7309,4.7309,4.7309,4.7309,4.7309,4.7309,4.7309,4.7309,4.7309,4.7743,4.8027,4.8027,4.8498,4.8858,4.9022,4.9037,4.9112,4.9299,4.9733,4.9964,4.9964,5.0466,5.0795,5.0936,0.0,5.1026,5.1191,5.1191,5.1191,5.1191,5.1191,5.1191,5.1191,5.1191,5.1191,5.1191,5.1191,5.1191,5.1191,5.1191,5.1191,5.1191,5.1191,5.1191,5.1191,5.1191,5.1191,5.1191,5.1191,5.1191,5.1191,5.1191,5.1191,5.1191,5.1191,5.1191,5.1191,5.1191,5.1191,5.1191,5.1191,5.1191,5.1191,5.1191,5.1191,5.1146,5.0981,5.0413,0.0,0.0,0.0,0.0,0.0,4.7309,4.7309,4.7309,4.7309,4.7309,4.7309,4.7309,4.7309,4.7309,4.7309,4.7309,4.7309,4.7309,4.7309,4.7309,4.7309,4.6851,4.5906,4.5561,4.4918,4.3975,4.3669,4.3002,4.2095,4.2095,4.1381,4.0198,4.0198,4.0006,3.9697,3.9697,3.9697,3.9697,3.9697,3.9697,3.9697,3.9697,3.9697,3.9697,4.7743,4.7967,4.8162,4.8162,4.8162,4.7967,4.7399,4.7803,4.8057,4.7773,4.7982,4.8162,4.8162,4.8513,4.8738,4.8738,4.9082,4.9411,4.9673,4.9688,4.9823,5.013,5.0458,5.0652,5.0652,5.1011,0.0,5.1191,0.0,5.1191,5.1191,5.1191,5.1191,5.1191,5.1191,5.1191,5.1191,5.1191,5.1191,5.1191,5.1191,5.1191,0.0,5.1191,5.1191,5.1191,5.1191,5.1191,5.1191,5.1191,5.1191,5.1191,5.1191,5.1191,5.1191,5.1191,5.1191,5.1191,5.1191,5.1191,5.1191,5.1191,5.1191,5.1191,5.1191,5.1191,5.1191,5.1191,5.1191,5.1191,5.1191,5.0652,4.9905,0.0,0.0,0.0,4.7309,4.7309,4.7309,4.7309,4.7309,4.7309,4.7309,4.7309,4.7309,4.7309,4.7309,4.7309,4.7309,4.6785,4.6469,4.6469,4.5928,4.5275,4.4595,4.4022,4.3385,4.2665,4.2095,4.1455,4.0769,4.0769,4.0389,3.9697,3.9697,3.9697,3.9697,3.9697,3.9697,3.9697,3.9697,3.9697,3.9697,3.9697,3.9697,3.9697,4.8438,4.8753,4.9081,4.9269,4.9216,4.8813,4.7721,4.8558,4.9037,4.8276,4.8656,4.9013,4.9013,4.8936,4.9018,4.9389,4.935,4.9588,5.0285,5.0338,5.0592,5.1161,5.1191,5.1191,5.1191,5.1191,5.1191,0.0,0.0,5.1191,5.1191,5.1191,5.1191,5.1191,5.1191,5.1191,5.1191,5.1191,5.1191,5.1191,5.1191,5.1191,5.1191,5.1191,5.1191,5.1191,5.1191,5.1191,5.1191,5.1191,5.1191,5.1191,5.1191,5.1191,5.1191,5.1191,5.1191,5.1191,5.1191,5.1191,5.1191,5.1191,5.1191,5.1191,5.1191,5.1191,5.1191,5.1191,5.1191,5.1191,5.1191,5.0652,4.9815,4.8611,4.7863,4.7399,4.7309,4.7309,4.7309,4.7309,4.7309,0.0,4.7309,4.7309,4.7309,4.7309,4.7309,4.7309,4.7309,4.6084,4.5403,4.5403,4.4163,4.3432,4.3242,4.2144,4.153,4.1344,4.0224,3.9697,3.9697,3.9697,3.9697,3.9697,3.9697,3.9697,3.9697,3.9697,3.9697,3.9697,3.9697,3.9697,3.9697,3.9697,3.9697,3.9697,4.9112,4.8286,4.7928,4.9096,4.8816,4.8524,4.888,4.9142,4.884,4.7567,4.7499,4.7572,4.7572,4.701,4.7565,4.984,4.9545,4.9715,5.0941,5.1026,5.1071,5.1191,5.1191,5.1191,5.1191,5.1191,5.1191,5.1191,5.1191,0.0,0.0,5.1191,5.1191,5.1191,5.1191,5.1191,5.1191,5.1191,5.1191,5.1191,5.1191,5.1191,5.1191,5.1191,5.1191,5.1191,5.1191,5.1191,5.1191,5.1191,5.1191,5.1191,5.1191,5.1191,5.1191,5.1191,5.1191,5.1191,5.1191,5.1191,5.1191,5.1191,5.1191,5.1191,5.1191,5.1191,5.1191,5.1191,5.1191,5.1191,5.1191,5.0652,4.9964,4.9232,4.8558,4.7923,4.7384,4.7309,4.7309,4.7309,4.7309,4.7309,4.7309,4.7309,4.7309,4.7309,4.7309,4.7309,4.7309,4.6084,4.5403,4.5403,4.4163,4.3002,4.1936,4.1715,4.1082,4.0032,3.9813,3.9697,3.9697,3.9697,3.9697,3.9697,3.9697,3.9697,3.9697,3.9697,3.9697,3.9697,3.9697,3.9697,3.9697,3.9697,3.9697,3.9697,4.9169,4.8119,4.7803,4.9918,4.8803,4.7998,4.9083,4.8629,4.8052,4.776,4.7395,4.7137,4.7137,4.6815,4.7147,4.8481,4.895,4.947,5.0104,5.0807,5.1191,5.1191,5.1191,5.1191,5.1191,5.1191,5.1191,5.1191,5.0493,0.0,0.0,5.0493,5.0517,5.1191,5.1191,5.1191,5.1191,5.1191,5.1191,5.1191,5.1191,5.1191,5.1191,5.1191,5.1191,5.1191,5.1191,5.1191,5.1191,5.1191,5.1191,5.1191,5.1191,5.1191,5.1191,5.1191,5.1191,5.1191,5.1191,5.1191,5.1191,5.1191,5.1191,5.1191,5.1191,5.1191,5.1191,5.1191,5.1191,5.1191,5.1191,5.0652,4.9994,4.9396,4.8738,4.8079,4.7399,4.7309,4.7309,4.7309,4.6704,4.6572,4.7229,4.6704,4.6299,4.6299,4.6299,4.604,4.5358,4.4116,4.3432,4.3432,4.2193,4.1219,4.063,4.0605,4.0313,3.9697,3.9697,3.9697,3.9697,3.9697,3.9697,3.9697,3.9697,3.9697,3.9697,3.9697,3.9697,3.9697,3.9697,3.9697,3.9697,3.9697,3.9697,3.9697,4.8702,4.7873,4.7771,4.996,4.8275,4.712,4.8539,4.7568,4.6852,4.7437,4.7008,4.6643,4.6643,4.6409,4.6461,4.7043,4.7847,4.8439,4.8713,4.9752,5.0335,5.0335,5.0335,5.0469,5.0784,5.0784,5.0917,5.1191,4.9849,4.9873,5.1167,4.9824,4.9936,5.1191,5.1191,5.1191,5.1167,5.0902,5.0941,5.1167,5.0878,5.0784,5.0807,5.1097,5.0831,5.0421,5.0988,5.1011,5.0831,5.1097,5.1191,5.1191,5.1191,5.1191,5.1191,5.1191,5.1191,5.1191,5.1191,5.1191,5.1191,5.1191,5.1191,5.1191,5.1191,5.1191,5.1191,5.1191,5.1191,5.1191,5.1191,5.0772,5.0174,4.9411,4.8858,4.8141,4.7057,4.7142,4.7099,4.6572,4.6084,4.5995,4.6447,4.5824,4.5184,4.4642,4.5092,4.4826,4.3575,4.229,4.1604,4.1604,4.0364,3.9697,3.9697,3.9697,3.9697,3.9697,3.9697,3.9697,3.9697,3.9697,3.9697,3.9697,3.9697,3.9697,3.9697,3.9697,3.9697,3.9697,3.9697,3.9697,3.9697,3.9697,3.9697,3.9697,4.7515,4.7197,4.7171,4.7427,4.6226,4.5661,4.7069,4.6095,4.5236,4.5276,4.5236,4.5195,4.5195,4.4113,4.44,4.6863,4.6043,4.5912,4.7197,4.7402,4.7492,4.7492,4.7492,4.8074,4.9357,4.9382,4.9984,5.1191,4.9849,4.9873,5.1167,4.9824,4.9936,5.1191,5.1191,5.1191,5.112,4.9897,5.008,5.1097,4.9873,4.9382,4.9518,5.0736,4.964,4.7822,5.0311,5.0421,4.9567,5.0784,5.1191,5.1191,5.1191,5.1191,5.1191,5.1191,5.1191,5.1191,5.1191,5.1191,5.1191,5.1191,5.1191,5.1191,5.1191,5.1191,5.1191,5.1191,5.1191,5.1191,5.1191,5.1146,5.072,4.9501,4.9247,4.8365,4.593,4.6572,4.6447,4.4139,4.5779,4.6255,4.4069,4.478,4.4442,4.2119,4.4093,4.4826,4.3575,4.229,4.1604,4.1604,4.0364,3.9697,3.9697,3.9697,3.9697,3.9697,3.9697,3.9697,3.9697,3.9697,3.9697,3.9697,3.9697,3.9697,3.9697,3.9697,3.9697,3.9697,3.9697,3.9697,3.9697,3.9697,3.9697,3.9697,4.5938,4.5195,4.5169,4.6811,4.5276,4.4277,4.5634,4.4684,4.381,4.381,4.381,4.381,4.381,4.331,4.3449,4.4522,4.486,4.5249,4.5793,4.6643,4.7094,4.7094,4.7094,4.735,4.7923,4.7948,4.82,4.8738,4.735,4.7376,4.8713,4.8175,4.9112,5.1167,5.0373,5.0008,4.9897,4.8539,4.825,4.8688,4.815,4.7948,4.7999,4.8539,4.8049,4.7223,4.8339,4.8389,4.8024,4.8564,4.9849,5.1191,5.1191,5.1191,5.1191,5.1191,5.1191,5.1191,5.1191,5.1191,5.1191,5.1191,5.1191,5.1191,5.1191,5.1191,5.1191,5.1191,5.1191,5.1191,5.1191,5.054,4.9969,4.985,4.82,4.6699,4.608,4.5413,4.4642,4.3622,4.3717,4.3787,4.3527,4.3266,4.2689,4.1665,4.2558,4.2544,4.1294,4.0743,4.0453,4.0453,3.9981,3.9697,3.9697,3.9697,3.9697,3.9697,3.9697,3.9697,3.9697,3.9697,3.9697,3.9697,3.9697,3.9697,3.9697,3.9697,3.9697,3.9697,3.9697,3.9697,3.9697,3.9697,3.9697,3.9697,4.4508,4.3962,4.4086,4.5608,4.4291,4.331,4.4277,4.3602,4.3002,4.3002,4.3002,4.3002,4.3002,4.3002,4.3002,4.3002,4.3852,4.44,4.44,4.5356,4.5899,4.5899,4.5899,4.6069,4.6461,4.6487,4.6695,4.7094,4.5687,4.5714,4.7094,4.7094,4.8125,4.996,4.8999,4.8589,4.8489,4.7069,4.6721,4.7043,4.6643,4.6487,4.6539,4.694,4.6617,4.599,4.6811,4.6811,4.6565,4.6966,4.8389,5.0056,5.0469,5.0603,5.0603,5.0603,5.0311,5.008,5.0493,5.0311,5.0191,5.0988,5.0902,5.0722,5.112,5.0878,5.0493,5.008,5.0311,5.0493,5.0056,4.921,4.8661,4.8955,4.705,4.5458,4.5234,4.4363,4.3386,4.2498,4.2241,4.2217,4.2363,4.1912,4.143,4.1082,4.1032,4.0642,3.9736,3.9697,3.9697,3.9697,3.9697,3.9697,3.9697,3.9697,3.9697,3.9697,3.9697,3.9697,3.9697,3.9697,3.9697,3.9697,3.9697,3.9697,3.9697,3.9697,3.9697,3.9697,3.9697,3.9697,3.9697,3.9697,3.9697,3.9697,4.3295,4.4086,4.4576,4.3295,4.303,4.3002,4.303,4.3002,4.3002,4.3002,4.3002,4.3002,4.3002,4.3002,4.3002,4.3002,4.3002,4.303,4.303,4.303,4.3058,4.3058,4.3058,4.3672,4.4994,4.5021,4.5714,4.7094,4.5687,4.5714,4.7094,4.7094,4.712,4.7146,4.712,4.712,4.7017,4.5608,4.5846,4.6966,4.5581,4.5021,4.5169,4.6565,4.5409,4.3421,4.6122,4.62,4.5249,4.6643,4.712,4.7376,4.8802,4.921,4.921,4.921,4.8225,4.7453,4.8851,4.82,4.7797,5.0517,5.0191,4.9567,5.0902,5.0191,4.8826,4.7427,4.825,4.8802,4.7402,4.7146,4.6901,4.6243,4.6121,4.5241,4.2797,4.3496,4.3157,4.0121,4.1961,4.2485,3.9981,4.0856,4.1082,3.9813,3.9723,3.9723,3.9697,3.9697,3.9697,3.9697,3.9697,3.9697,3.9697,3.9697,3.9697,3.9697,3.9697,3.9697,3.9697,3.9697,3.9697,3.9697,3.9697,3.9697,3.9697,3.9697,3.9697,3.9697,3.9697,3.9697,3.9697,3.9697,3.9697,3.9697,4.3085,4.3338,4.3492,4.3085,4.3002,4.3002,4.3002,4.3002,4.3002,4.3002,4.3002,4.3002,4.3002,4.3002,4.3002,4.3002,4.3002,4.3002,4.3002,4.3002,4.3002,4.3002,4.3002,4.3212,4.363,4.3657,4.3852,4.4291,4.3852,4.4318,4.5661,4.5661,4.6174,4.7043,4.6095,4.5661,4.5581,4.4222,4.3907,4.4277,4.3837,4.3657,4.3672,4.414,4.3755,4.3113,4.3989,4.4016,4.37,4.414,4.4914,4.574,4.62,4.6991,4.7771,4.7771,4.7453,4.7197,4.7645,4.7427,4.7299,4.8175,4.8074,4.7873,4.8314,4.8074,4.7645,4.7197,4.7466,4.7645,4.7171,4.6331,4.591,4.6667,4.4888,4.3374,4.311,4.2292,4.1209,3.9851,4.0415,4.0605,3.9788,4.0083,4.0147,3.9723,3.9697,3.9697,3.9697,3.9697,3.9697,3.9697,3.9697,3.9697,3.9697,3.9697,3.9697,3.9697,3.9697,3.9697,3.9697,3.9697,3.9697,3.9697,3.9697,3.9697,3.9697,3.9697,3.9697,3.9697,3.9697,3.9697,3.9697,3.9697,3.9697,3.9697,4.3002,4.3002,4.3002,4.3002,4.3002,4.3002,4.3002,4.3002,4.3002,4.3002,4.3002,4.3002,4.3002,4.3002,4.3002,4.3002,4.3002,4.3002,4.3002,4.3002,4.3002,4.3002,4.3002,4.3002,4.3002,4.3002,4.3002,4.3002,4.3002,4.3421,4.4249,4.4249,4.4711,4.5528,4.463,4.4249,4.4195,4.3366,4.3002,4.3002,4.3002,4.3002,4.3002,4.3002,4.3002,4.3002,4.3002,4.3002,4.3002,4.3002,4.3547,4.4249,4.4249,4.4833,4.5661,4.6148,4.5938,4.5661,4.6174,4.5938,4.582,4.6837,4.6695,4.6305,4.6305,4.6721,4.6811,4.5767,4.5964,4.6148,4.5661,4.4833,4.4522,4.5435,4.3843,4.2602,4.2901,4.1713,4.06,4.0074,3.9823,3.9697,3.9697,3.9697,3.9697,3.9697,3.9697,3.9697,3.9697,3.9697,3.9697,3.9697,3.9697,3.9697,3.9697,3.9697,3.9697,3.9697,3.9697,3.9697,3.9697,3.9697,3.9697,3.9697,3.9697,3.9697,3.9697,3.9697,3.9697,3.9697,3.9697,3.9697,3.9697,3.9697,3.9697,3.9697,4.3002,4.3002,4.3002,4.3002,4.3002,4.3002,4.3002,4.3002,4.3002,4.3002,4.3002,4.3002,4.3002,4.3002,4.3002,4.3002,4.3002,4.3002,4.3002,4.3002,4.3002,4.3002,4.3002,4.3002,4.3002,4.3002,4.3002,4.3002,4.3002,4.3002,4.3002,4.3002,4.3002,4.3002,4.3002,4.3002,4.3002,4.3002,4.3002,4.3002,4.3002,4.3002,4.3002,4.3002,4.3002,4.3002,4.3002,4.3002,4.3002,4.3002,4.3002,4.3002,4.3002,4.3002,4.324,4.4508,4.3989,4.3268,4.4535,4.3962,4.3602,4.6174,4.5846,4.486,4.486,4.5872,4.6095,4.3519,4.3989,4.4481,4.324,4.3002,4.3002,4.3002,4.3002,4.2813,4.2288,4.1718,4.1152,4.0562,4.0061,3.9735,3.9697,3.9697,3.9697,3.9697,3.9697,3.9697,3.9697,3.9697,3.9697,3.9697,3.9697,3.9697,3.9697,3.9697,3.9697,3.9697,3.9697,3.9697,3.9697,3.9697,3.9697,3.9697,3.9697,3.9697,3.9697,3.9697,3.9697,3.9697,3.9697,3.9697,3.9697,3.9697,3.9697,3.9697,4.3002,4.3002,4.3002,4.3002,4.3002,4.3002,4.3002,4.3002,4.3002,4.3002,4.3002,4.3002,4.3002,4.3002,4.3002,4.3002,4.3002,4.3002,4.3002,4.3002,4.3002,4.3002,4.3002,4.3002,4.3002,4.3002,4.3002,4.3002,4.3002,4.3002,4.3002,4.3002,4.3002,4.3002,4.3002,4.3002,4.3002,4.3002,4.3002,4.3002,4.3002,4.3002,4.3002,4.3002,4.3002,4.3002,4.3002,4.3002,4.3002,4.3002,4.3002,4.3002,4.3002,4.3002,4.3058,4.3366,4.324,4.3085,4.3394,4.324,4.3156,4.381,4.3727,4.3477,4.3477,4.3727,4.3782,4.3129,4.324,4.3366,4.3058,4.3002,4.3002,4.3002,4.3002,4.2813,4.2288,4.2072,4.1632,4.0626,4.04,4.0162,3.9735,3.9697,3.9697,3.9697,3.9697,3.9697,3.9697,3.9697,3.9697,3.9697,3.9697,3.9697,3.9697,3.9697,3.9697,3.9697,3.9697,3.9697,3.9697,3.9697,3.9697,3.9697,3.9697,3.9697,3.9697,3.9697,3.9697,3.9697,3.9697,3.9697,3.9697,3.9697,3.9697,3.9697,4.3002,4.3002,4.3002,4.3002,4.3002,4.3002,4.3002,4.3002,4.3002,4.3002,4.3002,4.3002,4.3002,4.3002,4.3002,4.3002,4.3002,4.3002,4.3002,4.3002,4.3002,4.3002,4.3002,4.3002,4.3002,4.3002,4.3002,4.3002,4.3002,4.3002,4.3002,4.3002,4.3002,4.3002,4.3002,4.3002,4.3002,4.3002,4.3002,4.3002,4.3002,4.3002,4.3002,4.3002,4.3002,4.3002,4.3002,4.3002,4.3002,4.3002,4.3002,4.3002,4.3002,4.3002,4.3002,4.3002,4.3002,4.3002,4.3002,4.3002,4.3002,4.3002,4.3002,4.3002,4.3002,4.3002,4.3002,4.3002,4.3002,4.3002,4.3002,4.3002,4.3002,4.3002,4.3002,4.2901,4.26,4.2336,4.1959,4.1369,4.0827,4.04,4.0099,3.9835,3.9697,3.9697,3.9697,3.9697,3.9697,3.9697,3.9697,3.9697,3.9697,3.9697,3.9697,3.9697,3.9697,3.9697,3.9697,3.9697,3.9697,3.9697,3.9697,3.9697,3.9697,3.9697,3.9697,3.9697,3.9697,3.9697,3.9697,3.9697,3.9697,3.9697,3.9697,3.9697,4.3002,4.3002,4.3002,4.3002,4.3002,4.3002,4.3002,4.3002,4.3002,4.3002,4.3002,4.3002,4.3002,4.3002,4.3002,4.3002,4.3002,4.3002,4.3002,4.3002,4.3002,4.3002,4.3002,4.3002,4.3002,4.3002,4.3002,4.3002,4.3002,4.3002,4.3002,4.3002,4.3002,4.3002,4.3002,4.3002,4.3002,4.3002,4.3002,4.3002,4.3002,4.3002,4.3002,4.3002,4.3002,4.3002,4.3002,4.3002,4.3002,4.3002,4.3002,4.3002,4.3002,4.3002,4.3002,4.3002,4.3002,4.3002,4.3002,4.3002,4.3002,4.3002,4.3002,4.3002,4.3002,4.3002,4.3002,4.3002,4.3002,4.3002,4.3002,4.3002,4.3002,4.3002,4.3002,4.3002,4.3002,4.26,4.2301,4.2213,4.1369,4.0701,4.0512,4.0099,3.9785,3.9697,3.9697,3.9697,3.9697,3.9697,3.9697,3.9697,3.9697,3.9697,3.9697,3.9697,3.9697,3.9697,3.9697,3.9697,3.9697,3.9697,3.9697,3.9697,3.9697,3.9697,3.9697,3.9697,3.9697,3.9697,3.9697,3.9697,3.9697,3.9697,3.9697,3.9697,4.3002,4.3002,4.3002,4.3002,4.3002,4.3002,4.3002,4.3002,4.3002,4.3002,4.3002,4.3002,4.3002,4.3002,4.3002,4.3002,4.3002,4.3002,4.3002,4.3002,4.3002,4.3002,4.3002,4.3002,4.3002,4.3002,4.3002,4.3002,4.3002,4.3002,4.3002,4.3002,4.3002,4.3002,4.3002,4.3002,4.3002,4.3002,4.3002,4.3002,4.3002,4.3002,4.3002,4.3002,4.3002,4.3002,4.3002,4.3002,4.3002,4.3002,4.3002,4.3002,4.3002,4.3002,4.3002,4.3002,4.3002,4.3002,4.3002,4.3002,4.3002,4.3002,4.3002,4.3002,4.3002,4.3002,4.3002,4.3002,4.3002,4.3002,4.3002,4.3002,4.3002,4.3002,4.3002,4.3002,4.3002,4.2926,4.27,4.2235,4.2034,4.1557,4.0601,4.0411,4.0199,3.9722,3.9697,3.9697,3.9697,3.9697,3.9697,3.9697,3.9697,3.9697,3.9697,3.9697,3.9697,3.9697,3.9697,3.9697,3.9697,3.9697,3.9697,3.9697,3.9697,3.9697,3.9697,3.9697,3.9697,3.9697,3.9697,3.9697,3.9697,3.9697,3.9697,3.9697,4.3002,4.3002,4.3002,4.3002,4.3002,4.3002,4.3002,4.3002,4.3002,4.3002,4.3002,4.3002,4.3002,4.3002,4.3002,4.3002,4.3002,4.3002,4.3002,4.3002,4.3002,4.3002,4.3002,4.3002,4.3002,4.3002,4.3002,4.3002,4.3002,4.3002,4.3002,4.3002,4.3002,4.3002,4.3002,4.3002,4.3002,4.3002,4.3002,4.3002,4.3002,4.3002,4.3002,4.3002,4.3002,4.3002,4.3002,4.3002,4.3002,4.3002,4.3002,4.3002,4.3002,4.3002,4.3002,4.3002,4.3002,4.3002,4.3002,4.3002,4.3002,4.3002,4.3002,4.3002,4.3002,4.3002,4.3002,4.3002,4.3002,4.3002,4.3002,4.3002,4.3002,4.3002,4.3002,4.3002,4.3002,4.3002,4.2914,4.2663,4.2389,4.1984,4.1482,4.1128,4.07,4.0174,4.0136,4.0011,3.971,3.9697,3.9697,3.9697,3.9697,3.9697,3.9697,3.9697,3.9697,3.9697,3.9697,3.9697,3.9697,3.9697,3.9697,3.9697,3.9697,3.9697,3.9697,3.9697,3.9697,3.9697,3.9697,3.9697,3.9697,3.9697,3.9697,3.9697,4.3002,4.3002,4.3002,4.3002,4.3002,4.3002,4.3002,4.3002,4.3002,4.3002,4.3002,4.3002,4.3002,4.3002,4.3002,4.3002,4.3002,4.3002,4.3002,4.3002,4.3002,4.3002,4.3002,4.3002,4.3002,4.3002,4.3002,4.3002,4.3002,4.3002,4.3002,4.3002,4.3002,4.3002,4.3002,4.3002,4.3002,4.3002,4.3002,4.3002,4.3002,4.3002,4.3002,4.3002,4.3002,4.3002,4.3002,4.3002,4.3002,4.3002,4.3002,4.3002,4.3002,4.3002,4.3002,4.3002,4.3002,4.3002,4.3002,4.3002,4.3002,4.3002,4.3002,4.3002,4.3002,4.3002,4.3002,4.3002,4.3002,4.3002,4.3002,4.3002,4.3002,4.3002,4.3002,4.3002,4.3002,4.3002,4.3002,4.3002,4.2637,4.2351,4.2225,4.1769,4.1277,4.0725,4.0688,4.0437,3.991,3.9885,3.9823,3.9697,3.9697,3.9697,3.9697,3.9697,3.9697,3.9697,3.9697,3.9697,3.9697,3.9697,3.9697,3.9697,3.9697,3.9697,3.9697,3.9697,3.9697,3.9697,3.9697,3.9697,3.9697,3.9697,3.9697,3.9697,4.3002,4.3002,4.3002,4.3002,4.3002,4.3002,4.3002,4.3002,4.3002,4.3002,4.3002,4.3002,4.3002,4.3002,4.3002,4.3002,4.3002,4.3002,4.3002,4.3002,4.3002,4.3002,4.3002,4.3002,4.3002,4.3002,4.3002,4.3002,4.3002,4.3002,4.3002,4.3002,4.3002,4.3002,4.3002,4.3002,4.3002,4.3002,4.3002,4.3002,4.3002,4.3002,4.3002,4.3002,4.3002,4.3002,4.3002,4.3002,4.3002,4.3002,4.3002,4.3002,4.3002,4.3002,4.3002,4.3002,4.3002,4.3002,4.3002,4.3002,4.3002,4.3002,4.3002,4.3002,4.3002,4.3002,4.3002,4.3002,4.3002,4.3002,4.3002,4.3002,4.3002,4.3002,4.3002,4.3002,4.3002,4.3002,4.3002,4.3002,4.2977,4.275,4.2263,4.2175,4.1896,4.129,4.1225,4.1014,4.0462,4.0437,4.0224,3.971,3.9697,3.9697,3.9697,3.9697,3.9697,3.9697,3.9697,3.9697,3.9697,3.9697,3.9697,3.9697,3.9697,3.9697,3.9697,3.9697,3.9697,3.9697,3.9697,3.9697,3.9697,3.9697,3.9697,3.9697,4.3002,4.3002,4.3002,4.3002,4.3002,4.3002,4.3002,4.3002,4.3002,4.3002,4.3002,4.3002,4.3002,4.3002,4.3002,4.3002,4.3002,4.3002,4.3002,4.3002,4.3002,4.3002,4.3002,4.3002,4.3002,4.3002,4.3002,4.3002,4.3002,4.3002,4.3002,4.3002,4.3002,4.3002,4.3002,4.3002,4.3002,4.3002,4.3002,4.3002,4.3002,4.3002,4.3002,4.3002,4.3002,4.3002,4.3002,4.3002,4.3002,4.3002,4.3002,4.3002,4.3002,4.3002,4.3002,4.3002,4.3002,4.3002,4.3002,4.3002,4.3002,4.3002,4.3002,4.3002,4.3002,4.3002,4.3002,4.3002,4.3002,4.3002,4.3002,4.3002,4.3002,4.3002,4.3002,4.3002,4.3002,4.3002,4.3002,4.3002,4.3002,4.2926,4.2713,4.27,4.2462,4.1894,4.1844,4.1605,4.1026,4.1001,4.075,4.0224,4.0212,4.0036,3.9697,3.9697,3.9697,3.9697,3.9697,3.9697,3.9697,3.9697,3.9697,3.9697,3.9697,3.9193,3.8334,3.8334,3.7808,3.6969,3.6969,3.7542,3.8334,3.8334,3.8908,3.9697,4.3002,4.3002,4.3002,4.3002,4.3002,4.3002,4.3002,4.3002,4.3002,4.3002,4.3002,4.3002,4.3002,4.3002,4.3002,4.3002,4.3002,4.3002,4.3002,4.3002,4.3002,4.3002,4.3002,4.3002,4.3002,4.3002,4.3002,4.3002,4.3002,4.3002,4.3002,4.3002,4.3002,4.3002,4.3002,4.3002,4.3002,4.3002,4.3002,4.3002,4.3002,4.3002,4.3002,4.3002,4.3002,4.3002,4.3002,4.3002,4.3002,4.3002,4.3002,4.3002,4.3002,4.3002,4.3002,4.3002,4.3002,4.3002,4.3002,4.3002,4.3002,4.3002,4.3002,4.3002,4.3002,4.3002,4.3002,4.3002,4.3002,4.3002,4.3002,4.3002,4.3002,4.3002,4.3002,4.3002,4.3002,4.3002,4.3002,4.3002,4.3002,4.3002,4.3002,4.3002,4.2851,4.2474,4.2436,4.2198,4.1603,4.1403,4.1139,4.0763,4.075,4.0562,4.0212,3.9873,3.9697,3.9697,3.9697,3.9697,3.9697,3.9697,3.9439,3.9025,3.9025,3.8163,3.6811,3.6811,3.6217,3.5288,3.5288,3.619,3.7438,3.6972,3.8031,3.9633,4.3002,4.3002,4.3002,4.3002,4.3002,4.3002,4.3002,4.3002,4.3002,4.3002,4.3002,4.3002,4.3002,4.3002,4.3002,4.3002,4.3002,4.3002,4.3002,4.3002,4.3002,4.3002,4.3002,4.3002,4.3002,4.3002,4.3002,4.3002,4.3002,4.3002,4.3002,4.3002,4.3002,4.3002,4.3002,4.3002,4.3002,4.3002,4.3002,4.3002,4.3002,4.3002,4.3002,4.3002,4.3002,4.3002,4.3002,4.3002,4.3002,4.3002,4.3002,4.3002,4.3002,4.3002,4.3002,4.3002,4.3002,4.3002,4.3002,4.3002,4.3002,4.3002,4.3002,4.3002,4.3002,4.3002,4.3002,4.3002,4.3002,4.3002,4.3002,4.3002,4.3002,4.3002,4.3002,4.3002,4.3002,4.3002,4.3002,4.3002,4.3002,4.3002,4.3002,4.3002,4.3002,4.3002,4.3002,4.2763,4.2238,4.1643,4.1327,4.1327,4.1327,4.1315,4.1315,4.0249,3.9697,3.9697,3.9697,3.9697,3.9697,3.9697,3.8882,3.7492,3.7492,3.6649,3.5288,3.5288,3.5272,3.5261,3.5261,3.6162,3.7305,3.5836,3.7156,3.9478,4.3002,4.3002,4.3002,4.3002,4.3002,4.3002,4.3002,4.3002,4.3002,4.3002,4.3002,4.3002,4.3002,4.3002,4.3002,4.3002,4.3002,4.3002,4.3002,4.3002,4.3002,4.3002,4.3002,4.3002,4.3002,4.3002,4.3002,4.3002,4.3002,4.3002,4.3002,4.3002,4.3002,4.3002,4.3002,4.3002,4.3002,4.3002,4.3002,4.3002,4.3002,4.3002,4.3002,4.3002,4.3002,4.3002,4.3002,4.3002,4.3002,4.3002,4.3002,4.3002,4.3002,4.3002,4.3002,4.3002,4.3002,4.3002,4.3002,4.3002,4.3002,4.3002,4.3002,4.3002,4.3002,4.3002,4.3002,4.3002,4.3002,4.3002,4.3002,4.3002,4.3002,4.3002,4.3002,4.3002,4.3002,4.3002,4.3002,4.3002,4.3002,4.3002,4.3002,4.3002,4.3002,4.3002,4.3002,4.2926,4.2763,4.2572,4.2308,4.1946,4.1934,4.1731,4.1315,4.06,4.0275,4.0275,3.9873,3.9697,3.9659,3.8635,3.7914,3.7438,3.6406,3.5112,3.3772,3.3772,3.3145,3.2217,3.2217,3.3116,3.4476,3.5068,3.5875,3.6688,4.3002,4.3002,4.3002,4.3002,4.3002,4.3002,4.3002,4.3002,4.3002,4.3002,4.3002,4.3002,4.3002,4.3002,4.3002,4.3002,4.3002,4.3002,4.3002,4.3002,4.3002,4.3002,4.3002,4.3002,4.3002,4.3002,4.3002,4.3002,4.3002,4.3002,4.3002,4.3002,4.3002,4.3002,4.3002,4.3002,4.3002,4.3002,4.3002,4.3002,4.3002,4.3002,4.3002,4.3002,4.3002,4.3002,4.3002,4.3002,4.3002,4.3002,4.3002,4.3002,4.3002,4.3002,4.3002,4.3002,4.3002,4.3002,4.3002,4.3002,4.3002,4.3002,4.3002,4.3002,4.3002,4.3002,4.3002,4.3002,4.3002,4.3002,4.3002,4.3002,4.3002,4.3002,4.3002,4.3002,4.3002,4.3002,4.3002,4.3002,4.3002,4.3002,4.3002,4.3002,4.3002,4.3002,4.3002,4.3002,4.3002,4.3002,4.2851,4.2524,4.2512,4.2348,4.1967,4.1442,4.1053,4.0813,3.9842,3.9365,3.9312,3.7839,3.6831,3.6199,3.5117,3.3824,3.2452,3.2307,3.171,3.0889,3.0889,3.1796,3.3134,3.3445,3.4303,3.5343,4.3002,4.3002,4.3002,4.3002,4.3002,4.3002,4.3002,4.3002,4.3002,4.3002,4.3002,4.3002,4.3002,4.3002,4.3002,4.3002,4.3002,4.3002,4.3002,4.3002,4.3002,4.3002,4.3002,4.3002,4.3002,4.3002,4.3002,4.3002,4.3002,4.3002,4.3002,4.3002,4.3002,4.3002,4.3002,4.3002,4.3002,4.3002,4.3002,4.3002,4.3002,4.3002,4.3002,4.3002,4.3002,4.3002,4.3002,4.3002,4.3002,4.3002,4.3002,4.3002,4.3002,4.3002,4.3002,4.3002,4.3002,4.3002,4.3002,4.3002,4.3002,4.3002,4.3002,4.3002,4.3002,4.3002,4.3002,4.3002,4.3002,4.3002,4.3002,4.3002,4.3002,4.3002,4.3002,4.3002,4.3002,4.3002,4.3002,4.3002,4.3002,4.3002,4.3002,4.3002,4.3002,4.3002,4.3002,4.3002,4.3002,4.3002,4.3002,4.3002,4.2862,4.2793,4.2793,4.2155,4.1604,4.1149,3.9639,3.8832,3.8637,3.7116,3.566,3.4362,3.3797,3.2804,3.1513,3.1162,3.1006,3.1006,3.1006,3.183,3.2872,3.1666,3.2836,3.4841,4.3002,4.3002,4.3002,4.3002,4.3002,4.3002,4.3002,4.3002,4.3002,4.3002,4.3002,4.3002,4.3002,4.3002,4.3002,4.3002,4.3002,4.3002,4.3002,4.3002,4.3002,4.3002,4.3002,4.3002,4.3002,4.3002,4.3002,4.3002,4.3002,4.3002,4.3002,4.3002,4.3002,4.3002,4.3002,4.3002,4.3002,4.3002,4.3002,4.3002,4.3002,4.3002,4.3002,4.3002,4.3002,4.3002,4.3002,4.3002,4.3002,4.3002,4.3002,4.3002,4.3002,4.3002,4.3002,4.3002,4.3002,4.3002,4.3002,4.3002,4.3002,4.3002,4.3002,4.3002,4.3002,4.3002,4.3002,4.3002,4.3002,4.3002,4.3002,4.3002,4.3002,4.3002,4.3002,4.3002,4.3002,4.3002,4.3002,4.3002,4.3002,4.3002,4.3002,4.3002,4.3002,4.3002,4.3002,4.3002,4.3002,4.3002,4.3002,4.3002,4.1785,4.1133,4.1133,3.9738,3.9435,4.0114,3.9296,3.8274,3.7059,3.5573,3.4707,3.4324,3.3064,3.2344,3.2052,3.1964,3.1925,3.1925,3.1925,3.2116,3.2485,3.3326,3.3307,3.2833,4.3002,4.3002,4.3002,4.3002,4.3002,4.3002,4.3002,4.3002,4.3002,4.3002,4.3002,4.3002,4.3002,4.3002,4.3002,4.3002,4.3002,4.3002,4.3002,4.3002,4.3002,4.3002,4.3002,4.3002,4.3002,4.3002,4.3002,4.3002,4.3002,4.3002,4.3002,4.3002,4.3002,4.3002,4.3002,4.3002,4.3002,4.3002,4.3002,4.3002,4.3002,4.3002,4.3002,4.3002,4.3002,4.3002,4.3002,4.3002,4.3002,4.3002,4.3002,4.3002,4.3002,4.3002,4.3002,4.3002,4.3002,4.3002,4.3002,4.3002,4.3002,4.3002,4.3002,4.3002,4.3002,4.3002,4.3002,4.3002,4.3002,4.3002,4.3002,4.3002,4.3002,4.3002,4.3002,4.3002,4.3002,4.3002,4.3002,4.3002,4.3002,4.3002,4.3002,4.3002,4.3002,4.3002,4.3002,4.3002,4.3002,4.2263,4.187,4.187,4.0303,3.9464,3.9464,3.8609,3.8119,3.7897,3.7569,3.7019,3.6186,3.4631,3.3923,3.3852,3.2897,3.2501,3.2482,3.2286,3.2198,3.2198,3.2198,3.2198,3.228,3.3085,3.2855,3.2198,4.3002,4.3002,4.3002,4.3002,4.3002,4.3002,4.3002,4.3002,4.3002,4.3002,4.3002,4.3002,4.3002,4.3002,4.3002,4.3002,4.3002,4.3002,4.3002,4.3002,4.3002,4.3002,4.3002,4.3002,4.3002,4.3002,4.3002,4.3002,4.3002,4.3002,4.3002,4.3002,4.3002,4.3002,4.3002,4.3002,4.3002,4.3002,4.3002,4.3002,4.3002,4.3002,4.3002,4.3002,4.3002,4.3002,4.3002,4.3002,4.3002,4.3002,4.3002,4.3002,4.3002,4.3002,4.3002,4.3002,4.3002,4.3002,4.3002,4.3002,4.3002,4.3002,4.3002,4.3002,4.3002,4.3002,4.3002,4.3002,4.3002,4.3002,4.3002,4.3002,4.3002,4.3002,4.3002,4.3002,4.3002,4.3002,4.3002,4.3002,4.3002,4.3002,4.3002,4.3002,4.3002,4.3002,4.2737,4.2585,4.2585,4.1064,4.0175,4.0175,3.8639,3.7794,3.7794,3.7536,3.6721,3.5386,3.5386,3.5386,3.5355,3.4017,3.3386,3.3377,3.3057,3.29,3.2871,3.2529,3.2413,3.2413,3.2413,3.2413,3.2413,3.2413,3.2413,3.2413,4.3002,4.3002,4.3002,4.3002,4.3002,4.3002,4.3002,4.3002,4.3002,4.3002,4.3002,4.3002,4.3002,4.3002,4.3002,4.3002,4.3002,4.3002,4.3002,4.3002,4.3002,4.3002,4.3002,4.3002,4.3002,4.3002,4.3002,4.3002,4.3002,4.3002,4.3002,4.3002,4.3002,4.3002,4.3002,4.3002,4.3002,4.3002,4.3002,4.3002,4.3002,4.3002,4.3002,4.3002,4.3002,4.3002,4.3002,4.3002,4.3002,4.3002,4.3002,4.3002,4.3002,4.3002,4.3002,4.3002,4.3002,4.3002,4.3002,4.3002,4.3002,4.3002,4.3002,4.3002,4.3002,4.3002,4.3002,4.3002,4.3002,4.3002,4.3002,4.3002,4.3002,4.3002,4.3002,4.3002,4.3002,4.3002,4.3002,4.3002,4.3002,4.3002,4.3002,4.3002,4.3002,4.3002,4.1716,4.0921,4.0921,3.9405,3.8521,3.8521,3.6952,3.6132,3.6132,3.4736,3.3933,3.3713,3.3713,3.3713,3.3723,3.3513,3.3386,3.3386,3.3328,3.3308,3.3299,3.3271,3.3252,3.3252,3.3252,3.3252,3.3252,3.3252,3.3252,3.3252,4.3002,4.3002,4.3002,4.3002,4.3002,4.3002,4.3002,4.3002,4.3002,4.3002,4.3002,4.3002,4.3002,4.3002,4.3002,4.3002,4.3002,4.3002,4.3002,4.3002,4.3002,4.3002,4.3002,4.3002,4.3002,4.3002,4.3002,4.3002,4.3002,4.3002,4.3002,4.3002,4.3002,4.3002,4.3002,4.3002,4.3002,4.3002,4.3002,4.3002,4.3002,4.3002,4.3002,4.3002,4.3002,4.3002,4.3002,4.3002,4.3002,4.3002,4.3002,4.3002,4.3002,4.3002,4.3002,4.3002,4.3002,4.3002,4.3002,4.3002,4.3002,4.3002,4.3002,4.3002,4.3002,4.3002,4.3002,4.3002,4.3002,4.3002,4.3002,4.3002,4.3002,4.3002,4.3002,4.3002,4.3002,4.3002,4.3002,4.3002,4.3002,4.3002,4.3002,4.2206,4.1659,4.1659,4.0187,3.9258,3.9258,3.7723,3.6861,3.6861,3.5304,3.4466,3.4466,3.3745,3.3386,3.3386,3.3386,3.3386,3.3386,3.3386,3.3386,3.3386,3.3386,3.3386,3.3386,3.3386,3.3386,3.3386,3.3386,3.3386,3.3386,3.3386,3.3386,3.3386]},{"header":{"parameterUnit":"m.s-1","parameterCategory":1,"la1":30.6,"la2":28.766,"lo1":-90.7593,"lo2":-88.6598,"dy":0.0162,"dx":0.0183,"nx":116,"ny":114,"refTime":"2023-11-20T18:00:00:Z","depth":0,"parameterNumber":3,"parameterNumberName":"V-component_of_WINDS"},"data":[0.0,0.0,0.0,0.0,0.0,0.0,0.0,0.0,0.0,0.0,0.0,0.0,0.0,0.0,0.0,0.0,0.0,0.0,0.0,0.0,0.0,0.0,0.0,0.0,0.0,0.0,0.0,0.0,0.0,0.0,0.0,0.0,0.0,0.0,0.0,0.0,0.0,0.0,0.0,0.0,0.0,0.0,0.0,0.0,0.0,0.0,0.0,0.0,0.0,0.0,0.0,0.0,0.0,0.0,0.0,0.0,0.0,0.0,0.0,0.0,0.0,0.0,0.0,0.0,0.0,0.0,0.0,0.0,0.0,0.0,0.0,0.0,0.0,0.0,0.0,0.0,0.0,0.0,0.0,0.0,0.0,0.0,0.0,0.0,0.0,0.0,0.0,0.0,0.0,0.0,0.0,0.0,0.0,0.0,0.0,0.0,0.0,0.0,0.0,0.0,0.0,0.0,0.0,0.0,0.0,0.0,0.0,0.0,0.0,0.0,0.0,0.0,0.0,0.0,0.0,0.0,0.0,0.0,0.0,0.0,0.0,0.0,0.0,0.0,0.0,0.0,0.0,0.0,0.0,0.0,0.0,0.0,0.0,0.0,0.0,0.0,0.0,0.0,0.0,0.0,0.0,0.0,0.0,0.0,0.0,0.0,0.0,0.0,0.0,0.0,0.0,0.0,0.0,0.0,0.0,0.0,0.0,0.0,0.0,0.0,0.0,0.0,0.0,0.0,0.0,0.0,0.0,0.0,0.0,0.0,0.0,0.0,0.0,0.0,0.0,0.0,0.0,0.0,0.0,0.0,0.0,0.0,0.0,0.0,0.0,0.0,0.0,0.0,0.0,0.0,0.0,0.0,0.0,0.0,0.0,0.0,0.0,0.0,0.0,0.0,0.0,0.0,0.0,0.0,0.0,0.0,0.0,0.0,0.0,0.0,0.0,0.0,0.0,0.0,0.0,0.0,0.0,0.0,0.0,0.0,0.0,0.0,0.0,0.0,0.0,0.0,0.0,0.0,0.0,0.0,0.0,0.0,0.0,0.0,0.0,0.0,0.0,0.0,0.0,0.0,0.0,0.0,0.0,0.0,0.0,0.0,0.0,0.0,0.0,0.0,0.0,0.0,0.0,0.0,0.0,0.0,0.0,0.0,0.0,0.0,0.0,0.0,0.0,0.0,0.0,0.0,0.0,0.0,0.0,0.0,0.0,0.0,0.0,0.0,0.0,0.0,0.0,0.0,0.0,0.0,0.0,0.0,0.0,0.0,0.0,0.0,0.0,0.0,0.0,0.0,0.0,0.0,0.0,0.0,0.0,0.0,0.0,0.0,0.0,0.0,0.0,0.0,0.0,0.0,0.0,0.0,0.0,0.0,0.0,0.0,0.0,0.0,0.0,0.0,0.0,0.0,0.0,0.0,0.0,0.0,0.0,0.0,0.0,0.0,0.0,0.0,0.0,0.0,0.0,0.0,0.0,0.0,0.0,0.0,0.0,0.0,0.0,0.0,0.0,0.0,0.0,0.0,0.0,0.0,0.0,0.0,0.0,0.0,0.0,0.0,0.0,0.0,0.0,0.0,0.0,0.0,0.0,0.0,0.0,0.0,0.0,0.0,0.0,0.0,0.0,0.0,0.0,0.0,0.0,0.0,0.0,0.0,0.0,0.0,0.0,0.0,0.0,0.0,0.0,0.0,0.0,0.0,0.0,0.0,0.0,0.0,0.0,0.0,0.0,0.0,0.0,0.0,0.0,0.0,0.0,0.0,0.0,0.0,0.0,0.0,0.0,0.0,0.0,0.0,0.0,0.0,0.0,0.0,0.0,0.0,0.0,0.0,0.0,0.0,0.0,0.0,0.0,0.0,0.0,0.0,0.0,0.0,0.0,0.0,0.0,0.0,0.0,0.0,0.0,0.0,0.0,0.0,0.0,0.0,0.0,0.0,0.0,0.0,0.0,0.0,0.0,0.0,0.0,0.0,0.0,0.0,0.0,0.0,0.0,0.0,0.0,0.0,0.0,0.0,0.0,0.0,0.0,0.0,0.0,0.0,0.0,0.0,0.0,0.0,0.0,0.0,0.0,0.0,0.0,0.0,0.0,0.0,0.0,0.0,0.0,0.0,0.0,0.0,0.0,0.0,0.0,0.0,0.0,0.0,0.0,0.0,0.0,0.0,0.0,0.0,0.0,0.0,0.0,0.0,0.0,0.0,0.0,0.0,0.0,0.0,0.0,0.0,0.0,0.0,0.0,0.0,0.0,0.0,0.0,0.0,0.0,0.0,0.0,0.0,0.0,0.0,0.0,0.0,0.0,0.0,0.0,0.0,0.0,0.0,0.0,0.0,0.0,0.0,0.0,0.0,0.0,0.0,0.0,0.0,0.0,0.0,0.0,0.0,0.0,0.0,0.0,0.0,0.0,0.0,0.0,0.0,0.0,0.0,0.0,0.0,0.0,0.0,0.0,0.0,0.0,0.0,0.0,0.0,0.0,0.0,0.0,0.0,0.0,0.0,0.0,0.0,0.0,0.0,0.0,0.0,0.0,0.0,0.0,0.0,0.0,0.0,0.0,0.0,0.0,0.0,0.0,0.0,0.0,0.0,0.0,0.0,0.0,0.0,0.0,0.0,0.0,0.0,0.0,0.0,0.0,0.0,0.0,0.0,0.0,0.0,0.0,0.0,0.0,0.0,0.0,0.0,0.0,0.0,0.0,0.0,0.0,0.0,0.0,0.0,0.0,0.0,0.0,0.0,0.0,0.0,0.0,0.0,0.0,0.0,0.0,0.0,0.0,0.0,0.0,0.0,0.0,0.0,0.0,0.0,0.0,0.0,0.0,0.0,0.0,0.0,0.0,0.0,0.0,0.0,0.0,0.0,0.0,0.0,0.0,0.0,0.0,0.0,0.0,0.0,0.0,0.0,0.0,0.0,0.0,0.0,0.0,0.0,0.0,0.0,0.0,0.0,0.0,0.0,0.0,0.0,0.0,0.0,0.0,0.0,0.0,0.0,0.0,0.0,0.0,0.0,0.0,0.0,0.0,0.0,0.0,0.0,0.0,0.0,0.0,0.0,0.0,0.0,0.0,0.0,0.0,0.0,0.0,0.0,0.0,0.0,0.0,0.0,0.0,0.0,0.0,0.0,0.0,0.0,0.0,0.0,0.0,0.0,0.0,0.0,0.0,0.0,0.0,0.0,0.0,0.0,0.0,0.0,0.0,0.0,0.0,0.0,0.0,0.0,0.0,0.0,0.0,0.0,0.0,0.0,0.0,0.0,0.0,0.0,0.0,0.0,0.0,0.0,0.0,0.0,0.0,0.0,0.0,0.0,0.0,0.0,0.0,0.0,0.0,0.0,0.0,0.0,0.0,0.0,0.0,0.0,0.0,0.0,0.0,0.0,0.0,0.0,0.0,0.0,0.0,0.0,0.0,0.0,0.0,0.0,0.0,0.0,0.0,0.0,0.0,0.0,0.0,0.0,0.0,0.0,0.0,0.0,0.0,0.0,0.0,0.0,0.0,0.0,0.0,0.0,0.0,0.0,0.0,0.0,0.0,0.0,0.0,0.0,0.0,0.0,0.0,0.0,0.0,0.0,0.0,0.0,0.0,0.0,0.0,0.0,0.0,0.0,0.0,0.0,0.0,0.0,0.0,0.0,0.0,0.0,0.0,0.0,0.0,0.0,0.0,0.0,0.0,0.0,0.0,0.0,0.0,0.0,0.0,0.0,0.0,0.0,0.0,0.0,0.0,0.0,0.0,0.0,0.0,0.0,0.0,0.0,0.0,0.0,0.0,0.0,0.0,0.0,0.0,0.0,0.0,0.0,0.0,0.0,0.0,0.0,0.0,0.0,0.0,0.0,0.0,0.0,0.0,0.0,0.0,0.0,0.0,0.0,0.0,0.0,0.0,0.0,0.0,0.0,0.0,0.0,0.0,0.0,0.0,0.0,0.0,0.0,0.0,0.0,0.0,0.0,0.0,0.0,0.0,0.0,0.0,0.0,0.0,0.0,0.0,0.0,0.0,0.0,0.0,0.0,0.0,0.0,0.0,0.0,0.0,0.0,0.0,0.0,0.0,0.0,0.0,0.0,0.0,0.0,0.0,0.0,0.0,0.0,0.0,0.0,0.0,0.0,0.0,0.0,0.0,0.0,0.0,0.0,0.0,0.0,0.0,0.0,0.0,0.0,0.0,0.0,0.0,0.0,0.0,0.0,0.0,0.0,0.0,0.0,0.0,0.0,0.0,0.0,0.0,0.0,0.0,0.0,0.0,0.0,0.0,0.0,0.0,0.0,0.0,0.0,0.0,0.0,0.0,0.0,0.0,0.0,0.0,0.0,0.0,0.0,0.0,0.0,0.0,0.0,0.0,0.0,0.0,0.0,0.0,0.0,0.0,0.0,0.0,0.0,0.0,0.0,0.0,0.0,0.0,0.0,0.0,0.0,0.0,0.0,0.0,0.0,0.0,0.0,0.0,0.0,0.0,0.0,0.0,0.0,0.0,0.0,0.0,0.0,0.0,0.0,0.0,0.0,0.0,0.0,0.0,0.0,0.0,0.0,0.0,0.0,0.0,0.0,0.0,0.0,0.0,0.0,0.0,0.0,0.0,0.0,0.0,0.0,0.0,0.0,0.0,0.0,0.0,0.0,0.0,0.0,0.0,0.0,0.0,0.0,0.0,0.0,0.0,0.0,0.0,0.0,0.0,0.0,0.0,0.0,0.0,0.0,0.0,0.0,0.0,0.0,0.0,0.0,0.0,0.0,0.0,0.0,0.0,0.0,0.0,0.0,0.0,0.0,0.0,0.0,0.0,0.0,0.0,0.0,0.0,0.0,0.0,0.0,0.0,0.0,0.0,0.0,0.0,0.0,0.0,0.0,0.0,0.0,0.0,0.0,0.0,0.0,0.0,0.0,0.0,0.0,0.0,0.0,0.0,0.0,0.0,0.0,0.0,0.0,0.0,0.0,0.0,0.0,0.0,0.0,0.0,0.0,0.0,0.0,0.0,0.0,0.0,0.0,0.0,0.0,0.0,0.0,0.0,0.0,0.0,0.0,0.0,0.0,0.0,0.0,0.0,0.0,0.0,0.0,0.0,0.0,0.0,0.0,0.0,0.0,0.0,0.0,0.0,0.0,0.0,0.0,0.0,0.0,0.0,0.0,0.0,0.0,0.0,0.0,0.0,0.0,0.0,0.0,0.0,0.0,0.0,0.0,0.0,0.0,0.0,0.0,0.0,0.0,0.0,0.0,0.0,0.0,0.0,0.0,0.0,0.0,0.0,0.0,0.0,0.0,0.0,0.0,0.0,0.0,0.0,0.0,0.0,0.0,0.0,0.0,0.0,0.0,0.0,0.0,0.0,0.0,0.0,0.0,0.0,0.0,0.0,0.0,0.0,0.0,0.0,0.0,0.0,0.0,0.0,0.0,0.0,0.0,0.0,0.0,0.0,0.0,0.0,0.0,0.0,0.0,0.0,0.0,0.0,0.0,0.0,0.0,0.0,0.0,0.0,0.0,0.0,0.0,0.0,0.0,0.0,0.0,0.0,0.0,0.0,0.0,0.0,0.0,0.0,0.0,0.0,0.0,0.0,0.0,0.0,0.0,0.0,0.0,0.0,0.0,0.0,0.0,0.0,0.0,0.0,0.0,0.0,0.0,0.0,0.0,0.0,0.0,0.0,0.0,0.0,0.0,0.0,0.0,0.0,0.0,0.0,0.0,0.0,0.0,0.0,0.0,0.0,0.0,0.0,0.0,0.0,0.0,0.0,0.0,0.0,0.0,0.0,0.0,0.0,0.0,0.0,0.0,0.0,0.0,0.0,0.0,0.0,0.0,0.0,0.0,0.0,0.0,0.0,0.0,0.0,0.0,0.0,0.0,0.0,0.0,0.0,0.0,0.0,0.0,0.0,0.0,0.0,0.0,0.0,0.0,0.0,0.0,0.0,0.0,0.0,0.0,0.0,0.0,0.0,0.0,0.0,0.0,0.0,0.0,0.0,0.0,0.0,0.0,0.0,0.0,0.0,0.0,0.0,0.0,0.0,0.0,0.0,0.0,0.0,0.0,0.0,0.0,0.0,0.0,0.0,0.0,0.0,0.0,0.0,0.0,0.0,0.0,0.0,0.0,1.6116,1.5572,0.0,0.0,0.0,0.0,0.0,0.0,0.0,0.0,0.0,0.0,0.0,0.0,0.0,0.0,0.0,0.0,0.0,0.0,0.0,0.0,0.0,0.0,0.0,0.0,0.0,0.0,0.0,0.0,0.0,0.0,0.0,0.0,0.0,0.0,0.0,0.0,0.0,0.0,0.0,0.0,0.0,0.0,0.0,0.0,0.0,0.0,0.0,0.0,0.0,0.0,0.0,0.0,0.0,0.0,0.0,0.0,0.0,0.0,0.0,0.0,0.0,0.0,0.0,0.0,0.0,0.0,0.0,0.0,0.0,0.0,0.0,0.0,0.0,0.0,0.0,0.0,0.0,0.0,0.0,0.0,0.0,0.0,0.0,0.0,0.0,0.0,0.0,0.0,0.0,0.0,0.0,0.0,0.0,0.0,0.0,0.0,0.0,0.0,0.0,0.0,0.0,0.0,0.0,0.0,0.0,0.0,0.0,0.0,0.0,0.0,0.0,0.0,0.0,0.0,1.6607,1.628,0.0,0.0,0.0,0.0,0.0,0.0,0.0,0.0,0.0,0.0,0.0,0.0,0.0,0.0,0.0,0.0,0.0,0.0,0.0,0.0,0.0,0.0,0.0,0.0,0.0,0.0,2.0821,2.0453,2.0322,1.9815,1.9531,1.9531,1.8971,1.8693,1.8711,0.0,0.0,0.0,0.0,0.0,0.0,0.0,0.0,0.0,0.0,0.0,0.0,0.0,0.0,0.0,0.0,0.0,0.0,0.0,0.0,0.0,0.0,0.0,0.0,0.0,0.0,0.0,0.0,0.0,0.0,0.0,0.0,0.0,0.0,0.0,0.0,0.0,0.0,0.0,0.0,0.0,0.0,0.0,0.0,0.0,0.0,0.0,0.0,0.0,0.0,0.0,0.0,0.0,0.0,0.0,0.0,0.0,0.0,0.0,0.0,0.0,0.0,0.0,0.0,0.0,0.0,0.0,0.0,0.0,0.0,0.0,0.0,0.0,1.7082,1.7082,1.7082,1.7082,1.7502,1.8181,1.7405,1.7417,1.8018,1.8069,0.0,0.0,0.0,0.0,0.0,0.0,0.0,0.0,0.0,0.0,0.0,0.0,0.0,0.0,0.0,0.0,0.0,0.0,0.0,0.0,0.0,2.1394,2.1169,2.0595,2.0786,2.0648,2.0011,2.0259,2.0432,2.0432,2.1031,2.0692,1.9237,2.0597,0.0,0.0,0.0,0.0,1.7991,1.7991,1.7932,1.7825,1.7825,0.0,0.0,0.0,0.0,0.0,0.0,0.0,0.0,0.0,0.0,0.0,0.0,0.0,0.0,0.0,0.0,0.0,0.0,0.0,0.0,0.0,0.0,0.0,0.0,0.0,0.0,0.0,0.0,0.0,0.0,0.0,0.0,0.0,0.0,0.0,0.0,0.0,0.0,0.0,0.0,0.0,0.0,0.0,1.7825,1.7825,0.0,0.0,0.0,0.0,0.0,0.0,0.0,0.0,0.0,0.0,0.0,0.0,0.0,1.849,1.8432,1.8906,1.9067,1.8949,1.8949,1.8949,1.8949,1.8949,1.9003,1.9121,1.9003,0.0,1.802,1.8391,0.0,0.0,0.0,0.0,0.0,0.0,0.0,0.0,0.0,0.0,0.0,0.0,0.0,0.0,0.0,0.0,0.0,0.0,0.0,0.0,0.0,2.1945,2.1941,2.192,2.208,2.2049,2.1719,2.1889,2.2005,2.2005,2.1939,2.1538,2.0782,2.0542,0.0,0.0,1.8236,1.8252,1.8721,1.8236,1.7991,1.7991,1.7991,1.7991,1.7991,1.7991,0.0,0.0,0.0,0.0,0.0,0.0,0.0,0.0,0.0,0.0,0.0,0.0,0.0,0.0,0.0,0.0,0.0,0.0,0.0,0.0,0.0,0.0,0.0,0.0,0.0,0.0,0.0,0.0,0.0,0.0,0.0,0.0,0.0,0.0,0.0,0.0,0.0,0.0,0.0,1.79,1.7991,1.7991,1.7991,1.8088,0.0,0.0,0.0,0.0,0.0,0.0,0.0,0.0,0.0,1.873,1.8906,1.9103,1.9337,1.9523,1.9766,2.0029,2.0029,2.0029,2.0029,2.0029,2.0029,2.0029,2.0029,1.9667,1.9054,1.9005,1.8986,1.9005,0.0,0.0,0.0,0.0,1.9305,1.9305,0.0,0.0,0.0,0.0,0.0,0.0,0.0,0.0,0.0,0.0,0.0,0.0,2.2458,2.2493,2.2671,2.307,2.3108,2.3108,2.3108,2.3108,2.3108,2.3108,2.2522,2.211,2.1893,2.0414,0.0,1.9628,1.8977,1.8939,1.9494,1.9069,1.8876,1.886,1.8632,1.8344,1.7991,1.7991,1.7991,0.0,0.0,0.0,0.0,0.0,0.0,0.0,0.0,0.0,0.0,0.0,0.0,0.0,0.0,0.0,0.0,0.0,0.0,0.0,0.0,0.0,0.0,0.0,0.0,0.0,0.0,0.0,0.0,0.0,0.0,0.0,0.0,0.0,0.0,0.0,0.0,0.0,0.0,1.834,1.834,1.834,1.834,1.844,0.0,0.0,0.0,0.0,0.0,0.0,1.9443,1.9443,1.952,1.9628,1.9727,1.9932,2.0225,2.0342,2.0586,2.0918,2.0918,2.0918,2.0918,2.0918,2.0918,2.0918,2.0918,2.0742,2.0381,1.9853,1.9569,1.9481,1.9589,1.9628,1.9628,1.9628,1.9628,1.9628,0.0,0.0,0.0,0.0,0.0,0.0,0.0,0.0,0.0,0.0,0.0,2.3032,2.3058,2.3058,2.307,2.3108,2.3108,2.3108,2.3108,2.3108,2.3108,2.3108,2.3063,2.2674,2.1908,2.1005,0.0,2.0526,2.0494,2.032,2.0069,2.0869,2.1235,2.1185,2.0357,1.9254,1.7991,1.7991,1.7991,1.7991,0.0,0.0,0.0,0.0,0.0,0.0,0.0,0.0,0.0,0.0,0.0,0.0,0.0,0.0,0.0,0.0,0.0,0.0,0.0,0.0,0.0,0.0,0.0,0.0,0.0,0.0,0.0,0.0,0.0,0.0,0.0,0.0,0.0,0.0,0.0,0.0,0.0,0.0,0.0,1.9219,1.9219,0.0,0.0,0.0,0.0,1.9305,1.9305,1.9463,1.9844,1.9864,2.0078,2.0527,2.0918,2.1103,2.1122,2.1582,2.1817,2.1837,2.1837,2.1837,2.1837,2.1837,2.1837,2.1837,2.1837,2.1827,2.1739,2.0879,2.0273,1.9903,2.0361,2.0537,2.0537,2.0537,2.0537,2.0537,0.0,0.0,0.0,0.0,0.0,0.0,0.0,0.0,0.0,2.3108,2.3108,2.3108,2.3108,2.3108,2.3108,2.3108,2.3108,2.3108,2.3108,2.3108,2.3108,2.3108,2.3108,2.272,2.1908,2.1612,2.1607,2.1949,2.1388,2.1517,2.2273,2.2026,2.1908,2.1891,2.1596,2.1172,2.0584,1.8771,1.7991,1.7991,1.7991,1.7991,0.0,0.0,0.0,0.0,0.0,0.0,0.0,0.0,0.0,0.0,0.0,0.0,0.0,0.0,0.0,0.0,0.0,0.0,0.0,0.0,0.0,0.0,0.0,0.0,0.0,0.0,0.0,0.0,0.0,0.0,0.0,0.0,0.0,0.0,0.0,0.0,0.0,1.9305,1.9305,0.0,1.9668,1.996,2.0244,2.0498,2.0801,2.1045,2.1172,2.1182,2.1377,2.1807,2.1952,2.2303,2.2871,2.3037,2.3242,2.3516,2.3516,2.3516,2.3516,2.3516,2.3516,2.3516,2.3516,2.3359,2.3088,2.2502,2.1837,2.1191,2.1378,2.1436,2.1436,2.1436,2.1436,2.1436,0.0,0.0,0.0,0.0,0.0,0.0,0.0,0.0,0.0,2.3108,2.3108,2.3108,2.3108,2.3108,2.3108,2.3108,2.3108,2.3108,2.3108,2.3108,2.3108,2.3108,2.3296,2.3154,2.2617,2.2799,2.2911,2.2972,2.2683,2.2975,2.3752,2.3487,2.3352,2.3335,2.3034,2.2816,2.2491,2.032,1.9424,1.9424,1.9424,1.9219,1.8937,0.0,0.0,0.0,0.0,0.0,0.0,0.0,0.0,0.0,0.0,0.0,0.0,0.0,0.0,0.0,0.0,0.0,0.0,0.0,0.0,0.0,0.0,0.0,0.0,0.0,0.0,0.0,0.0,0.0,0.0,0.0,0.0,0.0,0.0,1.9735,1.9794,1.9922,1.9941,2.0117,2.0537,2.0859,2.1153,2.1415,2.1855,2.2158,2.2305,2.2451,2.2725,2.3123,2.3132,2.3428,2.3994,2.4004,2.4141,2.4391,2.4391,2.4391,2.4391,2.4391,2.4391,2.4391,2.4391,2.4258,2.3975,2.3724,2.3252,2.2685,2.2109,2.1905,2.1905,2.1905,2.1905,2.1905,0.0,0.0,0.0,0.0,0.0,0.0,0.0,2.3108,2.3108,2.3108,2.3108,2.3108,2.3108,2.3108,2.3108,2.3108,2.3108,2.3108,2.3133,2.3133,2.3145,2.3158,2.37,2.4017,2.4017,2.4528,2.4402,2.3571,2.4414,2.4674,2.4385,2.5231,2.5624,2.559,2.475,2.4087,2.3532,2.2696,2.2326,2.2326,2.2241,2.1672,2.0843,0.0,0.0,0.0,0.0,0.0,0.0,0.0,0.0,0.0,0.0,0.0,0.0,0.0,0.0,0.0,0.0,0.0,0.0,0.0,0.0,0.0,0.0,0.0,0.0,0.0,0.0,0.0,0.0,0.0,0.0,0.0,0.0,0.0,2.0605,2.0615,2.0772,2.1142,2.121,2.1405,2.1865,2.1924,2.1934,2.1964,2.2334,2.2723,2.311,2.3584,2.4004,2.4401,2.441,2.442,2.443,2.443,2.443,2.443,2.443,2.443,2.443,2.443,2.443,2.443,2.443,2.443,2.443,2.4443,2.441,2.4254,2.2607,2.1984,2.1984,2.1984,2.1974,2.1964,0.0,0.0,0.0,0.0,0.0,0.0,0.0,2.3108,2.3108,2.3108,2.3108,2.3108,2.3108,2.3108,2.3108,2.3108,2.3108,2.3283,2.3712,2.375,2.3926,2.4327,2.449,2.4578,2.4578,2.4713,2.4866,2.5029,2.5257,2.5561,2.591,2.6145,2.626,2.6231,2.5996,2.5806,2.5665,2.5419,2.5316,2.5139,2.304,2.2041,2.1817,0.0,0.0,0.0,0.0,0.0,0.0,0.0,0.0,0.0,0.0,0.0,0.0,0.0,0.0,0.0,0.0,0.0,0.0,0.0,0.0,0.0,0.0,0.0,0.0,0.0,0.0,0.0,0.0,0.0,0.0,0.0,2.2211,2.2216,2.081,2.084,2.1074,2.1201,2.1493,2.1875,2.2295,2.2596,2.2908,2.3242,2.3662,2.3923,2.404,2.4157,2.4443,2.4896,2.4916,2.5049,2.5347,2.5347,2.5347,2.5347,2.5347,2.5347,2.5347,2.5347,2.5347,2.5347,2.5347,2.5347,2.5328,2.5019,2.4916,2.4838,2.4033,2.3721,2.3721,2.3721,2.3525,2.3223,0.0,0.0,0.0,0.0,0.0,0.0,0.0,2.3108,2.3108,2.3108,2.3108,2.3108,2.3108,2.3321,2.3487,2.3487,2.3684,2.3963,2.4302,2.4343,2.4465,2.4791,2.5017,2.513,2.513,2.5385,2.5774,2.6302,2.6302,2.6608,2.7173,2.7173,2.7173,2.7173,2.7173,2.7052,2.6839,2.6839,2.6713,2.635,2.4683,2.375,2.3334,2.2892,2.2408,2.1883,2.145,2.0922,2.0427,2.0427,0.0,0.0,0.0,0.0,0.0,0.0,0.0,0.0,0.0,0.0,0.0,0.0,0.0,0.0,0.0,0.0,0.0,0.0,0.0,0.0,0.0,0.0,0.0,0.0,2.2808,2.2945,2.1361,2.1348,2.162,2.1951,2.2266,2.2678,2.323,2.3513,2.3757,2.4033,2.4443,2.4687,2.4687,2.484,2.5064,2.5342,2.5352,2.5454,2.5693,2.5693,2.5693,2.5693,2.5693,2.5693,2.5693,2.5693,2.5693,2.5693,2.5693,2.5693,2.5689,2.5459,2.5352,2.5293,0.0,0.0,0.0,0.0,2.4235,2.4014,0.0,0.0,0.0,0.0,0.0,0.0,0.0,2.3108,2.3118,2.3195,2.3195,2.3221,2.3296,2.3775,2.4092,2.4092,2.4528,2.4829,2.4892,2.4954,2.4992,2.4992,2.5448,2.5724,2.5787,2.6323,2.6851,2.7386,2.7386,2.762,2.8109,2.8109,2.8109,2.8109,2.8109,2.7833,2.7386,2.7386,2.7072,2.6587,2.6587,2.6022,2.5075,2.4181,2.377,2.3544,2.2534,2.2103,2.1971,2.1886,0.0,0.0,0.0,0.0,0.0,0.0,0.0,0.0,0.0,0.0,0.0,0.0,0.0,0.0,0.0,0.0,0.0,0.0,0.0,0.0,0.0,0.0,0.0,0.0,2.2931,2.3338,2.2444,2.2204,2.2363,2.3013,2.3242,2.3636,2.4391,2.4492,2.4512,2.4537,2.4922,2.517,2.517,2.5518,0.0,0.0,0.0,2.5693,2.5693,2.5693,2.5693,2.5693,2.5693,2.5693,2.5693,2.5693,2.5693,2.5693,2.5693,2.5693,2.5693,2.5693,2.5693,2.5606,2.4849,2.4547,2.4537,2.4512,2.4492,2.4459,0.0,0.0,0.0,0.0,0.0,0.0,0.0,2.3108,2.3271,2.375,2.3841,2.3988,2.4428,2.4578,2.4653,2.4653,2.4741,2.498,0.0,0.0,2.6172,2.6172,2.6273,2.6537,2.6959,2.7085,2.7412,2.7946,2.7946,2.7996,2.8109,2.8109,2.8109,2.8109,2.8109,2.8047,2.7946,2.7946,2.765,2.7148,2.7148,2.6767,2.6181,2.5995,2.5423,2.4582,2.3569,2.2683,2.1876,2.1136,2.075,2.0605,2.0605,0.0,0.0,0.0,0.0,0.0,0.0,0.0,0.0,0.0,0.0,0.0,0.0,0.0,0.0,0.0,0.0,0.0,0.0,0.0,0.0,2.3054,2.3816,2.464,2.4846,2.4048,2.335,2.312,2.3728,2.4375,2.4916,2.4965,2.5098,2.5435,2.5532,2.5581,2.5581,2.5669,2.5693,2.5693,2.5693,2.5693,2.5693,2.5693,2.5693,2.5693,2.5693,0.0,2.5693,2.5693,2.5693,2.5693,2.5693,2.5693,2.5693,2.5693,2.5693,2.5674,2.5499,2.5464,2.5415,2.5078,2.4965,2.4916,0.0,0.0,0.0,0.0,0.0,0.0,0.0,2.3549,2.375,2.4343,2.439,2.4503,2.4779,2.5042,2.5193,2.5193,2.5473,2.5766,0.0,2.6336,2.6499,2.6499,2.6763,2.7022,2.7286,2.7557,2.7959,2.8493,2.8493,2.8643,2.895,2.895,2.895,2.895,2.895,2.8787,2.8493,2.8493,2.8047,2.7298,2.7298,2.7135,2.6824,2.6036,2.5441,2.4862,2.3854,2.285,2.1956,2.1725,2.1331,2.0937,2.1172,2.125,2.129,0.0,0.0,0.0,0.0,0.0,0.0,0.0,0.0,0.0,0.0,0.0,0.0,0.0,0.0,2.2963,2.3542,0.0,2.4596,2.4039,2.4599,2.5422,2.6324,2.5308,2.4588,2.4961,2.4865,2.4912,2.5361,2.54,2.5474,2.5674,2.5693,2.5693,2.5693,2.5693,2.5693,2.5693,2.5693,2.5693,2.5693,2.5693,2.5693,2.5693,2.5693,2.5693,2.5693,2.5693,2.5693,2.5693,2.5693,2.5693,2.5693,2.5693,2.5693,2.5693,2.5693,2.5693,2.5689,2.5464,2.54,2.5371,0.0,0.0,0.0,0.0,0.0,0.0,0.0,0.0,2.4356,2.4892,2.4954,2.4992,2.5121,2.5511,2.5778,2.5778,2.6223,0.0,0.0,2.6499,2.6499,2.6499,2.6997,2.7349,2.7462,2.7984,2.8518,2.907,2.907,2.9321,2.9792,2.9792,2.9792,2.9792,2.9792,2.9528,2.907,2.907,2.8505,2.7607,2.7607,2.7562,2.7322,2.6086,2.56,2.5475,2.4469,2.3441,2.262,2.2789,2.2188,2.1405,2.1777,2.1905,2.1925,2.1982,2.2032,0.0,0.0,0.0,0.0,0.0,0.0,0.0,0.0,2.3091,2.3157,2.3387,2.3256,2.3244,2.3681,2.4339,2.4904,2.5221,2.5357,2.5902,2.7383,2.6368,2.5832,2.6896,2.5956,2.5342,2.5679,2.5693,2.5693,2.5693,2.5693,2.5693,2.5693,2.5693,2.5693,2.5693,2.5693,2.5693,2.5693,2.5693,2.5693,2.5693,2.5693,2.5693,2.5693,2.5693,2.5693,2.5693,2.5693,2.5693,2.5693,2.5693,2.5693,2.5693,2.5693,2.5693,2.5693,2.5693,2.5693,2.5693,0.0,0.0,0.0,0.0,0.0,0.0,0.0,0.0,0.0,2.5435,2.5511,2.5699,2.6248,2.6361,2.6399,2.6399,0.0,0.0,2.6499,2.6499,2.6499,2.6499,2.6997,2.7507,2.8009,2.8543,2.9095,2.9691,2.9691,2.9729,2.9792,2.9792,2.9792,2.9792,2.9792,2.9754,2.9691,2.9691,2.9327,2.8731,2.8731,2.843,2.7991,2.7819,2.7745,2.7617,2.6603,2.5574,2.4545,2.3696,2.2696,2.1816,2.1886,2.1905,2.1963,2.2334,0.0,2.2498,2.2879,2.2976,2.2986,2.3013,2.3023,2.3033,0.0,2.3091,2.3387,2.4393,2.38,2.3724,2.5745,2.5399,2.5285,2.678,2.6109,2.6158,2.8332,2.752,2.6904,2.7463,2.6406,2.5659,2.5708,2.5693,2.5693,2.5693,2.5693,2.5693,2.5693,2.5693,2.5693,2.5693,2.5693,2.5693,2.5693,2.5693,2.5693,2.5693,2.5693,2.5693,2.5693,2.5693,2.5693,2.5693,2.5693,2.5693,2.5693,2.5693,2.5693,2.5693,2.5693,2.5693,2.5693,2.5693,2.5693,2.5693,0.0,0.0,0.0,0.0,0.0,0.0,0.0,0.0,0.0,0.0,2.6118,2.6223,2.6461,2.6499,2.6499,2.6499,0.0,0.0,2.6499,2.6499,2.6499,2.6499,2.6997,2.7562,2.8097,2.8631,2.9195,2.9792,2.9792,2.9792,2.9792,2.9792,2.9792,2.9792,2.9792,2.9792,2.9792,2.9792,2.9453,2.8888,2.8888,2.8769,2.8568,2.8568,2.8769,2.8875,2.7199,2.5957,0.0,0.0,2.4137,2.3268,2.3502,2.314,2.2625,2.2801,2.2859,2.2898,2.3052,2.3091,2.3091,2.3091,2.3091,2.3091,2.3091,2.3308,2.3639,2.4127,2.4036,2.4374,2.6075,2.5978,2.6346,2.8414,2.7981,2.8175,3.0455,2.8756,2.7884,2.9488,2.7318,2.5693,2.5693,2.5693,2.5693,2.5693,2.5693,2.5693,2.5693,2.5693,2.5693,2.5693,2.5693,2.5693,2.5693,2.5693,2.5693,2.5693,2.5693,2.5693,2.5693,2.5693,2.5693,2.5693,2.5693,2.5693,2.5693,2.5693,2.5693,2.5693,2.5693,2.5693,2.5693,2.5693,2.5693,2.5693,0.0,0.0,0.0,0.0,0.0,0.0,0.0,0.0,0.0,0.0,0.0,2.6499,2.6499,2.6499,2.6549,0.0,0.0,0.0,0.0,2.6952,2.6952,2.6952,2.7462,2.7921,2.8304,2.8856,2.9346,2.9792,2.9792,2.9792,2.9792,2.9792,2.9792,2.9792,2.9792,2.9792,2.9792,2.9792,2.9553,2.9145,2.9145,2.9145,2.9145,2.9145,2.9428,2.9601,2.8044,2.6832,0.0,0.0,2.5721,2.4835,2.4809,2.4232,2.3507,2.32,2.3091,2.3091,2.3091,2.3179,2.3298,2.3298,2.3386,2.3474,2.3474,2.3718,2.3965,2.3965,2.4209,2.4877,2.6452,2.6742,2.7546,3.0058,2.9769,2.9865,3.1657,2.9984,2.8993,3.009,2.8437,2.6815,2.5805,2.5693,2.5693,2.5693,2.5693,2.5693,2.5693,2.5693,2.5693,2.5693,2.5693,2.5693,2.5693,2.5693,2.5693,2.5693,2.5693,2.5693,2.5693,2.5693,2.5693,2.5693,2.5693,2.5693,2.5693,2.5693,2.5693,2.5693,2.5693,2.5693,2.5693,2.5693,2.5693,2.5693,0.0,0.0,0.0,0.0,0.0,0.0,0.0,0.0,0.0,0.0,0.0,0.0,0.0,0.0,2.6713,0.0,0.0,0.0,0.0,2.8059,2.8059,2.8059,2.8568,2.8869,2.8881,2.9446,2.9779,2.9792,2.9792,2.9792,2.9792,2.9792,2.9792,2.9792,2.9792,2.9792,2.9792,2.9792,2.9779,2.9767,2.9767,2.9767,2.9767,2.9767,2.9779,2.9792,2.9735,0.0,0.0,2.802,2.7328,2.6243,2.5147,2.4787,0.0,2.342,2.3091,2.3091,2.3091,2.3425,2.3769,2.3769,2.4072,2.4352,2.4352,2.4362,2.4371,2.4371,2.4381,2.5105,2.7426,2.7863,2.8802,3.1658,3.1138,3.0551,3.115,3.1144,3.0248,2.7979,2.9681,2.9624,2.6052,2.5693,2.5693,2.5693,2.5693,2.5693,2.5693,2.5693,2.5693,2.5693,2.5693,2.5693,2.5693,2.5693,2.5693,2.5693,2.5693,2.5693,2.5693,2.5693,2.5693,2.5693,2.5693,2.5693,2.5693,2.5693,2.5693,2.5693,2.5693,2.5693,2.5693,2.5693,2.5693,2.5693,0.0,0.0,0.0,0.0,0.0,0.0,0.0,0.0,0.0,0.0,0.0,0.0,0.0,0.0,0.0,0.0,0.0,0.0,0.0,2.8109,2.8109,2.8109,2.8267,2.853,2.8888,2.9095,2.9402,2.9792,2.9792,2.9792,2.9792,2.9792,2.9792,2.9792,2.9792,2.9792,2.9792,2.9792,2.9792,2.9792,2.9792,2.9792,2.9792,2.9792,2.9792,2.9792,0.0,0.0,0.0,2.9236,2.8019,2.6431,2.6058,2.5399,2.4786,2.4666,2.4898,2.5045,2.4201,2.4069,2.4209,2.4209,2.4293,2.4391,2.4391,2.4639,2.4867,2.4867,2.5088,2.6023,2.8462,2.8903,2.9743,3.2366,3.2468,3.2259,3.2444,3.1733,3.1201,3.1247,3.0508,2.9829,2.9396,2.7898,2.662,2.5757,2.5693,2.5693,2.5693,2.5693,2.5693,2.5693,2.5693,2.5693,2.5693,2.5693,2.5693,2.5693,2.5693,2.5693,2.5693,2.5693,2.5693,2.5693,2.5693,2.5693,2.5693,2.5693,2.5693,2.5693,2.5693,2.5693,2.5693,2.5693,2.5693,2.5693,0.0,0.0,0.0,0.0,0.0,0.0,0.0,0.0,0.0,0.0,0.0,0.0,0.0,0.0,0.0,0.0,0.0,2.8467,0.0,0.0,2.8712,2.8712,2.8712,2.8875,2.9208,2.922,2.9396,2.9792,2.9792,2.9792,2.9792,2.9792,2.9792,2.9792,2.9792,2.9792,2.9792,2.9792,2.9905,3.0068,2.988,2.9905,3.0068,2.9867,2.9917,0.0,0.0,0.0,0.0,3.0143,2.9143,2.7941,2.7746,2.6607,2.53,2.5095,2.5315,2.5449,2.4611,2.4531,2.4755,2.5185,2.5082,2.4977,2.5448,2.5419,2.5303,2.5303,2.5878,2.6863,2.8448,2.9453,3.0564,3.2152,3.2426,3.259,3.3047,3.2008,3.15,3.2326,3.1,3.0022,2.992,2.8518,2.7268,2.6428,2.5965,2.5693,2.5693,2.5864,2.5942,2.5942,2.6089,2.6167,2.6167,2.6167,2.6167,2.6167,2.6167,2.6089,2.5942,2.5942,2.5864,2.5693,2.5693,2.5693,2.5693,2.5693,2.5693,2.5693,2.5693,2.5693,2.5693,2.5693,2.5693,2.5693,0.0,0.0,0.0,0.0,0.0,0.0,0.0,0.0,0.0,0.0,0.0,0.0,0.0,0.0,0.0,0.0,0.0,0.0,0.0,0.0,0.0,2.9792,2.9792,2.9792,2.9792,2.9792,2.9792,2.9792,2.9792,2.9792,2.9792,2.9792,2.9792,2.9792,2.9792,2.9792,2.9792,2.9792,3.0093,3.0512,3.003,3.0143,3.0538,3.0068,0.0,0.0,0.0,0.0,0.0,3.0801,3.0566,3.036,2.9786,2.8092,2.6102,2.4871,2.4532,2.4575,2.4575,2.4832,2.5419,2.6628,2.6297,2.6014,2.722,2.6572,2.5693,2.5693,2.6658,2.7542,2.7683,2.9567,3.1156,3.1289,3.1311,3.1721,3.2939,3.2052,3.1311,3.1311,3.1245,3.0294,2.8002,2.7683,2.76,2.762,2.6424,2.5703,2.5713,2.6162,2.6396,2.6426,2.6807,2.6986,2.6986,2.6986,2.6986,2.6986,2.6986,2.6807,2.6426,2.6426,2.6191,2.5776,2.5776,2.5776,2.5776,2.5776,2.5776,2.5776,2.5776,2.5776,2.5776,2.5776,2.5776,2.5752,0.0,0.0,0.0,0.0,0.0,0.0,0.0,0.0,0.0,0.0,0.0,0.0,0.0,0.0,0.0,0.0,0.0,0.0,0.0,0.0,0.0,0.0,0.0,0.0,0.0,0.0,0.0,0.0,2.9792,2.9792,2.9792,2.9792,2.9792,2.9792,2.9792,2.9792,2.9792,2.9792,2.988,3.003,0.0,3.0475,3.0625,0.0,0.0,0.0,0.0,0.0,0.0,3.0938,3.0029,2.8417,2.7382,2.692,2.6662,2.6249,2.6426,2.6775,2.6775,2.6167,2.5846,2.7115,2.6553,2.5781,2.611,2.5917,2.5693,2.5693,2.5965,2.6754,2.8611,2.9453,3.0451,3.2317,3.2612,3.272,3.3047,3.2819,3.2612,3.2612,3.1777,3.0966,3.0339,2.8657,2.7725,2.8013,2.6595,2.5854,2.6201,2.6328,2.6533,2.6846,2.6963,2.6986,2.6986,2.6986,2.6986,2.6986,2.6986,2.6963,2.6855,2.6855,2.6771,2.6664,2.6664,2.6664,2.6664,2.6664,2.6664,2.6664,2.6664,2.6664,2.6664,2.6664,2.6664,2.6615,0.0,0.0,0.0,0.0,0.0,0.0,0.0,0.0,0.0,0.0,0.0,0.0,0.0,0.0,0.0,0.0,0.0,0.0,0.0,0.0,0.0,0.0,0.0,0.0,0.0,0.0,0.0,0.0,0.0,0.0,0.0,2.9905,2.9792,2.9804,3.0043,3.0156,3.0168,3.0394,0.0,0.0,0.0,0.0,0.0,0.0,0.0,0.0,0.0,0.0,0.0,2.9866,2.922,2.8355,2.7145,2.6968,2.7084,2.6438,2.6503,2.6778,2.6778,2.6245,2.6014,2.7292,2.6644,2.5854,2.6414,2.611,2.5693,2.5693,2.6562,2.7413,2.7709,2.9567,3.1123,3.1424,3.1921,3.2447,3.3025,3.2612,3.2469,3.3025,3.1987,3.0989,3.0474,2.8866,2.7734,2.7419,2.6537,2.6211,2.6641,2.6871,2.706,2.7295,2.748,2.7578,2.7578,2.7578,2.7578,2.7578,2.7578,2.748,2.7305,2.7305,2.7197,2.6986,2.6986,2.6986,2.6986,2.6986,2.6986,2.6986,2.6986,2.6986,2.6986,2.6986,2.6986,2.6982,0.0,0.0,0.0,0.0,0.0,0.0,0.0,0.0,0.0,0.0,0.0,0.0,0.0,0.0,0.0,0.0,0.0,0.0,0.0,0.0,0.0,0.0,0.0,0.0,0.0,0.0,0.0,0.0,0.0,0.0,0.0,0.0,0.0,0.0,0.0,0.0,0.0,0.0,0.0,0.0,0.0,0.0,0.0,0.0,0.0,0.0,0.0,0.0,0.0,0.0,2.8155,2.8947,2.772,2.7363,2.7125,2.6014,2.5693,2.5732,2.5902,2.583,2.6014,2.7292,2.6644,2.5989,2.7102,2.6476,2.5757,2.5927,2.7662,2.8564,2.6562,2.9704,3.1965,2.9954,3.0519,3.1589,3.2677,3.2052,3.1733,3.2525,3.1633,3.0519,2.9359,2.8474,2.7588,2.6643,2.6578,2.6719,2.708,2.7487,2.7712,2.777,2.8132,2.8291,2.8291,2.8291,2.8291,2.8291,2.8291,2.8122,2.778,2.778,2.7575,2.7162,2.7162,2.7162,2.7162,2.7162,2.7162,2.7162,2.7162,2.7162,2.7162,2.7162,2.7162,2.7152,0.0,0.0,0.0,0.0,0.0,0.0,0.0,0.0,0.0,0.0,0.0,0.0,0.0,0.0,0.0,0.0,0.0,0.0,0.0,0.0,0.0,0.0,0.0,0.0,0.0,0.0,0.0,3.1248,3.116,0.0,0.0,0.0,0.0,0.0,0.0,0.0,0.0,0.0,0.0,0.0,0.0,0.0,0.0,0.0,0.0,0.0,0.0,0.0,0.0,0.0,2.6873,2.7696,2.6428,2.6038,2.5989,2.5757,2.5693,2.5917,2.6982,2.65,2.6014,2.7292,2.6644,2.5757,2.5965,2.5854,2.5989,2.7054,2.7602,2.8096,2.8657,2.9453,3.0226,3.0788,3.1055,3.1289,3.15,3.2261,3.2086,3.026,2.9841,2.9379,2.85,2.7374,2.6921,2.7444,2.7467,2.7497,2.7575,2.7653,2.7848,2.82,2.8252,2.8291,2.8291,2.8291,2.8291,2.8291,2.8291,2.8252,2.821,2.821,2.8144,2.8066,2.8066,2.8066,2.8066,2.8066,2.8066,2.8066,2.8066,2.8066,2.8066,2.8066,2.8066,2.8018,0.0,0.0,0.0,0.0,0.0,0.0,0.0,0.0,0.0,0.0,0.0,0.0,0.0,0.0,0.0,0.0,0.0,0.0,0.0,0.0,0.0,0.0,0.0,0.0,0.0,3.0864,3.1286,3.1813,0.0,3.1537,3.1813,3.1524,3.1406,3.1399,3.1687,0.0,0.0,0.0,0.0,0.0,0.0,0.0,0.0,0.0,0.0,0.0,0.0,0.0,0.0,0.0,2.611,2.65,2.5902,2.5693,2.5693,2.5693,2.5693,2.583,2.6452,2.6173,2.5854,2.6452,2.6149,2.5693,2.5693,2.5693,2.6062,2.7339,2.7589,2.7979,2.9177,2.9407,2.9795,3.0989,3.1201,3.1422,3.2108,3.214,3.1667,3.0474,3.0604,3.0399,2.9345,2.9121,2.8974,2.8752,2.8298,2.8015,2.8015,2.8015,2.8112,2.8281,2.8291,2.8291,2.8291,2.8291,2.8291,2.8291,2.8291,2.8291,2.8291,2.8291,2.8291,2.8291,2.8291,2.8291,2.8291,2.8291,2.8291,2.8291,2.8291,2.8291,2.8291,2.8291,2.8291,2.8262,0.0,0.0,0.0,0.0,0.0,0.0,0.0,0.0,2.3091,2.3091,2.3091,2.3091,2.3091,2.3908,0.0,0.0,0.0,0.0,0.0,0.0,0.0,0.0,0.0,0.0,0.0,0.0,0.0,3.239,3.1964,0.0,0.0,0.0,0.0,0.0,3.2202,3.239,3.2428,0.0,0.0,0.0,0.0,3.3102,0.0,0.0,0.0,0.0,0.0,0.0,0.0,0.0,2.5693,2.5693,2.5693,2.5693,2.5693,2.5693,2.5693,2.5693,2.5693,2.5693,2.5693,2.5693,2.5693,2.5693,2.5693,2.5693,2.6125,2.7673,2.7767,2.8049,2.9521,2.9361,2.9498,3.0966,3.0765,3.0956,3.2469,3.1623,3.081,3.081,3.1325,3.1217,3.0021,3.065,3.064,2.9486,2.871,2.8291,2.8291,2.8291,2.8291,2.8291,2.8291,2.8291,2.8291,2.8291,2.8291,2.8291,2.8291,2.8291,2.8291,2.8291,2.8291,2.8291,2.8291,2.8291,2.8291,2.8291,2.8291,2.8291,2.8291,2.8291,2.8291,2.8291,2.8291,2.8291,0.0,0.0,0.0,0.0,0.0,0.0,0.0,0.0,2.3091,2.3091,2.3091,2.3091,2.3091,2.32,0.0,0.0,0.0,0.0,0.0,0.0,0.0,0.0,0.0,0.0,0.0,0.0,0.0,3.3027,3.2977,0.0,0.0,0.0,0.0,0.0,0.0,3.3027,3.3027,3.3077,0.0,0.0,0.0,0.0,0.0,0.0,0.0,0.0,0.0,2.7778,2.7542,2.6173,2.5693,2.5693,2.5693,2.5693,2.5693,2.5693,2.5693,2.5693,2.5693,2.5693,2.5693,2.5693,2.5693,2.5693,2.5693,2.5693,2.638,2.8739,2.8366,2.8296,3.0608,2.9246,2.8518,0.0,0.0,2.875,3.1033,3.0339,2.9567,2.9567,3.0041,2.9983,2.9014,2.9507,2.9466,2.8512,2.8342,2.8291,2.8291,2.8291,2.8291,2.8291,2.8291,2.8291,2.8291,2.8291,2.8291,2.8291,2.8291,2.8291,2.8291,2.8291,2.8291,2.8291,2.8291,2.8291,2.8291,2.8291,2.8291,2.8291,2.8291,2.8291,2.8291,2.8291,2.8291,2.8291,0.0,0.0,0.0,0.0,0.0,0.0,0.0,2.3091,2.3091,2.3091,2.3091,2.3091,2.3091,2.3091,0.0,0.0,0.0,0.0,0.0,0.0,0.0,0.0,0.0,0.0,0.0,0.0,3.2864,3.3102,3.3102,0.0,0.0,0.0,0.0,0.0,0.0,3.3102,3.3102,3.3102,0.0,0.0,0.0,0.0,0.0,0.0,0.0,0.0,0.0,0.0,2.74,2.6135,2.5693,2.5693,2.5693,2.5693,2.5693,2.5693,2.5693,2.5693,2.5693,2.5693,2.5693,2.5693,2.5693,2.5693,2.5693,2.5693,2.6197,2.7945,2.7329,2.721,2.9647,2.8098,2.7508,0.0,0.0,0.0,3.0855,2.9544,2.8588,2.9315,2.9441,2.9941,3.114,3.055,2.9569,2.8378,2.8291,2.8291,2.8291,2.8291,2.8291,2.8291,2.8291,2.8291,2.8291,2.8291,2.8291,2.8291,2.8291,2.8291,2.8291,2.8291,2.8291,2.8291,2.8291,2.8291,2.8291,2.8291,2.8291,2.8371,2.9181,2.9513,2.9608,3.0421,3.0188,2.9513,0.0,0.0,0.0,0.0,0.0,0.0,2.3091,2.3091,2.3091,2.3091,2.3091,2.3091,2.3091,2.3091,2.3091,2.3091,0.0,0.0,0.0,0.0,0.0,0.0,0.0,0.0,0.0,0.0,3.3102,3.3102,3.3102,3.3102,0.0,0.0,3.2896,3.2556,0.0,0.0,0.0,0.0,0.0,0.0,0.0,0.0,0.0,0.0,0.0,0.0,0.0,0.0,0.0,0.0,0.0,2.5693,2.5693,0.0,0.0,0.0,2.5693,2.5693,2.5693,2.5693,2.5693,2.5693,2.5693,2.5693,2.5693,2.5693,2.6062,2.7339,2.6596,2.6452,2.8947,2.7686,2.7234,0.0,0.0,2.8727,3.0429,2.8912,2.8179,2.975,2.9378,3.0014,3.2582,3.1288,2.9739,2.8398,2.8291,2.8291,2.8291,2.8291,2.8291,2.8291,2.8291,2.8291,2.8291,2.8291,2.8291,2.8291,2.8291,2.8291,2.8291,2.8291,2.8291,2.8291,2.8291,2.8291,2.8291,2.8291,2.8291,2.8388,2.9329,2.9713,2.9807,3.0773,3.0525,2.9713,0.0,0.0,0.0,0.0,0.0,0.0,0.0,2.3091,2.3091,2.3091,2.3091,2.3091,2.3091,2.3091,2.3091,2.3091,0.0,0.0,0.0,0.0,0.0,0.0,0.0,0.0,0.0,0.0,0.0,0.0,3.3102,3.3102,3.3102,3.3102,3.2426,3.1267,0.0,0.0,0.0,0.0,0.0,0.0,0.0,0.0,0.0,0.0,0.0,0.0,0.0,0.0,0.0,0.0,0.0,0.0,0.0,2.5693,2.5693,0.0,2.5693,2.5693,2.5693,2.5693,2.5693,2.5693,2.5693,2.5693,2.5693,2.5693,2.6062,2.7339,2.6596,2.6452,2.8947,2.8402,2.7979,0.0,0.0,0.0,2.943,2.8355,2.8495,3.0899,2.9891,2.9978,3.2453,3.1238,2.9739,2.8398,2.8291,2.8291,2.8291,2.8291,2.8291,2.8291,2.8291,2.8291,2.8291,2.8291,2.8291,2.8291,2.8291,2.8291,2.8291,2.8291,2.8291,2.8291,2.8291,2.8291,2.8291,2.8291,2.8291,2.8291,2.8318,2.8318,2.8318,2.8344,2.8318,2.8318,0.0,0.0,0.0,0.0,0.0,0.0,0.0,0.0,2.3091,2.3091,2.3091,2.3091,2.3091,2.3091,2.3091,2.3091,0.0,0.0,0.0,0.0,0.0,0.0,0.0,0.0,0.0,0.0,0.0,0.0,0.0,0.0,3.1821,3.2677,3.2426,3.1267,3.2534,3.2392,0.0,0.0,0.0,0.0,0.0,0.0,3.0485,0.0,0.0,0.0,0.0,0.0,0.0,0.0,0.0,0.0,0.0,0.0,0.0,2.5693,2.5693,2.5693,2.5693,2.5693,2.5693,2.5693,2.5693,2.5693,2.5693,2.5693,2.5805,2.6221,2.5965,2.6197,2.7861,2.7861,2.8002,0.0,0.0,0.0,2.8155,2.7838,2.8179,2.9784,3.0879,3.1398,3.1082,3.0591,3.011,2.9713,2.883,2.8291,2.8291,2.8291,2.8291,2.8291,2.8291,2.8291,2.8291,2.8291,2.8291,2.8291,2.8291,2.8291,2.8291,2.8291,2.8291,2.8291,2.8291,2.8291,2.8291,2.8291,2.8291,2.8398,2.9303,2.966,2.9885,3.1771,3.1286,2.9817,0.0,0.0,0.0,0.0,0.0,0.0,0.0,0.0,2.3091,2.3091,2.3091,2.3091,2.3091,2.3091,2.3159,2.3347,0.0,0.0,0.0,0.0,0.0,0.0,0.0,0.0,0.0,0.0,0.0,0.0,0.0,0.0,0.0,0.0,0.0,3.0586,3.1833,3.1689,0.0,0.0,0.0,0.0,0.0,0.0,2.9977,0.0,0.0,0.0,0.0,0.0,0.0,0.0,0.0,0.0,0.0,0.0,0.0,0.0,2.5693,2.5693,2.5693,2.5693,2.5693,2.5693,2.5693,2.5693,2.5693,2.5693,2.5693,2.5693,2.5693,2.6086,2.7363,2.7589,2.8002,2.92,2.8773,2.8272,2.8272,2.8272,2.8706,2.9829,3.2218,3.3041,3.1225,3.1531,3.1633,3.1096,3.0292,2.9581,2.9075,2.9049,2.882,2.8318,2.8291,2.8291,2.8291,2.8291,2.8291,2.8291,2.8291,2.8291,2.8291,2.8291,2.8291,2.8291,2.8291,2.8291,0.0,2.8291,2.8601,2.9128,2.9964,3.0618,3.125,3.298,3.2518,3.1173,0.0,0.0,0.0,0.0,0.0,0.0,0.0,0.0,0.0,0.0,0.0,2.3091,2.3091,2.312,0.0,0.0,0.0,0.0,0.0,0.0,0.0,0.0,0.0,0.0,0.0,0.0,0.0,3.1055,3.2326,3.2261,3.0944,0.0,0.0,0.0,3.0541,0.0,0.0,0.0,0.0,0.0,3.1677,3.11,0.0,0.0,0.0,0.0,0.0,0.0,0.0,0.0,0.0,0.0,0.0,0.0,0.0,0.0,0.0,0.0,0.0,2.5693,2.5693,2.5693,2.5693,2.5693,2.5693,2.5693,0.0,2.5693,2.5693,2.6086,2.7363,2.7589,2.7989,2.913,2.9383,2.9451,2.937,2.9531,3.0006,3.0974,3.3598,3.4602,3.2637,3.3539,3.3736,3.2543,3.2356,3.176,3.0514,3.0447,2.9859,2.8618,2.8575,2.8495,2.8291,2.8291,2.8291,2.8291,2.8291,2.8291,2.8291,2.8291,2.8291,2.8291,2.8291,2.8344,2.8441,2.8441,2.9234,3.0447,3.0447,3.1199,3.2306,3.2418,3.2381,3.2306,0.0,0.0,0.0,0.0,0.0,0.0,0.0,0.0,0.0,0.0,0.0,2.3091,2.3091,2.3415,0.0,0.0,0.0,0.0,0.0,0.0,0.0,0.0,0.0,0.0,0.0,0.0,0.0,2.9806,3.1045,3.0541,2.8495,3.0339,0.0,0.0,0.0,0.0,0.0,0.0,0.0,0.0,3.1311,3.009,0.0,0.0,0.0,0.0,2.7363,2.6969,0.0,0.0,0.0,0.0,0.0,0.0,0.0,0.0,2.5693,2.5693,2.5693,0.0,2.5693,2.5693,2.5693,2.5693,0.0,2.5693,2.5693,2.5693,2.5693,2.6086,2.7363,2.7589,2.7789,2.8399,2.9334,2.9796,2.9174,3.0823,3.2277,3.2828,3.3517,3.3959,3.3923,3.3229,3.3093,3.3846,3.2919,3.2154,3.1862,3.1825,3.1684,3.1378,3.1352,3.0369,2.8318,2.8291,2.8291,2.8291,2.8291,2.8291,2.8291,2.8291,2.8291,2.8291,2.8291,2.8873,2.9833,2.9833,3.0618,3.1825,3.1825,3.2028,3.2431,3.3514,3.3229,3.2457,0.0,0.0,0.0,0.0,0.0,0.0,0.0,0.0,0.0,0.0,0.0,0.0,0.0,0.0,0.0,0.0,0.0,0.0,0.0,0.0,0.0,0.0,0.0,0.0,0.0,0.0,0.0,0.0,0.0,2.9704,0.0,0.0,0.0,0.0,0.0,0.0,0.0,0.0,0.0,0.0,3.0608,0.0,0.0,0.0,0.0,0.0,2.7363,2.7149,0.0,2.6682,2.6269,2.5693,0.0,0.0,0.0,0.0,2.5693,2.5693,2.5693,2.5693,2.5693,2.5693,2.5693,2.5693,2.5693,2.5693,2.5693,2.5693,2.5693,2.6146,2.7599,2.7928,2.8267,2.9185,3.0019,3.062,3.0769,3.27,3.416,3.4406,3.4673,3.4965,3.5295,3.463,3.4496,3.5271,3.4605,3.3921,3.3304,3.2644,3.2306,3.2306,3.1698,3.0968,3.0136,3.0146,3.0146,3.0146,3.0146,3.0146,3.0146,3.0146,3.0146,3.0146,3.0146,3.0551,3.1224,3.1224,3.2039,3.3254,3.3254,3.365,3.4265,3.5042,3.4836,3.4301,0.0,0.0,0.0,0.0,0.0,0.0,0.0,0.0,0.0,0.0,0.0,0.0,0.0,0.0,0.0,0.0,0.0,0.0,0.0,0.0,0.0,0.0,0.0,0.0,0.0,0.0,0.0,0.0,0.0,0.0,0.0,0.0,0.0,0.0,0.0,0.0,0.0,0.0,0.0,3.1089,2.9886,0.0,0.0,0.0,0.0,0.0,0.0,0.0,0.0,2.6062,2.5693,2.5693,2.5693,0.0,0.0,0.0,0.0,0.0,2.5693,2.5854,2.5941,2.5757,2.5693,2.5693,2.5693,2.5767,2.5815,2.5815,2.5864,2.6393,2.8011,2.8254,2.8767,3.0559,3.1223,3.1976,3.3241,3.4717,3.5644,3.5644,3.6081,3.6405,3.6405,3.6405,3.6405,3.6405,3.6405,3.5906,3.4763,3.3576,3.2944,3.2944,3.1825,3.1774,3.2907,3.2507,3.2306,3.2306,3.2306,3.2306,3.2306,3.2306,3.2306,3.2306,3.2306,3.2406,3.2619,3.2619,3.3428,3.4702,3.4702,3.5391,3.6405,3.6405,3.6405,3.6405,0.0,0.0,0.0,0.0,0.0,0.0,0.0,0.0,0.0,0.0,0.0,0.0,0.0,0.0,0.0,0.0,0.0,0.0,0.0,0.0,0.0,0.0,0.0,0.0,0.0,0.0,0.0,0.0,0.0,0.0,2.7885,2.8727,2.9223,0.0,0.0,0.0,0.0,0.0,0.0,3.1089,2.9886,0.0,0.0,0.0,0.0,0.0,0.0,0.0,0.0,2.5781,2.5693,2.5693,2.5693,0.0,0.0,0.0,0.0,0.0,2.5693,2.6476,2.7064,2.5965,2.5693,2.5693,2.5693,2.6001,2.6289,2.6289,2.6572,2.7221,2.8615,2.7984,2.8177,3.108,3.2857,3.433,3.5694,3.6075,3.6256,3.6256,3.6331,3.6405,3.6405,3.6405,3.6405,3.6405,3.6405,3.631,3.6108,3.5882,3.5774,3.5774,3.5571,3.5547,3.5774,3.3466,3.2306,3.2306,3.2306,3.2306,3.2306,3.2306,3.2306,3.2306,3.2306,3.298,3.408,3.408,3.4872,3.6085,3.6085,3.6216,3.6405,3.6405,3.6405,3.6405,0.0,0.0,0.0,0.0,0.0,0.0,0.0,0.0,0.0,0.0,0.0,0.0,0.0,0.0,0.0,0.0,0.0,0.0,0.0,0.0,0.0,0.0,0.0,0.0,0.0,0.0,0.0,0.0,0.0,2.7932,2.8588,2.9818,3.0384,3.0406,0.0,0.0,0.0,0.0,3.1456,3.0248,0.0,0.0,0.0,0.0,0.0,0.0,0.0,0.0,0.0,0.0,2.5693,2.5693,2.5693,0.0,0.0,0.0,0.0,0.0,2.5693,2.6303,2.6814,2.6232,2.658,2.7061,2.7144,2.748,2.7806,2.7806,2.7944,2.8348,2.9228,2.9471,3.0583,3.3741,3.434,3.4884,3.6203,3.6405,3.6405,3.6405,3.6405,3.6405,3.6405,3.6405,3.6405,3.6405,3.6405,3.6405,3.6405,3.5715,3.5643,3.6381,3.5691,3.5667,3.6381,3.515,3.452,3.452,3.452,3.452,3.452,3.452,3.452,3.452,3.452,3.4872,3.5475,3.5475,3.5834,3.6405,3.6405,3.6405,3.6405,3.6405,3.6405,3.6405,0.0,0.0,0.0,0.0,0.0,0.0,0.0,0.0,0.0,0.0,0.0,0.0,0.0,0.0,0.0,0.0,0.0,0.0,0.0,0.0,0.0,0.0,0.0,0.0,0.0,0.0,2.7447,2.8026,2.7754,2.8366,2.9841,3.1067,3.1633,0.0,0.0,0.0,0.0,0.0,3.1557,2.9909,0.0,0.0,0.0,0.0,0.0,0.0,0.0,0.0,0.0,0.0,0.0,0.0,0.0,0.0,0.0,2.5693,2.5693,2.5713,2.5835,2.6345,2.6794,2.6579,2.7241,2.795,2.8059,2.8648,2.916,0.0,2.9483,2.9988,3.0655,3.1917,3.3488,3.5593,3.5319,3.5223,3.6263,3.6405,3.6405,3.6405,3.6405,3.6405,3.6405,3.6405,3.6405,3.6405,3.6405,3.6405,3.6405,3.5427,3.5343,3.6381,3.5391,3.5367,3.6381,3.6405,3.6405,3.6405,3.6405,3.6405,3.6405,3.6405,3.6405,3.6405,3.6405,3.6405,3.6405,3.6405,3.6405,3.6405,3.6405,3.6405,3.6405,3.6405,3.6405,3.6405,0.0,0.0,0.0,0.0,0.0,0.0,0.0,0.0,0.0,0.0,0.0,0.0,0.0,0.0,0.0,0.0,0.0,0.0,0.0,0.0,0.0,0.0,0.0,0.0,0.0,2.638,2.6948,2.9269,2.8155,2.8796,3.11,3.2382,3.2961,3.2918,0.0,0.0,0.0,0.0,3.1223,3.1089,3.1178,0.0,0.0,0.0,0.0,0.0,0.0,0.0,0.0,0.0,0.0,0.0,0.0,0.0,2.5693,2.5693,2.5693,2.5806,2.623,2.7184,2.7889,2.7134,2.7014,2.709,2.709,2.8406,0.0,2.9644,0.0,3.2467,3.3813,3.5162,3.5726,3.4727,3.5523,3.6287,3.6381,3.6405,3.6405,3.6405,3.6405,3.6405,3.6405,3.6405,3.6405,3.6405,3.6405,3.6405,3.6405,3.631,3.631,3.6405,3.631,3.631,3.6405,3.6405,3.6405,3.6405,3.6405,3.6405,3.6405,3.6405,3.6405,3.6405,3.6405,3.6405,3.6405,3.6405,3.6405,3.6405,3.6405,3.6405,3.6405,3.6405,3.6405,3.6405,0.0,0.0,0.0,0.0,0.0,0.0,0.0,0.0,0.0,0.0,0.0,0.0,0.0,0.0,0.0,0.0,0.0,0.0,0.0,0.0,0.0,0.0,0.0,2.7589,2.7589,2.7851,2.8085,2.8272,2.9338,3.071,3.2392,3.2862,0.0,0.0,0.0,0.0,0.0,0.0,0.0,3.1267,3.2052,3.1921,0.0,0.0,0.0,0.0,0.0,0.0,0.0,0.0,2.5693,2.5693,2.5693,2.5693,2.5767,2.604,2.6143,2.624,2.666,2.7309,2.7827,2.7502,2.7617,0.0,0.0,3.0655,3.1308,3.1308,3.2544,0.0,3.4312,3.5499,3.6227,3.5715,3.6061,3.6405,3.6405,3.6405,3.6405,3.6405,3.6405,3.6405,3.6405,3.6405,3.6405,3.6405,3.6405,3.6405,3.6405,3.6405,3.6405,3.6405,3.6405,3.6405,3.6405,3.6405,3.6405,3.6405,3.6405,3.6405,3.6405,3.6405,3.6405,3.6405,3.6405,3.6405,3.6405,3.6405,3.6405,3.6405,3.6405,3.6405,3.6405,3.6405,3.6405,3.6405,0.0,0.0,0.0,0.0,0.0,0.0,0.0,0.0,0.0,0.0,0.0,0.0,0.0,0.0,0.0,0.0,0.0,0.0,0.0,0.0,0.0,0.0,0.0,2.7767,2.8155,2.9338,2.9567,2.875,3.0799,3.2261,3.3102,0.0,0.0,0.0,0.0,0.0,0.0,0.0,0.0,0.0,3.2754,3.259,0.0,0.0,0.0,0.0,0.0,0.0,0.0,0.0,2.5693,2.5737,2.5874,2.5923,2.6001,2.6465,2.6898,2.7227,2.7227,2.7758,2.8369,2.8483,0.0,0.0,3.2002,3.242,3.2443,3.2869,3.3723,3.4532,3.4945,3.5439,3.5918,3.6334,3.6405,3.6405,3.6405,3.6405,3.6444,3.662,3.6645,3.6708,3.6884,3.6746,3.6645,3.6645,3.6505,3.6405,3.6405,3.6405,3.6405,3.6405,3.6405,3.6405,3.6405,3.6405,3.6405,3.6405,3.6405,3.6405,3.6405,3.6405,3.6405,3.6405,3.6405,3.6405,3.6405,3.6405,3.6405,3.6405,3.6405,3.6405,3.6405,3.6405,3.6405,3.6405,0.0,0.0,0.0,0.0,0.0,0.0,0.0,0.0,0.0,0.0,0.0,0.0,0.0,0.0,0.0,0.0,0.0,0.0,0.0,0.0,0.0,0.0,0.0,2.8179,2.9361,3.0586,3.1223,3.1223,3.2469,3.3102,3.3102,3.3102,0.0,0.0,0.0,0.0,0.0,0.0,0.0,0.0,3.3102,3.3102,3.2961,0.0,0.0,0.0,0.0,0.0,0.0,0.0,2.5718,2.5806,2.626,2.6412,2.65,2.6894,2.7935,2.8794,2.7954,2.869,2.9812,3.0202,3.0317,3.103,3.3773,3.3304,3.2694,3.4104,3.441,3.4799,3.6132,3.5331,3.486,3.6192,3.6417,3.643,3.643,3.643,3.6607,3.7148,3.7223,3.7436,3.7952,3.7513,3.7223,3.7223,3.6708,3.643,3.643,3.643,3.6394,3.6417,3.6417,3.6417,3.6405,3.6405,3.6405,3.6405,3.6405,3.6405,3.6405,3.6405,3.6405,3.6405,3.6405,3.6405,3.6405,3.6405,3.6405,3.6405,3.6405,3.6405,3.6405,3.6405,3.6405,3.6405,0.0,0.0,0.0,0.0,0.0,0.0,0.0,0.0,0.0,0.0,0.0,0.0,0.0,0.0,0.0,0.0,0.0,0.0,0.0,0.0,0.0,0.0,0.0,0.0,0.0,0.0,3.2547,3.2547,3.203,3.2217,0.0,0.0,0.0,3.3102,0.0,0.0,0.0,0.0,0.0,0.0,3.3102,3.3102,3.2961,0.0,0.0,0.0,0.0,0.0,0.0,0.0,0.0,0.0,2.708,2.7477,2.8139,2.7643,2.7772,2.8084,2.812,2.9094,3.015,3.026,3.1019,3.2191,3.4006,3.3304,0.0,3.4104,3.441,3.4799,3.6132,3.6372,3.6513,3.6887,3.7286,3.7525,3.7525,3.7525,3.7575,3.7739,3.7764,3.7826,3.799,3.7864,3.7764,3.7764,3.7613,3.7525,3.7525,3.7525,3.7337,3.6972,3.6959,3.6783,3.6405,3.6405,3.6405,3.6405,3.6405,3.6405,3.6405,3.6405,3.6405,3.6405,3.6405,3.6405,3.6405,3.6405,3.6405,3.6405,3.6405,3.6405,3.6405,3.6405,3.6405,3.6405,0.0,0.0,0.0,0.0,0.0,0.0,0.0,0.0,0.0,0.0,0.0,0.0,0.0,0.0,0.0,0.0,0.0,0.0,0.0,0.0,0.0,0.0,0.0,0.0,0.0,3.138,3.2108,0.0,0.0,0.0,0.0,0.0,0.0,3.3102,0.0,3.3102,0.0,0.0,3.3429,3.3442,3.3646,3.3734,3.3655,0.0,0.0,0.0,0.0,0.0,0.0,0.0,0.0,0.0,2.8264,2.8249,2.8508,2.8682,2.9115,2.957,2.9813,3.0876,3.1923,3.1923,3.2543,3.3411,3.4475,3.4296,3.4226,3.5284,3.5088,3.5185,3.6744,3.6873,3.6912,3.7427,3.7789,3.8002,3.8002,3.8002,3.809,3.8329,3.8354,3.8429,3.8655,3.8479,3.8354,3.8354,3.814,3.8002,3.8002,3.8002,3.7852,3.7525,3.7513,3.7349,3.7047,3.7034,3.6934,3.6708,3.6708,3.6595,3.6405,3.6405,3.6405,3.6405,3.6405,3.6405,3.6405,3.6405,3.6405,3.6405,3.6405,3.6405,3.6405,3.6405,3.6405,3.6405,0.0,0.0,0.0,0.0,0.0,0.0,0.0,0.0,0.0,0.0,2.5693,0.0,0.0,0.0,0.0,0.0,0.0,0.0,0.0,0.0,0.0,0.0,0.0,0.0,0.0,0.0,0.0,0.0,0.0,0.0,0.0,0.0,3.3102,3.3102,0.0,3.3178,0.0,3.3746,3.3972,3.4022,3.449,3.4703,3.4703,3.4703,0.0,0.0,0.0,0.0,0.0,0.0,0.0,0.0,2.9699,2.9091,2.8573,2.9917,3.125,3.2306,3.2306,3.3329,3.441,3.441,3.4519,3.4808,3.5324,3.6014,3.6646,3.7028,3.6223,3.5985,3.7704,3.7043,3.6652,3.7867,3.8128,3.8153,3.8153,3.8153,3.8354,3.8906,3.8969,3.917,3.9647,3.9271,3.8969,3.8969,3.8454,3.8153,3.8153,3.8153,3.814,3.809,3.809,3.8065,3.8002,3.8002,3.7751,3.7286,3.7286,3.7022,3.6532,3.6431,3.6405,3.6405,3.6405,3.6405,3.6405,3.6405,3.6405,3.6405,3.6405,3.6405,3.6405,3.6405,3.6405,3.6405,0.0,0.0,0.0,0.0,0.0,0.0,0.0,0.0,0.0,0.0,0.0,0.0,0.0,0.0,0.0,0.0,0.0,0.0,0.0,0.0,0.0,0.0,0.0,0.0,0.0,0.0,0.0,0.0,0.0,0.0,0.0,0.0,0.0,3.3115,0.0,3.3721,3.3759,3.4289,3.4527,3.454,3.4653,3.4703,3.4703,3.4703,3.4703,0.0,0.0,0.0,0.0,0.0,0.0,0.0,3.0822,3.144,3.2605,3.0818,3.125,3.2306,3.2306,3.3329,3.441,3.441,3.5515,3.6748,3.7283,3.7529,3.7393,3.6461,3.686,3.7518,3.7928,3.8141,3.8365,3.8655,3.9044,3.9333,3.9333,3.9333,3.9371,3.9496,3.9547,3.9559,3.9685,3.9584,3.9547,3.9547,3.9396,3.9333,3.9333,3.9333,3.9132,3.8718,3.8705,3.8492,3.8015,3.8002,3.7952,3.7826,3.7826,3.7764,3.7626,3.6783,3.6405,3.6405,3.6405,3.6405,3.6405,3.6405,3.6405,3.6405,3.6405,3.6405,3.6405,3.6405,3.6405,3.6405,0.0,0.0,0.0,0.0,0.0,0.0,0.0,0.0,0.0,0.0,0.0,0.0,0.0,0.0,0.0,0.0,0.0,0.0,0.0,0.0,0.0,0.0,0.0,0.0,0.0,0.0,0.0,0.0,0.0,0.0,0.0,0.0,0.0,3.3872,0.0,3.4276,3.4324,3.4853,3.5069,3.5117,3.5403,3.5504,3.5504,3.5504,3.5504,3.5435,3.4793,0.0,0.0,0.0,0.0,0.0,0.0,0.0,3.3254,3.2504,3.2292,3.2582,3.391,3.4515,3.4999,3.5892,3.6862,3.7726,3.8291,3.8417,3.8304,3.7869,3.8114,3.8504,3.8768,3.9057,3.9296,3.9296,3.9534,3.9697,3.9697,3.9697,3.9697,3.9697,3.9697,3.9697,3.9697,3.9697,3.9697,3.9697,3.9697,3.9697,3.9697,3.9697,3.9559,3.9296,3.9296,3.912,3.8818,3.8818,3.868,3.8417,3.8417,3.8278,3.7977,3.716,3.6632,3.6405,3.6405,3.6405,3.6405,3.6405,3.6405,3.6405,3.6405,3.6405,3.6405,3.6405,3.6405,3.6405,0.0,0.0,0.0,0.0,0.0,0.0,0.0,0.0,0.0,0.0,0.0,0.0,0.0,0.0,0.0,0.0,0.0,0.0,0.0,0.0,0.0,0.0,0.0,0.0,0.0,0.0,0.0,0.0,0.0,0.0,0.0,0.0,0.0,3.4703,0.0,0.0,3.4879,3.5431,3.5669,3.5707,3.6205,3.6405,3.6405,3.6405,0.0,3.6405,3.6405,3.6405,3.6405,3.6405,0.0,0.0,0.0,0.0,3.3193,3.4129,3.3795,3.3643,3.5922,3.6112,3.6084,3.7755,3.8153,3.8304,3.8906,3.9032,3.917,3.9597,3.9359,3.917,3.9609,3.9697,3.9697,3.9697,3.9697,3.9697,3.9697,3.9697,3.9697,3.9697,3.9697,3.9697,3.9697,3.9697,3.9697,3.9697,3.9697,3.9697,3.9697,3.9697,3.9697,3.9697,3.9697,3.9697,3.9697,3.9697,3.9497,3.9032,3.9032,3.8743,3.814,3.7713,3.7198,3.6658,3.6593,3.6556,3.6543,3.6455,3.6405,3.6405,3.6405,3.6405,3.6405,3.6405,3.6405,3.6405,0.0,0.0,0.0,0.0,0.0,0.0,0.0,0.0,0.0,0.0,0.0,0.0,0.0,0.0,0.0,0.0,0.0,0.0,2.5693,0.0,0.0,3.0855,3.0966,0.0,0.0,0.0,0.0,0.0,0.0,0.0,0.0,0.0,0.0,3.4728,0.0,0.0,0.0,3.6019,3.6281,3.6281,3.638,3.6405,3.6405,0.0,0.0,0.0,3.6405,3.6405,3.6405,3.6405,3.6287,0.0,0.0,0.0,3.5655,3.4678,3.5417,3.6637,3.7001,3.734,3.7817,3.858,3.8781,3.8919,3.9484,3.9584,3.9597,3.9685,3.9634,3.9635,3.9685,3.9697,3.9697,3.9697,3.9697,3.9697,3.9697,3.9697,3.9697,3.9697,3.9697,3.9697,3.9697,3.9697,3.9697,3.9697,3.9697,3.9697,3.9697,3.9697,3.9697,3.9697,3.9697,3.9697,3.9697,3.9697,3.9659,3.9584,3.9584,3.9321,3.8781,3.8705,3.8354,3.7764,3.7274,3.7097,3.706,3.6582,3.6405,3.6405,3.6405,3.6405,3.6405,3.6405,3.6405,3.6405,0.0,0.0,0.0,0.0,0.0,0.0,0.0,0.0,0.0,0.0,0.0,0.0,0.0,0.0,0.0,2.5693,2.5693,2.5989,2.6706,2.8564,3.009,3.1144,3.2178,3.2715,0.0,0.0,0.0,0.0,0.0,0.0,0.0,3.5755,3.5665,0.0,0.0,0.0,0.0,0.0,3.6405,3.6405,3.6405,3.6405,0.0,0.0,0.0,0.0,0.0,0.0,3.6405,3.6405,3.6405,3.631,3.5715,0.0,0.0,0.0,3.6235,3.6588,3.6881,3.7704,3.8655,3.922,3.9359,3.9421,3.9634,3.9697,3.9697,3.9697,3.9697,3.9697,3.9697,3.9697,3.9697,3.9697,3.9697,3.9697,3.9697,3.9697,3.9697,3.9697,3.9697,3.9697,3.9697,3.9697,3.9697,3.9697,3.9697,3.9697,3.9697,3.9697,3.9697,3.9697,3.9697,3.9697,3.9697,3.9697,3.9697,3.9697,3.9697,3.9572,3.9359,3.9359,3.8843,3.799,3.7751,3.7651,3.7626,3.7374,3.7122,3.6846,3.6846,3.6658,3.6405,3.6405,3.6405,3.6405,0.0,0.0,0.0,0.0,0.0,0.0,0.0,0.0,0.0,0.0,0.0,0.0,0.0,0.0,0.0,0.0,2.6452,2.7163,2.8425,3.0203,3.1415,3.1882,3.3184,3.396,3.411,0.0,0.0,0.0,0.0,0.0,3.6405,3.6405,3.6405,0.0,3.6405,3.6405,0.0,0.0,0.0,0.0,0.0,0.0,0.0,0.0,0.0,0.0,0.0,0.0,0.0,3.6808,3.6808,3.6808,3.6808,3.7085,0.0,0.0,0.0,3.6843,3.7387,3.8304,3.9208,3.9597,3.9697,3.9697,3.9697,3.9697,3.9697,3.9697,3.9697,3.9697,3.9697,3.9697,3.9697,3.9697,3.9697,3.9697,3.9697,3.9697,3.9697,3.9697,3.9697,3.9697,3.9697,3.9697,3.9697,3.9697,3.9697,3.9697,3.9697,3.9697,3.9697,3.9697,3.9697,3.9697,3.9697,3.9697,3.9697,3.9697,3.9697,3.9697,3.9697,3.9697,3.9233,3.8429,3.8291,3.8228,3.8216,3.8065,3.7764,3.7387,3.7387,3.7085,3.6595,3.6595,3.6531,3.6405,0.0,0.0,0.0,0.0,0.0,0.0,0.0,0.0,0.0,0.0,0.0,0.0,0.0,2.6778,2.7494,2.7494,2.8541,2.9727,3.0922,3.1134,3.1972,3.369,3.384,0.0,3.464,0.0,0.0,0.0,0.0,0.0,3.6405,3.6405,3.6405,3.6405,3.6405,3.6405,3.6405,0.0,0.0,0.0,0.0,0.0,0.0,0.0,0.0,0.0,0.0,0.0,0.0,0.0,3.7927,3.7927,3.7927,3.7939,3.7965,0.0,0.0,0.0,3.9393,3.9595,3.9659,3.9685,3.9697,3.9697,3.9697,3.9697,3.9697,3.9697,3.9697,3.9697,3.9697,3.9697,3.9697,3.9697,3.9697,3.9697,3.9697,3.9697,3.9697,3.9697,3.9697,3.9697,3.9697,3.9697,3.9697,3.9697,3.9697,3.9697,3.9697,3.9697,3.9697,3.9697,3.9697,3.9697,3.9697,3.9697,3.9697,3.9697,3.9697,3.9697,3.9697,3.9697,3.9659,3.9572,3.907,3.8856,3.8806,3.8228,3.799,3.7965,3.7965,3.7626,3.7173,3.7173,3.6833,3.6405,0.0,0.0,0.0,0.0,0.0,0.0,0.0,0.0,0.0,0.0,0.0,0.0,0.0,2.8471,2.875,2.875,2.9863,3.0895,3.171,3.251,3.338,3.4354,3.4741,3.5029,3.5207,0.0,0.0,0.0,0.0,3.6405,3.6405,3.6405,3.6405,3.6405,3.6405,3.6405,3.6405,3.6405,0.0,0.0,0.0,0.0,0.0,0.0,0.0,0.0,0.0,0.0,0.0,0.0,0.0,0.0,0.0,0.0,3.8655,3.8981,3.9233,3.9472,3.9634,3.9697,3.9697,3.9697,3.9697,3.9697,3.9697,3.9697,3.9697,3.9697,3.9697,3.9697,3.9697,3.9697,3.9697,3.9697,3.9697,3.9697,3.9697,3.9697,3.9697,3.9697,3.9697,3.9697,3.9697,3.9697,3.9697,3.9697,3.9697,3.9697,3.9697,3.9697,3.9697,3.9697,3.9697,3.9697,3.9697,3.9697,3.9697,3.9697,3.9697,3.9697,3.9697,3.9697,3.9697,3.9685,3.9484,3.9421,3.9409,3.917,3.8881,3.8592,3.8592,3.8216,3.7663,3.7336,3.7085,3.6859,0.0,0.0,0.0,0.0,0.0,0.0,0.0,0.0,0.0,0.0,0.0,0.0,0.0,0.0,3.025,3.0865,3.182,3.2533,3.2954,3.3724,3.4424,3.4954,3.5307,3.5583,3.5794,0.0,0.0,0.0,0.0,0.0,0.0,3.6405,3.6505,3.6658,3.6658,3.6581,0.0,0.0,0.0,3.6708,0.0,0.0,3.75,0.0,0.0,0.0,0.0,0.0,0.0,0.0,0.0,0.0,0.0,0.0,0.0,0.0,3.9697,3.9697,3.9697,3.9697,3.9697,3.9697,3.9697,3.9697,3.9697,3.9697,3.9697,3.9697,3.9697,3.9697,3.9697,3.9697,3.9697,3.9697,3.9697,3.9697,3.9697,3.9697,3.9697,3.9697,3.9697,3.9697,3.9697,3.9697,3.9697,3.9697,3.9697,3.9697,3.9697,3.9697,3.9697,3.9697,3.9697,3.9697,3.9697,3.9697,3.9697,3.9697,3.9697,3.9697,3.9697,3.9697,3.9697,3.9697,3.9697,3.9697,3.9697,3.9697,3.9484,3.917,3.917,3.8793,3.8253,3.7914,3.7537,3.716,0.0,0.0,0.0,0.0,0.0,0.0,0.0,0.0,0.0,0.0,0.0,0.0,0.0,0.0,0.0,3.3762,3.4389,3.4703,3.4728,3.4728,3.4966,3.5495,3.552,3.5794,3.6405,0.0,0.0,0.0,0.0,0.0,0.0,0.0,3.6708,3.7235,3.7235,3.6934,3.6493,0.0,3.7235,3.7286,0.0,3.804,3.804,0.0,0.0,0.0,3.8919,3.9271,0.0,3.9697,0.0,0.0,0.0,0.0,0.0,0.0,0.0,0.0,0.0,0.0,0.0,3.9697,3.9697,3.9697,3.9697,3.9697,3.9697,3.9697,3.9697,3.9697,3.9697,3.9697,3.9697,3.9697,3.9697,3.9697,3.9697,3.9697,3.9697,3.9697,3.9697,3.9697,3.9697,3.9697,3.9697,3.9697,3.9697,3.9697,3.9697,3.9697,3.9697,3.9697,3.9697,3.9697,3.9697,3.9697,3.9697,3.9697,3.9697,3.9697,3.9697,3.9697,3.9697,3.9697,3.9697,3.9697,3.9697,3.9697,3.9697,3.9697,3.9697,3.9396,3.8919,3.8906,3.8203,3.7248,0.0,0.0,0.0,0.0,0.0,0.0,0.0,0.0,0.0,0.0,0.0,0.0,0.0,0.0,0.0,3.443,3.4603,3.4866,3.5245,3.527,3.5544,3.613,3.6155,3.623,3.6405,3.6405,0.0,0.0,0.0,0.0,0.0,0.0,0.0,0.0,3.7776,3.7701,3.7563,3.7713,0.0,3.7826,3.8429,3.8655,3.8705,3.9069,3.932,3.9497,3.9497,3.9559,3.9697,0.0,3.9697,3.9697,0.0,0.0,0.0,0.0,0.0,0.0,3.9697,0.0,0.0,0.0,0.0,0.0,3.9697,3.9697,3.9697,3.9697,3.9697,3.9697,3.9697,3.9697,3.9697,3.9697,3.9697,3.9697,3.9697,3.9697,3.9697,3.9697,3.9697,3.9697,3.9697,3.9697,3.9697,3.9697,3.9697,3.9697,3.9697,3.9697,3.9697,3.9697,3.9697,3.9697,3.9697,3.9697,3.9697,3.9697,3.9697,3.9697,3.9697,3.9697,3.9697,3.9697,3.9697,3.9697,3.9697,3.9697,3.9697,3.9697,3.9697,3.9597,3.9446,3.9044,3.8705,3.8316,0.0,0.0,0.0,0.0,0.0,0.0,0.0,0.0,0.0,0.0,0.0,0.0,0.0,0.0,0.0,0.0,3.5255,3.5542,3.5868,3.5893,3.6031,3.6392,3.6405,3.6405,3.6405,3.6607,0.0,0.0,0.0,0.0,0.0,0.0,0.0,0.0,0.0,0.0,0.0,0.0,3.858,3.8417,3.9007,3.9245,3.9271,3.9572,3.9697,3.9697,3.9697,3.9697,3.9697,3.9697,3.9697,0.0,0.0,0.0,0.0,0.0,0.0,0.0,0.0,0.0,0.0,3.9697,0.0,0.0,3.9697,3.9697,3.9697,3.9697,3.9697,3.9697,3.9697,3.9697,3.9697,3.9697,3.9697,3.9697,3.9697,3.9697,3.9697,3.9697,3.9697,3.9697,3.9697,3.9697,3.9697,3.9697,3.9697,3.9697,3.9697,3.9697,3.9697,3.9697,3.9697,3.9697,3.9697,3.9697,3.9697,3.9697,3.9697,3.9697,3.9697,3.9697,3.9697,3.9697,3.9697,3.9697,3.9697,3.9697,3.9697,3.9697,3.9697,3.9697,3.9647,3.9359,3.9095,3.8768,0.0,0.0,0.0,0.0,0.0,0.0,0.0,0.0,0.0,0.0,0.0,0.0,0.0,0.0,0.0,0.0,3.6081,3.6405,3.6405,3.6405,3.643,3.6505,3.6505,3.6531,3.6593,3.7047,0.0,0.0,0.0,0.0,0.0,0.0,0.0,0.0,0.0,0.0,0.0,0.0,3.9408,3.9032,3.9522,3.9697,3.9697,3.9697,3.9697,3.9697,3.9697,3.9697,3.9697,3.9697,3.9697,0.0,0.0,0.0,0.0,0.0,3.9697,0.0,0.0,0.0,0.0,0.0,3.9697,0.0,3.9697,3.9697,3.9697,3.9697,3.9697,3.9697,3.9697,3.9697,3.9697,3.9697,3.9697,3.9697,3.9697,3.9697,3.9697,3.9697,3.9697,3.9697,3.9697,3.9697,3.9697,3.9697,3.9697,3.9697,3.9697,3.9697,3.9697,3.9697,3.9697,3.9697,3.9697,3.9697,3.9697,3.9697,3.9697,3.9697,3.9697,3.9697,3.9697,3.9697,3.9697,3.9697,3.9697,3.9697,3.9697,3.9697,3.9697,3.9697,3.9697,3.9697,3.9409,3.8906,3.0445,0.0,0.0,0.0,0.0,0.0,0.0,0.0,0.0,0.0,0.0,0.0,0.0,0.0,0.0,0.0,0.0,3.6405,3.6405,3.6405,3.6582,3.7034,3.7047,3.7261,3.7676,3.7789,3.7839,0.0,0.0,0.0,0.0,0.0,0.0,0.0,0.0,0.0,0.0,3.9697,3.9634,3.9546,3.9647,3.9697,3.9697,3.9697,3.9697,3.9697,3.9697,3.9697,3.9697,3.9697,3.9697,3.9697,3.9697,3.9697,3.9697,3.9697,0.0,0.0,0.0,0.0,0.0,3.9697,3.9697,0.0,3.9697,3.9697,3.9697,3.9697,3.9697,3.9697,3.9697,3.9697,3.9697,3.9697,3.9697,3.9697,3.9697,3.9697,3.9697,3.9697,3.9697,3.9697,3.9697,3.9697,3.9697,3.9697,3.9697,3.9697,3.9697,3.9697,3.9697,3.9697,3.9697,3.9697,3.9697,3.9697,3.9697,3.9697,3.9697,3.9697,3.9697,3.9697,3.9697,3.9697,3.9697,3.9697,3.9697,3.9697,3.9697,3.9697,3.9697,3.9697,3.9697,3.9697,3.9622,3.9484,3.2007,0.0,0.0,0.0,0.0,0.0,0.0,0.0,0.0,0.0,0.0,0.0,0.0,0.0,0.0,0.0,0.0,0.0,0.0,0.0,3.7336,3.7575,3.76,3.7726,3.8002,3.8291,3.8442,0.0,0.0,0.0,0.0,0.0,0.0,0.0,0.0,0.0,0.0,3.9697,3.9697,3.9697,3.9697,3.9697,3.9697,3.9697,3.9697,3.9697,3.9697,3.9697,3.9697,3.9697,3.9873,4.0061,3.9785,3.9885,4.0111,4.0111,3.991,3.9747,0.0,0.0,3.9697,3.9697,3.9697,0.0,0.0,3.9697,3.9697,3.9697,3.9697,3.9697,3.9697,3.9697,3.9697,3.9697,3.9697,3.9697,3.9697,3.9697,3.9697,3.9697,3.9697,3.9697,3.9697,3.9697,3.9697,3.9697,3.9697,3.9697,3.9697,3.9697,3.9697,3.9697,3.9697,3.9697,3.9697,3.9697,3.9697,3.9697,3.9697,3.9697,3.9697,3.9697,3.9697,3.9697,3.9697,3.9697,3.9697,3.9697,3.9697,3.9697,3.9697,3.9697,3.9788,4.0415,4.0642,4.0666,3.3571,0.0,0.0,0.0,0.0,0.0,0.0,0.0,0.0,0.0,0.0,0.0,0.0,0.0,0.0,0.0,0.0,0.0,0.0,0.0,3.8052,3.8165,3.8165,3.8216,3.8329,3.8793,3.9057,0.0,0.0,0.0,0.0,0.0,0.0,0.0,0.0,0.0,3.9848,3.9848,3.991,4.0011,4.0011,3.9948,3.9873,3.9973,4.0011,4.0011,4.0011,4.0011,4.0011,4.0011,4.0312,4.0575,4.0149,4.0325,4.065,4.065,4.0362,4.0111,4.0537,4.035,4.0011,4.0011,4.0011,4.0011,0.0,0.0,0.0,3.9873,3.9848,3.9823,3.971,3.9697,3.9659,3.9546,3.9622,3.9647,3.9546,3.9622,3.9697,3.9697,3.9697,3.9697,3.9697,3.9697,3.9697,3.9697,3.9697,3.9697,3.9697,3.9697,3.9697,3.9697,3.9697,3.9697,3.9697,3.9697,3.9697,3.9697,3.9697,3.9697,3.9697,3.9697,3.9697,3.9697,3.9697,3.9697,3.9723,3.9955,4.0083,4.0083,4.0083,4.0083,4.0224,4.1505,4.1985,4.2052,3.5992,3.6122,0.0,0.0,0.0,0.0,0.0,0.0,0.0,0.0,0.0,0.0,0.0,0.0,0.0,0.0,0.0,0.0,3.8002,0.0,0.0,3.8768,3.8806,3.9019,3.9496,3.9572,3.9597,3.9597,0.0,0.0,0.0,0.0,0.0,0.0,3.9697,3.9961,4.0399,4.0399,4.0675,4.1127,4.1127,4.0838,4.0449,4.0938,4.1127,4.1127,4.1127,4.1127,4.1127,4.1127,4.1164,4.1202,4.1152,4.1177,4.1227,4.1227,4.1177,4.1139,4.1175,4.1177,4.1127,4.1127,4.1127,4.1127,4.1127,0.0,4.0989,4.0499,0.0,4.0275,3.9785,0.0,0.0,3.907,3.9396,3.9521,3.9057,3.9383,3.9697,3.9697,3.9697,3.9697,3.9697,3.9697,3.9697,3.9697,3.9697,3.9697,3.9697,3.9697,3.9697,3.9697,3.9697,3.9697,3.9697,3.9697,3.9697,3.9697,3.9697,3.9697,3.9697,3.9697,3.9697,3.9697,3.9697,3.9697,3.9788,4.0907,4.1381,4.1381,4.1381,4.1381,4.153,4.281,4.3289,4.33,3.6444,3.6405,0.0,0.0,0.0,0.0,0.0,0.0,0.0,0.0,0.0,0.0,0.0,0.0,0.0,0.0,0.0,3.8981,3.8981,0.0,0.0,3.9333,3.9371,3.9484,3.9685,3.9697,3.9697,3.9697,3.9697,0.0,0.0,0.0,0.0,0.0,4.0487,4.075,4.0964,4.0964,4.1102,4.134,4.1681,4.1695,4.1482,4.1352,4.1315,4.1315,4.1315,4.1315,4.1315,4.1315,4.1516,4.1756,4.1415,4.1528,4.1806,4.1806,4.1553,4.139,4.1731,4.1553,4.1315,4.1315,4.1315,4.1315,4.1315,4.1315,4.1252,4.1014,0.0,0.0,0.0,0.0,0.0,0.0,3.9546,3.9609,3.9409,3.9546,3.9697,3.9697,3.9697,3.9697,3.9697,3.9697,3.9697,3.9697,3.9697,3.9697,3.9697,3.9697,3.9697,3.9697,3.9697,3.9697,3.9697,3.9697,3.9697,3.9697,3.9697,3.9697,3.9697,3.9697,3.9697,3.9736,4.0478,4.0794,4.0907,4.2168,4.2689,4.2786,4.3527,4.3361,4.2858,4.4139,4.4595,4.4711,3.6909,0.0,0.0,0.0,0.0,0.0,0.0,0.0,0.0,0.0,0.0,0.0,3.8467,3.8869,0.0,0.0,3.9497,3.9697,3.9697,0.0,3.9697,0.0,3.9697,3.9697,3.9697,3.9697,3.9772,3.9923,0.0,0.0,0.0,0.0,0.0,0.0,4.1139,4.139,4.1541,4.1541,4.1616,4.1792,4.2248,4.2439,4.2361,4.1944,4.1766,4.1766,4.1766,4.1766,4.1766,4.1766,4.2057,4.2336,4.1907,4.2057,4.2439,4.2439,4.2095,4.1854,4.2298,4.2082,4.1766,4.1766,4.1766,4.1766,4.1766,4.1766,4.1716,4.1593,4.1241,0.0,0.0,0.0,0.0,0.0,0.0,3.9647,3.9484,3.9597,3.9697,3.9697,3.9697,3.9697,3.9697,3.9697,3.9697,3.9697,3.9697,3.9697,3.9697,3.9697,3.9697,3.9697,3.9697,3.9697,3.9697,3.9697,3.9697,3.9697,3.9697,3.9697,3.9697,3.9697,3.989,4.0262,4.1194,4.1789,4.2217,4.3504,4.4022,4.4139,4.5426,4.5358,4.4642,4.5584,4.5928,4.604,3.7952,3.7952,0.0,0.0,3.7977,0.0,0.0,0.0,3.8869,3.8869,3.9333,3.9647,3.9647,3.9659,3.9672,3.9672,3.9685,3.9697,3.9697,3.9697,3.9697,0.0,0.0,3.9697,3.9697,3.9697,3.9961,4.0462,4.0462,0.0,0.0,0.0,0.0,0.0,4.1275,4.163,4.2187,4.2187,4.2462,4.2951,4.2977,4.2977,4.2977,4.2964,4.2951,4.2951,4.2951,4.2951,4.2951,4.2951,4.2964,4.2977,4.2964,4.2964,4.2977,4.2977,4.2964,4.2951,4.2977,4.2964,4.2951,4.2951,4.2951,4.2951,4.2951,4.2951,4.2801,4.2288,4.2162,4.1808,4.0714,0.0,0.0,0.0,0.0,0.0,0.0,3.9384,3.9697,3.9697,3.9697,3.9697,3.9697,3.9697,3.9697,3.9697,3.9697,3.9697,3.9697,3.9697,3.9697,3.9697,3.9697,3.9697,3.9697,3.9697,3.9697,3.9697,3.9697,3.9697,3.9697,3.9697,4.0364,4.153,4.1579,4.229,4.3551,4.4803,4.5358,4.5471,4.6726,4.7207,4.7186,4.7207,4.7229,4.7229,3.9057,0.0,0.0,3.8668,3.8605,3.873,3.9069,3.9295,3.9446,3.9446,3.9584,3.9697,3.9697,3.9697,3.9697,3.9697,3.9697,3.9697,3.9697,3.9697,3.9697,3.9697,4.0049,4.0237,0.0,4.0575,4.0851,4.1039,0.0,0.0,0.0,0.0,0.0,0.0,4.2258,4.2522,4.2725,4.2725,4.2826,4.3002,4.3002,4.3002,4.3002,4.3002,4.3002,4.3002,4.3002,4.3002,4.3002,4.3002,4.3002,4.3002,4.3002,4.3002,4.3002,4.3002,4.3002,4.3002,4.3002,4.3002,4.3002,4.3002,4.3002,4.3002,4.3002,4.3002,4.2951,4.2763,4.2436,4.2072,4.1695,0.0,0.0,0.0,0.0,0.0,0.0,3.9584,3.9697,3.9697,3.9697,3.9697,3.9697,3.9697,3.9697,3.9697,3.9697,3.9697,3.9697,3.9697,3.9697,3.9697,3.9697,3.9697,3.9697,3.9697,3.9697,3.9697,3.9697,4.0147,4.0957,4.0957,4.1654,4.2906,4.3764,4.4349,4.4849,4.6129,4.666,4.6704,4.7142,4.7309,4.7309,4.7309,4.7309,4.7309,3.9622,3.9697,3.9584,3.9245,3.9195,3.9308,3.9634,3.9697,3.9697,3.9697,3.9697,3.9697,3.9697,3.9697,3.9697,3.9697,3.9697,3.9772,3.9973,3.9986,4.0074,4.0275,4.06,4.0788,0.0,0.0,0.0,0.0,0.0,4.1731,0.0,0.0,0.0,0.0,4.2851,4.3002,4.3002,4.3002,4.3002,4.3002,4.3002,4.3002,4.3002,4.3002,4.3002,4.3002,4.3002,4.3002,4.3002,4.3002,4.3002,4.3002,4.3002,4.3002,4.3002,4.3002,4.3002,4.3002,4.3002,4.3002,4.3002,4.3002,4.3002,4.3002,4.3002,4.3002,4.3002,4.3002,4.2725,4.2439,4.225,0.0,0.0,0.0,0.0,0.0,0.0,3.9697,3.9697,3.9697,3.9697,3.9697,3.9697,3.9697,3.9697,3.9697,3.9697,3.9697,3.9697,3.9697,3.9697,3.9697,3.9697,3.9697,3.9697,4.0147,4.0389,4.0389,4.0844,4.148,4.229,4.229,4.2978,4.421,4.5047,4.5666,4.6144,4.6975,4.7309,4.7309,4.7309,4.7309,4.7309,4.7309,4.7309,4.7309,3.9697,3.9697,3.9697,3.9697,3.9697,3.9697,3.9697,3.9697,3.9697,3.9697,3.9697,3.9697,3.9697,3.9722,3.9735,3.9735,3.976,3.9998,4.0499,4.0537,4.0763,4.129,4.134,4.1352,4.1352,0.0,0.0,0.0,0.0,0.0,4.3002,0.0,0.0,0.0,4.3002,4.3002,4.3002,4.3002,4.3002,4.3002,4.3002,4.3002,4.3002,4.3002,4.3002,4.3002,4.3002,4.3002,4.3002,4.3002,4.3002,4.3002,4.3002,4.3002,4.3002,4.3002,4.3002,4.3002,4.3002,4.3002,4.3002,4.3002,4.3002,4.3002,4.3002,4.3002,4.3002,4.3002,4.3002,4.2851,4.2323,4.1743,0.0,0.0,0.0,0.0,0.0,3.9697,3.9697,3.9697,3.9697,3.9697,3.9697,3.9697,3.9697,3.9697,3.9697,3.9697,3.9697,3.9697,3.9697,3.9697,3.9697,3.9723,3.9788,4.0982,4.1629,4.1715,4.293,4.3527,4.3598,4.3598,4.4279,4.5494,4.5494,4.6188,4.7309,4.7309,4.7309,4.7309,4.7309,4.7309,4.7309,4.7309,4.7309,4.7309,3.9697,3.9697,3.9697,3.9697,3.9697,3.9697,3.9697,3.9697,3.9697,3.9697,3.9697,3.9697,3.9697,4.0061,4.03,4.03,4.065,4.0951,4.1089,4.1102,4.1164,4.1275,4.1731,4.1972,4.1972,4.2346,4.2622,4.2788,0.0,4.2864,4.3002,4.3002,4.3002,4.3002,4.3002,4.3002,4.3002,4.3002,4.3002,4.3002,4.3002,4.3002,4.3002,4.3002,4.3002,4.3002,4.3002,4.3002,4.3002,4.3002,4.3002,4.3002,4.3002,4.3002,4.3002,4.3002,4.3002,4.3002,4.3002,4.3002,4.3002,4.3002,4.3002,4.3002,4.3002,4.3002,4.3002,4.3002,4.3002,4.2964,4.2826,4.2348,0.0,0.0,0.0,0.0,0.0,3.9697,3.9697,3.9697,3.9697,3.9697,3.9697,3.9697,3.9697,3.9697,3.9697,3.9697,3.9697,3.9697,3.9697,3.9697,3.9697,4.0147,4.1107,4.143,4.207,4.3026,4.3337,4.3999,4.4895,4.4895,4.5607,4.6807,4.6807,4.6997,4.7309,4.7309,4.7309,4.7309,4.7309,4.7309,4.7309,4.7309,4.7309,4.7309,4.0061,4.0249,4.0413,4.0413,4.0413,4.0249,3.9772,4.0111,4.0325,4.0086,4.0262,4.0413,4.0413,4.0662,4.0851,4.0851,4.1139,4.1415,4.1681,4.1693,4.1806,4.2017,4.2386,4.2549,4.2549,4.2851,0.0,4.3002,0.0,4.3002,4.3002,4.3002,4.3002,4.3002,4.3002,4.3002,4.3002,4.3002,4.3002,4.3002,4.3002,4.3002,0.0,4.3002,4.3002,4.3002,4.3002,4.3002,4.3002,4.3002,4.3002,4.3002,4.3002,4.3002,4.3002,4.3002,4.3002,4.3002,4.3002,4.3002,4.3002,4.3002,4.3002,4.3002,4.3002,4.3002,4.3002,4.3002,4.3002,4.3002,4.3002,4.2549,4.1921,0.0,0.0,0.0,3.9697,3.9697,3.9697,3.9697,3.9697,3.9697,3.9697,3.9697,3.9697,3.9697,3.9697,3.9697,3.9697,4.0224,4.0529,4.0529,4.1082,4.1715,4.2412,4.2978,4.3622,4.4326,4.4895,4.5539,4.6233,4.6233,4.6616,4.7309,4.7309,4.7309,4.7309,4.7309,4.7309,4.7309,4.7309,4.7309,4.7309,4.7309,4.7309,4.7309,4.06,4.1136,4.1504,4.1342,4.1526,4.1277,4.0087,4.07,4.1193,4.0914,4.1281,4.1585,4.1585,4.1795,4.1819,4.1442,4.164,4.1933,4.2288,4.2286,4.2499,4.2977,4.3002,4.3002,4.3002,4.3002,4.3002,0.0,0.0,4.3002,4.3002,4.3002,4.3002,4.3002,4.3002,4.3002,4.3002,4.3002,4.3002,4.3002,4.3002,4.3002,4.3002,4.3002,4.3002,4.3002,4.3002,4.3002,4.3002,4.3002,4.3002,4.3002,4.3002,4.3002,4.3002,4.3002,4.3002,4.3002,4.3002,4.3002,4.3002,4.3002,4.3002,4.3002,4.3002,4.3002,4.3002,4.3002,4.3002,4.3002,4.3002,4.2549,4.1846,4.0789,4.0162,3.9772,3.9697,3.9697,3.9697,3.9697,3.9697,0.0,3.9697,3.9697,3.9697,3.9697,3.9697,3.9697,3.9697,4.0907,4.1604,4.1604,4.2834,4.3575,4.3764,4.4849,4.5471,4.5666,4.6785,4.7309,4.7309,4.7309,4.7309,4.7309,4.7309,4.7309,4.7309,4.7309,4.7309,4.7309,4.7309,4.7309,4.7309,4.7309,4.7309,4.7309,4.1164,4.216,4.2684,4.1517,4.2622,4.3072,4.1288,4.1189,4.1667,4.2736,4.2957,4.3022,4.3022,4.4464,4.4501,4.224,4.345,4.3936,4.2934,4.2864,4.2901,4.3002,4.3002,4.3002,4.3002,4.3002,4.3002,4.3002,4.3002,0.0,0.0,4.3002,4.3002,4.3002,4.3002,4.3002,4.3002,4.3002,4.3002,4.3002,4.3002,4.3002,4.3002,4.3002,4.3002,4.3002,4.3002,4.3002,4.3002,4.3002,4.3002,4.3002,4.3002,4.3002,4.3002,4.3002,4.3002,4.3002,4.3002,4.3002,4.3002,4.3002,4.3002,4.3002,4.3002,4.3002,4.3002,4.3002,4.3002,4.3002,4.3002,4.2549,4.1972,4.1265,4.07,4.0212,3.976,3.9697,3.9697,3.9697,3.9697,3.9697,3.9697,3.9697,3.9697,3.9697,3.9697,3.9697,3.9697,4.0907,4.1604,4.1604,4.2834,4.3999,4.507,4.5275,4.5928,4.6975,4.7186,4.7309,4.7309,4.7309,4.7309,4.7309,4.7309,4.7309,4.7309,4.7309,4.7309,4.7309,4.7309,4.7309,4.7309,4.7309,4.7309,4.7309,4.3168,4.4335,4.4675,4.254,4.4136,4.5152,4.3472,4.3834,4.4177,4.386,4.4682,4.5321,4.5321,4.6156,4.618,4.4864,4.4903,4.4738,4.4086,4.3394,4.3002,4.3002,4.3002,4.3002,4.3002,4.3002,4.3002,4.3002,4.37,0.0,0.0,4.37,4.3672,4.3002,4.3002,4.3002,4.3002,4.3002,4.3002,4.3002,4.3002,4.3002,4.3002,4.3002,4.3002,4.3002,4.3002,4.3002,4.3002,4.3002,4.3002,4.3002,4.3002,4.3002,4.3002,4.3002,4.3002,4.3002,4.3002,4.3002,4.3002,4.3002,4.3002,4.3002,4.3002,4.3002,4.3002,4.3002,4.3002,4.3002,4.3002,4.2549,4.1997,4.1403,4.0851,4.0299,3.9772,3.9697,3.9697,3.9697,4.0287,4.044,3.9762,4.0287,4.0693,4.0693,4.0693,4.0957,4.1654,4.2882,4.3575,4.3575,4.4803,4.5779,4.6381,4.6403,4.6682,4.7309,4.7309,4.7309,4.7309,4.7309,4.7309,4.7309,4.7309,4.7309,4.7309,4.7309,4.7309,4.7309,4.7309,4.7309,4.7309,4.7309,4.7309,4.7309,4.5316,4.6331,4.6435,4.4249,4.5912,4.7069,4.5661,4.6643,4.7005,4.546,4.66,4.7568,4.7568,4.7797,4.7746,4.7146,4.6357,4.5767,4.5475,4.4454,4.3852,4.3852,4.3852,4.3727,4.3421,4.3421,4.3295,4.3002,4.4345,4.4318,4.303,4.4372,4.4277,4.3002,4.3002,4.3002,4.303,4.3283,4.3268,4.303,4.331,4.3421,4.3394,4.3113,4.3366,4.3782,4.3212,4.3184,4.3366,4.3113,4.3002,4.3002,4.3002,4.3002,4.3002,4.3002,4.3002,4.3002,4.3002,4.3002,4.3002,4.3002,4.3002,4.3002,4.3002,4.3002,4.3002,4.3002,4.3002,4.3002,4.3002,4.265,4.2147,4.1415,4.0951,4.0529,4.0146,3.9865,3.9916,4.044,4.0907,4.1007,4.0554,4.1169,4.1813,4.2363,4.1912,4.2168,4.3432,4.4711,4.5403,4.5403,4.6638,4.7309,4.7309,4.7309,4.7309,4.7309,4.7309,4.7309,4.7309,4.7309,4.7309,4.7309,4.7309,4.7309,4.7309,4.7309,4.7309,4.7309,4.7309,4.7309,4.7309,4.7309,4.7309,4.7309,4.6642,4.6991,4.7017,4.6759,4.7974,4.8539,4.712,4.8099,4.8936,4.8765,4.8882,4.8999,4.8999,5.008,4.98,4.7325,4.815,4.8275,4.6991,4.6785,4.6721,4.6721,4.6721,4.6122,4.4833,4.4806,4.4222,4.3002,4.4345,4.4318,4.303,4.4372,4.4277,4.3002,4.3002,4.3002,4.3085,4.4291,4.4113,4.3113,4.4318,4.4806,4.4684,4.3477,4.4549,4.6383,4.3879,4.3782,4.463,4.3421,4.3002,4.3002,4.3002,4.3002,4.3002,4.3002,4.3002,4.3002,4.3002,4.3002,4.3002,4.3002,4.3002,4.3002,4.3002,4.3002,4.3002,4.3002,4.3002,4.3002,4.3002,4.2964,4.2559,4.149,4.1277,4.1262,4.1401,4.044,4.0554,4.2858,4.1219,4.0743,4.293,4.2217,4.2544,4.4872,4.2906,4.2168,4.3432,4.4711,4.5403,4.5403,4.6638,4.7309,4.7309,4.7309,4.7309,4.7309,4.7309,4.7309,4.7309,4.7309,4.7309,4.7309,4.7309,4.7309,4.7309,4.7309,4.7309,4.7309,4.7309,4.7309,4.7309,4.7309,4.7309,4.7309,4.825,4.8999,4.9024,4.7376,4.8925,4.9936,4.8564,4.9518,5.0397,5.0397,5.0397,5.0397,5.0397,5.0878,5.076,4.9664,4.9333,4.895,4.8414,4.7568,4.7094,4.7094,4.7094,4.6837,4.6279,4.6253,4.599,4.5449,4.6837,4.6811,4.5475,4.6017,4.5102,4.303,4.3837,4.4195,4.4291,4.5661,4.5938,4.5502,4.6043,4.6253,4.62,4.5661,4.6148,4.6966,4.5872,4.582,4.6174,4.5634,4.4345,4.3002,4.3002,4.3002,4.3002,4.3002,4.3002,4.3002,4.3002,4.3002,4.3002,4.3002,4.3002,4.3002,4.3002,4.3002,4.3002,4.3002,4.3002,4.3002,4.3002,4.3645,4.3677,4.2108,4.2878,4.331,4.2224,4.2025,4.2363,4.3385,4.3289,4.3218,4.348,4.374,4.4303,4.532,4.4456,4.4442,4.5711,4.6255,4.6535,4.6535,4.7019,4.7309,4.7309,4.7309,4.7309,4.7309,4.7309,4.7309,4.7309,4.7309,4.7309,4.7309,4.7309,4.7309,4.7309,4.7309,4.7309,4.7309,4.7309,4.7309,4.7309,4.7309,4.7309,4.7309,4.9703,5.0239,5.0104,4.8589,4.9897,5.0878,4.9936,5.0603,5.1191,5.1191,5.1191,5.1191,5.1191,5.1191,5.1191,5.1191,5.0335,4.98,4.98,4.8851,4.8314,4.8314,4.8314,4.8125,4.7746,4.7721,4.7517,4.7094,4.8514,4.8489,4.7094,4.7094,4.6069,4.4249,4.5195,4.5608,4.5714,4.712,4.7492,4.7146,4.7568,4.7721,4.767,4.7248,4.7594,4.82,4.7376,4.7376,4.7645,4.7223,4.582,4.414,4.3727,4.3602,4.3602,4.3602,4.3879,4.4113,4.37,4.3879,4.4016,4.3212,4.3283,4.3464,4.3085,4.331,4.37,4.4113,4.3879,4.37,4.414,4.4994,4.513,4.3646,4.4649,4.5112,4.3777,4.3691,4.4006,4.454,4.4757,4.478,4.4642,4.5092,4.5561,4.5928,4.5973,4.6344,4.7251,4.7309,4.7309,4.7309,4.7309,4.7309,4.7309,4.7309,4.7309,4.7309,4.7309,4.7309,4.7309,4.7309,4.7309,4.7309,4.7309,4.7309,4.7309,4.7309,4.7309,4.7309,4.7309,4.7309,4.7309,4.7309,4.7309,4.7309,5.0917,5.0104,4.9616,5.0917,5.1167,5.1191,5.1167,5.1191,5.1191,5.1191,5.1191,5.1191,5.1191,5.1191,5.1191,5.1191,5.1191,5.1167,5.1167,5.1167,5.1144,5.1144,5.1144,5.0517,4.921,4.9186,4.8489,4.7094,4.8514,4.8489,4.7094,4.7094,4.7069,4.7043,4.7069,4.7069,4.7171,4.8589,4.8364,4.7223,4.8614,4.9186,4.9024,4.7645,4.8802,5.0784,4.8074,4.7999,4.895,4.7568,4.7069,4.6811,4.5409,4.4994,4.4994,4.4994,4.5964,4.6733,4.5356,4.599,4.6409,4.3672,4.4016,4.463,4.3283,4.4016,4.5382,4.6759,4.5938,4.5409,4.6785,4.7043,4.6901,4.6344,4.6272,4.629,4.6349,4.5288,4.5181,4.7027,4.5047,4.4526,4.7019,4.6129,4.5928,4.7186,4.7287,4.7287,4.7309,4.7309,4.7309,4.7309,4.7309,4.7309,4.7309,4.7309,4.7309,4.7309,4.7309,4.7309,4.7309,4.7309,4.7309,4.7309,4.7309,4.7309,4.7309,4.7309,4.7309,4.7309,4.7309,4.7309,4.7309,4.7309,4.7309,4.7309,5.112,5.0855,5.0698,5.112,5.1191,5.1191,5.1191,5.1191,5.1191,5.1191,5.1191,5.1191,5.1191,5.1191,5.1191,5.1191,5.1191,5.1191,5.1191,5.1191,5.1191,5.1191,5.1191,5.0988,5.0579,5.0555,5.0335,4.9897,5.0335,4.9873,4.8539,4.8539,4.8024,4.7146,4.8099,4.8539,4.8614,4.9984,5.0287,4.9936,5.0373,5.0555,5.0517,5.0056,5.0445,5.1097,5.0215,5.0191,5.0493,5.0056,4.9284,4.8464,4.7999,4.7197,4.6435,4.6435,4.6733,4.6991,4.6565,4.6759,4.6888,4.6017,4.6122,4.6331,4.5899,4.6122,4.6565,4.6991,4.6747,4.6565,4.7017,4.7873,4.8168,4.7024,4.8032,4.849,4.7149,4.7021,4.7145,4.7282,4.6594,4.6403,4.7207,4.6931,4.6851,4.7287,4.7309,4.7309,4.7309,4.7309,4.7309,4.7309,4.7309,4.7309,4.7309,4.7309,4.7309,4.7309,4.7309,4.7309,4.7309,4.7309,4.7309,4.7309,4.7309,4.7309,4.7309,4.7309,4.7309,4.7309,4.7309,4.7309,4.7309,4.7309,4.7309,4.7309,5.1191,5.1191,5.1191,5.1191,5.1191,5.1191,5.1191,5.1191,5.1191,5.1191,5.1191,5.1191,5.1191,5.1191,5.1191,5.1191,5.1191,5.1191,5.1191,5.1191,5.1191,5.1191,5.1191,5.1191,5.1191,5.1191,5.1191,5.1191,5.1191,5.0784,4.996,4.996,4.9494,4.8663,4.9567,4.996,5.0008,5.0831,5.1191,5.1191,5.1191,5.1191,5.1191,5.1191,5.1191,5.1191,5.1191,5.1191,5.1191,5.1191,5.065,4.996,4.996,4.9357,4.8539,4.8049,4.825,4.8539,4.8024,4.825,4.8389,4.735,4.7517,4.7898,4.7898,4.7492,4.7376,4.8439,4.8225,4.8049,4.8539,4.9357,4.9664,4.8777,4.9719,5.0046,4.8545,4.8518,4.8438,4.7758,4.7459,4.7309,4.7309,4.7309,4.7309,4.7309,4.7309,4.7309,4.7309,4.7309,4.7309,4.7309,4.7309,4.7309,4.7309,4.7309,4.7309,4.7309,4.7309,4.7309,4.7309,4.7309,4.7309,4.7309,4.7309,4.7309,4.7309,4.7309,4.7309,4.7309,4.7309,4.7309,4.7309,4.7309,4.7309,4.7309,5.1191,5.1191,5.1191,5.1191,5.1191,5.1191,5.1191,5.1191,5.1191,5.1191,5.1191,5.1191,5.1191,5.1191,5.1191,5.1191,5.1191,5.1191,5.1191,5.1191,5.1191,5.1191,5.1191,5.1191,5.1191,5.1191,5.1191,5.1191,5.1191,5.1191,5.1191,5.1191,5.1191,5.1191,5.1191,5.1191,5.1191,5.1191,5.1191,5.1191,5.1191,5.1191,5.1191,5.1191,5.1191,5.1191,5.1191,5.1191,5.1191,5.1191,5.1191,5.1191,5.1191,5.1191,5.0964,4.9703,5.0215,5.0941,4.9679,5.0239,5.0603,4.8024,4.8364,4.9333,4.9333,4.8339,4.8099,5.0674,5.0215,4.9727,5.0964,5.1191,5.1191,5.1191,5.1191,5.0966,5.0285,4.9718,4.9097,4.8394,4.7743,4.7354,4.7309,4.7309,4.7309,4.7309,4.7309,4.7309,4.7309,4.7309,4.7309,4.7309,4.7309,4.7309,4.7309,4.7309,4.7309,4.7309,4.7309,4.7309,4.7309,4.7309,4.7309,4.7309,4.7309,4.7309,4.7309,4.7309,4.7309,4.7309,4.7309,4.7309,4.7309,4.7309,4.7309,4.7309,5.1191,5.1191,5.1191,5.1191,5.1191,5.1191,5.1191,5.1191,5.1191,5.1191,5.1191,5.1191,5.1191,5.1191,5.1191,5.1191,5.1191,5.1191,5.1191,5.1191,5.1191,5.1191,5.1191,5.1191,5.1191,5.1191,5.1191,5.1191,5.1191,5.1191,5.1191,5.1191,5.1191,5.1191,5.1191,5.1191,5.1191,5.1191,5.1191,5.1191,5.1191,5.1191,5.1191,5.1191,5.1191,5.1191,5.1191,5.1191,5.1191,5.1191,5.1191,5.1191,5.1191,5.1191,5.1144,5.0831,5.0964,5.112,5.0807,5.0964,5.1035,5.0397,5.0469,5.0736,5.0736,5.0469,5.0421,5.1058,5.0964,5.0831,5.1144,5.1191,5.1191,5.1191,5.1191,5.0966,5.0285,5.0084,4.9561,4.8416,4.8147,4.7863,4.7354,4.7309,4.7309,4.7309,4.7309,4.7309,4.7309,4.7309,4.7309,4.7309,4.7309,4.7309,4.7309,4.7309,4.7309,4.7309,4.7309,4.7309,4.7309,4.7309,4.7309,4.7309,4.7309,4.7309,4.7309,4.7309,4.7309,4.7309,4.7309,4.7309,4.7309,4.7309,4.7309,4.7309,5.1191,5.1191,5.1191,5.1191,5.1191,5.1191,5.1191,5.1191,5.1191,5.1191,5.1191,5.1191,5.1191,5.1191,5.1191,5.1191,5.1191,5.1191,5.1191,5.1191,5.1191,5.1191,5.1191,5.1191,5.1191,5.1191,5.1191,5.1191,5.1191,5.1191,5.1191,5.1191,5.1191,5.1191,5.1191,5.1191,5.1191,5.1191,5.1191,5.1191,5.1191,5.1191,5.1191,5.1191,5.1191,5.1191,5.1191,5.1191,5.1191,5.1191,5.1191,5.1191,5.1191,5.1191,5.1191,5.1191,5.1191,5.1191,5.1191,5.1191,5.1191,5.1191,5.1191,5.1191,5.1191,5.1191,5.1191,5.1191,5.1191,5.1191,5.1191,5.1191,5.1191,5.1191,5.1191,5.1071,5.0712,5.0398,4.9949,4.9247,4.8656,4.8147,4.7788,4.7474,4.7309,4.7309,4.7309,4.7309,4.7309,4.7309,4.7309,4.7309,4.7309,4.7309,4.7309,4.7309,4.7309,4.7309,4.7309,4.7309,4.7309,4.7309,4.7309,4.7309,4.7309,4.7309,4.7309,4.7309,4.7309,4.7309,4.7309,4.7309,4.7309,4.7309,4.7309,4.7309,5.1191,5.1191,5.1191,5.1191,5.1191,5.1191,5.1191,5.1191,5.1191,5.1191,5.1191,5.1191,5.1191,5.1191,5.1191,5.1191,5.1191,5.1191,5.1191,5.1191,5.1191,5.1191,5.1191,5.1191,5.1191,5.1191,5.1191,5.1191,5.1191,5.1191,5.1191,5.1191,5.1191,5.1191,5.1191,5.1191,5.1191,5.1191,5.1191,5.1191,5.1191,5.1191,5.1191,5.1191,5.1191,5.1191,5.1191,5.1191,5.1191,5.1191,5.1191,5.1191,5.1191,5.1191,5.1191,5.1191,5.1191,5.1191,5.1191,5.1191,5.1191,5.1191,5.1191,5.1191,5.1191,5.1191,5.1191,5.1191,5.1191,5.1191,5.1191,5.1191,5.1191,5.1191,5.1191,5.1191,5.1191,5.0712,5.03,5.0196,4.9247,4.8506,4.8334,4.7788,4.7414,4.7309,4.7309,4.7309,4.7309,4.7309,4.7309,4.7309,4.7309,4.7309,4.7309,4.7309,4.7309,4.7309,4.7309,4.7309,4.7309,4.7309,4.7309,4.7309,4.7309,4.7309,4.7309,4.7309,4.7309,4.7309,4.7309,4.7309,4.7309,4.7309,4.7309,4.7309,5.1191,5.1191,5.1191,5.1191,5.1191,5.1191,5.1191,5.1191,5.1191,5.1191,5.1191,5.1191,5.1191,5.1191,5.1191,5.1191,5.1191,5.1191,5.1191,5.1191,5.1191,5.1191,5.1191,5.1191,5.1191,5.1191,5.1191,5.1191,5.1191,5.1191,5.1191,5.1191,5.1191,5.1191,5.1191,5.1191,5.1191,5.1191,5.1191,5.1191,5.1191,5.1191,5.1191,5.1191,5.1191,5.1191,5.1191,5.1191,5.1191,5.1191,5.1191,5.1191,5.1191,5.1191,5.1191,5.1191,5.1191,5.1191,5.1191,5.1191,5.1191,5.1191,5.1191,5.1191,5.1191,5.1191,5.1191,5.1191,5.1191,5.1191,5.1191,5.1191,5.1191,5.1191,5.1191,5.1191,5.1191,5.1101,5.0832,5.0278,5.0039,4.9471,4.8386,4.8214,4.7908,4.7339,4.7309,4.7309,4.7309,4.7309,4.7309,4.7309,4.7309,4.7309,4.7309,4.7309,4.7309,4.7309,4.7309,4.7309,4.7309,4.7309,4.7309,4.7309,4.7309,4.7309,4.7309,4.7309,4.7309,4.7309,4.7309,4.7309,4.7309,4.7309,4.7309,4.7309,5.1191,5.1191,5.1191,5.1191,5.1191,5.1191,5.1191,5.1191,5.1191,5.1191,5.1191,5.1191,5.1191,5.1191,5.1191,5.1191,5.1191,5.1191,5.1191,5.1191,5.1191,5.1191,5.1191,5.1191,5.1191,5.1191,5.1191,5.1191,5.1191,5.1191,5.1191,5.1191,5.1191,5.1191,5.1191,5.1191,5.1191,5.1191,5.1191,5.1191,5.1191,5.1191,5.1191,5.1191,5.1191,5.1191,5.1191,5.1191,5.1191,5.1191,5.1191,5.1191,5.1191,5.1191,5.1191,5.1191,5.1191,5.1191,5.1191,5.1191,5.1191,5.1191,5.1191,5.1191,5.1191,5.1191,5.1191,5.1191,5.1191,5.1191,5.1191,5.1191,5.1191,5.1191,5.1191,5.1191,5.1191,5.1191,5.1086,5.0787,5.0405,4.9979,4.9381,4.9015,4.8558,4.7878,4.7833,4.7683,4.7324,4.7309,4.7309,4.7309,4.7309,4.7309,4.7309,4.7309,4.7309,4.7309,4.7309,4.7309,4.7309,4.7309,4.7309,4.7309,4.7309,4.7309,4.7309,4.7309,4.7309,4.7309,4.7309,4.7309,4.7309,4.7309,4.7309,4.7309,5.1191,5.1191,5.1191,5.1191,5.1191,5.1191,5.1191,5.1191,5.1191,5.1191,5.1191,5.1191,5.1191,5.1191,5.1191,5.1191,5.1191,5.1191,5.1191,5.1191,5.1191,5.1191,5.1191,5.1191,5.1191,5.1191,5.1191,5.1191,5.1191,5.1191,5.1191,5.1191,5.1191,5.1191,5.1191,5.1191,5.1191,5.1191,5.1191,5.1191,5.1191,5.1191,5.1191,5.1191,5.1191,5.1191,5.1191,5.1191,5.1191,5.1191,5.1191,5.1191,5.1191,5.1191,5.1191,5.1191,5.1191,5.1191,5.1191,5.1191,5.1191,5.1191,5.1191,5.1191,5.1191,5.1191,5.1191,5.1191,5.1191,5.1191,5.1191,5.1191,5.1191,5.1191,5.1191,5.1191,5.1191,5.1191,5.1191,5.1191,5.0757,5.036,5.0211,4.9778,4.9247,4.8588,4.8543,4.8244,4.7563,4.7534,4.7459,4.7309,4.7309,4.7309,4.7309,4.7309,4.7309,4.7309,4.7309,4.7309,4.7309,4.7309,4.7309,4.7309,4.7309,4.7309,4.7309,4.7309,4.7309,4.7309,4.7309,4.7309,4.7309,4.7309,4.7309,4.7309,5.1191,5.1191,5.1191,5.1191,5.1191,5.1191,5.1191,5.1191,5.1191,5.1191,5.1191,5.1191,5.1191,5.1191,5.1191,5.1191,5.1191,5.1191,5.1191,5.1191,5.1191,5.1191,5.1191,5.1191,5.1191,5.1191,5.1191,5.1191,5.1191,5.1191,5.1191,5.1191,5.1191,5.1191,5.1191,5.1191,5.1191,5.1191,5.1191,5.1191,5.1191,5.1191,5.1191,5.1191,5.1191,5.1191,5.1191,5.1191,5.1191,5.1191,5.1191,5.1191,5.1191,5.1191,5.1191,5.1191,5.1191,5.1191,5.1191,5.1191,5.1191,5.1191,5.1191,5.1191,5.1191,5.1191,5.1191,5.1191,5.1191,5.1191,5.1191,5.1191,5.1191,5.1191,5.1191,5.1191,5.1191,5.1191,5.1191,5.1191,5.1161,5.0892,5.0255,5.0151,4.9875,4.9262,4.9239,4.8932,4.8274,4.8244,4.7938,4.7324,4.7309,4.7309,4.7309,4.7309,4.7309,4.7309,4.7309,4.7309,4.7309,4.7309,4.7309,4.7309,4.7309,4.7309,4.7309,4.7309,4.7309,4.7309,4.7309,4.7309,4.7309,4.7309,4.7309,4.7309,5.1191,5.1191,5.1191,5.1191,5.1191,5.1191,5.1191,5.1191,5.1191,5.1191,5.1191,5.1191,5.1191,5.1191,5.1191,5.1191,5.1191,5.1191,5.1191,5.1191,5.1191,5.1191,5.1191,5.1191,5.1191,5.1191,5.1191,5.1191,5.1191,5.1191,5.1191,5.1191,5.1191,5.1191,5.1191,5.1191,5.1191,5.1191,5.1191,5.1191,5.1191,5.1191,5.1191,5.1191,5.1191,5.1191,5.1191,5.1191,5.1191,5.1191,5.1191,5.1191,5.1191,5.1191,5.1191,5.1191,5.1191,5.1191,5.1191,5.1191,5.1191,5.1191,5.1191,5.1191,5.1191,5.1191,5.1191,5.1191,5.1191,5.1191,5.1191,5.1191,5.1191,5.1191,5.1191,5.1191,5.1191,5.1191,5.1191,5.1191,5.1191,5.1101,5.0847,5.0832,5.0548,4.9927,4.9868,4.9583,4.8947,4.8917,4.8618,4.7938,4.7923,4.7713,4.7309,4.7309,4.7309,4.7309,4.7309,4.7309,4.7309,4.7309,4.7309,4.7309,4.7309,4.7651,4.8246,4.8246,4.861,4.9226,4.9226,4.8815,4.8246,4.8246,4.7834,4.7309,5.1191,5.1191,5.1191,5.1191,5.1191,5.1191,5.1191,5.1191,5.1191,5.1191,5.1191,5.1191,5.1191,5.1191,5.1191,5.1191,5.1191,5.1191,5.1191,5.1191,5.1191,5.1191,5.1191,5.1191,5.1191,5.1191,5.1191,5.1191,5.1191,5.1191,5.1191,5.1191,5.1191,5.1191,5.1191,5.1191,5.1191,5.1191,5.1191,5.1191,5.1191,5.1191,5.1191,5.1191,5.1191,5.1191,5.1191,5.1191,5.1191,5.1191,5.1191,5.1191,5.1191,5.1191,5.1191,5.1191,5.1191,5.1191,5.1191,5.1191,5.1191,5.1191,5.1191,5.1191,5.1191,5.1191,5.1191,5.1191,5.1191,5.1191,5.1191,5.1191,5.1191,5.1191,5.1191,5.1191,5.1191,5.1191,5.1191,5.1191,5.1191,5.1191,5.1191,5.1191,5.1011,5.0563,5.0518,5.0234,4.9636,4.9396,4.9082,4.8633,4.8618,4.8394,4.7923,4.7519,4.7309,4.7309,4.7309,4.7309,4.7309,4.7309,4.7473,4.7764,4.7764,4.8356,4.9296,4.9296,4.9734,5.0397,5.0397,4.9754,4.8846,4.9175,4.846,4.7337,5.1191,5.1191,5.1191,5.1191,5.1191,5.1191,5.1191,5.1191,5.1191,5.1191,5.1191,5.1191,5.1191,5.1191,5.1191,5.1191,5.1191,5.1191,5.1191,5.1191,5.1191,5.1191,5.1191,5.1191,5.1191,5.1191,5.1191,5.1191,5.1191,5.1191,5.1191,5.1191,5.1191,5.1191,5.1191,5.1191,5.1191,5.1191,5.1191,5.1191,5.1191,5.1191,5.1191,5.1191,5.1191,5.1191,5.1191,5.1191,5.1191,5.1191,5.1191,5.1191,5.1191,5.1191,5.1191,5.1191,5.1191,5.1191,5.1191,5.1191,5.1191,5.1191,5.1191,5.1191,5.1191,5.1191,5.1191,5.1191,5.1191,5.1191,5.1191,5.1191,5.1191,5.1191,5.1191,5.1191,5.1191,5.1191,5.1191,5.1191,5.1191,5.1191,5.1191,5.1191,5.1191,5.1191,5.1191,5.0907,5.0226,4.9628,4.9307,4.9307,4.9307,4.9292,4.9292,4.7967,4.7309,4.7309,4.7309,4.7309,4.7309,4.7309,4.7855,4.8805,4.8805,4.9416,5.0397,5.0397,5.0432,5.0416,5.0416,4.9773,4.8948,5.0009,4.9085,4.7467,5.1191,5.1191,5.1191,5.1191,5.1191,5.1191,5.1191,5.1191,5.1191,5.1191,5.1191,5.1191,5.1191,5.1191,5.1191,5.1191,5.1191,5.1191,5.1191,5.1191,5.1191,5.1191,5.1191,5.1191,5.1191,5.1191,5.1191,5.1191,5.1191,5.1191,5.1191,5.1191,5.1191,5.1191,5.1191,5.1191,5.1191,5.1191,5.1191,5.1191,5.1191,5.1191,5.1191,5.1191,5.1191,5.1191,5.1191,5.1191,5.1191,5.1191,5.1191,5.1191,5.1191,5.1191,5.1191,5.1191,5.1191,5.1191,5.1191,5.1191,5.1191,5.1191,5.1191,5.1191,5.1191,5.1191,5.1191,5.1191,5.1191,5.1191,5.1191,5.1191,5.1191,5.1191,5.1191,5.1191,5.1191,5.1191,5.1191,5.1191,5.1191,5.1191,5.1191,5.1191,5.1191,5.1191,5.1191,5.1101,5.0907,5.0735,5.0421,4.9934,4.992,4.9733,4.9292,4.8438,4.7997,4.7997,4.7519,4.7309,4.7316,4.803,4.8527,4.8846,4.9595,5.0496,5.1449,5.1449,5.1902,5.2574,5.2574,5.192,5.0933,5.055,5.0005,4.9412,5.1191,5.1191,5.1191,5.1191,5.1191,5.1191,5.1191,5.1191,5.1191,5.1191,5.1191,5.1191,5.1191,5.1191,5.1191,5.1191,5.1191,5.1191,5.1191,5.1191,5.1191,5.1191,5.1191,5.1191,5.1191,5.1191,5.1191,5.1191,5.1191,5.1191,5.1191,5.1191,5.1191,5.1191,5.1191,5.1191,5.1191,5.1191,5.1191,5.1191,5.1191,5.1191,5.1191,5.1191,5.1191,5.1191,5.1191,5.1191,5.1191,5.1191,5.1191,5.1191,5.1191,5.1191,5.1191,5.1191,5.1191,5.1191,5.1191,5.1191,5.1191,5.1191,5.1191,5.1191,5.1191,5.1191,5.1191,5.1191,5.1191,5.1191,5.1191,5.1191,5.1191,5.1191,5.1191,5.1191,5.1191,5.1191,5.1191,5.1191,5.1191,5.1191,5.1191,5.1191,5.1191,5.1191,5.1191,5.1191,5.1191,5.1191,5.1011,5.0622,5.0607,5.0413,5.007,4.9389,4.8925,4.8693,4.871,4.8721,4.8764,4.9817,5.0519,5.0926,5.1276,5.2022,5.2957,5.2656,5.2904,5.3501,5.3501,5.2852,5.1885,5.1685,5.1096,5.0358,5.1191,5.1191,5.1191,5.1191,5.1191,5.1191,5.1191,5.1191,5.1191,5.1191,5.1191,5.1191,5.1191,5.1191,5.1191,5.1191,5.1191,5.1191,5.1191,5.1191,5.1191,5.1191,5.1191,5.1191,5.1191,5.1191,5.1191,5.1191,5.1191,5.1191,5.1191,5.1191,5.1191,5.1191,5.1191,5.1191,5.1191,5.1191,5.1191,5.1191,5.1191,5.1191,5.1191,5.1191,5.1191,5.1191,5.1191,5.1191,5.1191,5.1191,5.1191,5.1191,5.1191,5.1191,5.1191,5.1191,5.1191,5.1191,5.1191,5.1191,5.1191,5.1191,5.1191,5.1191,5.1191,5.1191,5.1191,5.1191,5.1191,5.1191,5.1191,5.1191,5.1191,5.1191,5.1191,5.1191,5.1191,5.1191,5.1191,5.1191,5.1191,5.1191,5.1191,5.1191,5.1191,5.1191,5.1191,5.1191,5.1191,5.1191,5.1191,5.1191,5.1308,5.1339,5.1339,5.0855,5.0246,4.9532,5.0451,5.0951,5.1099,5.2215,5.3243,5.4067,5.35,5.3795,5.4651,5.3974,5.3704,5.3704,5.3704,5.3105,5.2352,5.3226,5.2421,5.0991,5.1191,5.1191,5.1191,5.1191,5.1191,5.1191,5.1191,5.1191,5.1191,5.1191,5.1191,5.1191,5.1191,5.1191,5.1191,5.1191,5.1191,5.1191,5.1191,5.1191,5.1191,5.1191,5.1191,5.1191,5.1191,5.1191,5.1191,5.1191,5.1191,5.1191,5.1191,5.1191,5.1191,5.1191,5.1191,5.1191,5.1191,5.1191,5.1191,5.1191,5.1191,5.1191,5.1191,5.1191,5.1191,5.1191,5.1191,5.1191,5.1191,5.1191,5.1191,5.1191,5.1191,5.1191,5.1191,5.1191,5.1191,5.1191,5.1191,5.1191,5.1191,5.1191,5.1191,5.1191,5.1191,5.1191,5.1191,5.1191,5.1191,5.1191,5.1191,5.1191,5.1191,5.1191,5.1191,5.1191,5.1191,5.1191,5.1191,5.1191,5.1191,5.1191,5.1191,5.1191,5.1191,5.1191,5.1191,5.1191,5.1191,5.1191,5.1191,5.1191,5.2063,5.253,5.253,5.3277,5.287,5.1344,5.1039,5.1372,5.2255,5.3302,5.3893,5.4138,5.4825,5.5253,5.5445,5.5293,5.5225,5.5225,5.5225,5.5069,5.4807,5.4185,5.4219,5.4576,5.1191,5.1191,5.1191,5.1191,5.1191,5.1191,5.1191,5.1191,5.1191,5.1191,5.1191,5.1191,5.1191,5.1191,5.1191,5.1191,5.1191,5.1191,5.1191,5.1191,5.1191,5.1191,5.1191,5.1191,5.1191,5.1191,5.1191,5.1191,5.1191,5.1191,5.1191,5.1191,5.1191,5.1191,5.1191,5.1191,5.1191,5.1191,5.1191,5.1191,5.1191,5.1191,5.1191,5.1191,5.1191,5.1191,5.1191,5.1191,5.1191,5.1191,5.1191,5.1191,5.1191,5.1191,5.1191,5.1191,5.1191,5.1191,5.1191,5.1191,5.1191,5.1191,5.1191,5.1191,5.1191,5.1191,5.1191,5.1191,5.1191,5.1191,5.1191,5.1191,5.1191,5.1191,5.1191,5.1191,5.1191,5.1191,5.1191,5.1191,5.1191,5.1191,5.1191,5.1191,5.1191,5.1191,5.1191,5.1191,5.1191,5.1727,5.1995,5.1995,5.3121,5.3699,5.3699,5.4316,5.4376,5.3935,5.3592,5.3737,5.4348,5.5421,5.5903,5.5923,5.6128,5.6223,5.6189,5.5851,5.5699,5.5699,5.5699,5.5699,5.5629,5.5063,5.5223,5.5699,5.1191,5.1191,5.1191,5.1191,5.1191,5.1191,5.1191,5.1191,5.1191,5.1191,5.1191,5.1191,5.1191,5.1191,5.1191,5.1191,5.1191,5.1191,5.1191,5.1191,5.1191,5.1191,5.1191,5.1191,5.1191,5.1191,5.1191,5.1191,5.1191,5.1191,5.1191,5.1191,5.1191,5.1191,5.1191,5.1191,5.1191,5.1191,5.1191,5.1191,5.1191,5.1191,5.1191,5.1191,5.1191,5.1191,5.1191,5.1191,5.1191,5.1191,5.1191,5.1191,5.1191,5.1191,5.1191,5.1191,5.1191,5.1191,5.1191,5.1191,5.1191,5.1191,5.1191,5.1191,5.1191,5.1191,5.1191,5.1191,5.1191,5.1191,5.1191,5.1191,5.1191,5.1191,5.1191,5.1191,5.1191,5.1191,5.1191,5.1191,5.1191,5.1191,5.1191,5.1191,5.1191,5.1191,5.1386,5.1487,5.1487,5.256,5.3193,5.3193,5.4295,5.4863,5.4863,5.5064,5.5611,5.6492,5.6492,5.6492,5.6512,5.7463,5.79,5.7883,5.7256,5.6985,5.6934,5.6342,5.6071,5.6071,5.6071,5.6071,5.6071,5.6071,5.6071,5.6071,5.1191,5.1191,5.1191,5.1191,5.1191,5.1191,5.1191,5.1191,5.1191,5.1191,5.1191,5.1191,5.1191,5.1191,5.1191,5.1191,5.1191,5.1191,5.1191,5.1191,5.1191,5.1191,5.1191,5.1191,5.1191,5.1191,5.1191,5.1191,5.1191,5.1191,5.1191,5.1191,5.1191,5.1191,5.1191,5.1191,5.1191,5.1191,5.1191,5.1191,5.1191,5.1191,5.1191,5.1191,5.1191,5.1191,5.1191,5.1191,5.1191,5.1191,5.1191,5.1191,5.1191,5.1191,5.1191,5.1191,5.1191,5.1191,5.1191,5.1191,5.1191,5.1191,5.1191,5.1191,5.1191,5.1191,5.1191,5.1191,5.1191,5.1191,5.1191,5.1191,5.1191,5.1191,5.1191,5.1191,5.1191,5.1191,5.1191,5.1191,5.1191,5.1191,5.1191,5.1191,5.1191,5.1191,5.2094,5.2671,5.2671,5.3742,5.4379,5.4379,5.5434,5.5972,5.5972,5.6963,5.7536,5.7665,5.7665,5.7665,5.7681,5.7827,5.79,5.79,5.7798,5.7764,5.7747,5.7628,5.7594,5.7594,5.7594,5.7594,5.7594,5.7594,5.7594,5.7594,5.1191,5.1191,5.1191,5.1191,5.1191,5.1191,5.1191,5.1191,5.1191,5.1191,5.1191,5.1191,5.1191,5.1191,5.1191,5.1191,5.1191,5.1191,5.1191,5.1191,5.1191,5.1191,5.1191,5.1191,5.1191,5.1191,5.1191,5.1191,5.1191,5.1191,5.1191,5.1191,5.1191,5.1191,5.1191,5.1191,5.1191,5.1191,5.1191,5.1191,5.1191,5.1191,5.1191,5.1191,5.1191,5.1191,5.1191,5.1191,5.1191,5.1191,5.1191,5.1191,5.1191,5.1191,5.1191,5.1191,5.1191,5.1191,5.1191,5.1191,5.1191,5.1191,5.1191,5.1191,5.1191,5.1191,5.1191,5.1191,5.1191,5.1191,5.1191,5.1191,5.1191,5.1191,5.1191,5.1191,5.1191,5.1191,5.1191,5.1191,5.1191,5.1191,5.1191,5.1773,5.2139,5.2139,5.3209,5.3849,5.3849,5.4888,5.5494,5.5494,5.6567,5.7149,5.7149,5.7646,5.79,5.79,5.79,5.79,5.79,5.79,5.79,5.79,5.79,5.79,5.79,5.79,5.79,5.79,5.79,5.79,5.79,5.79,5.79,5.79]}]]